[[{"header":{"parameterUnit":"m.s-1","parameterCategory":1,"la1":30.6,"la2":29.2853,"lo1":-89.7004,"lo2":-87.6739,"dy":0.0162,"dx":0.0183,"nx":112,"ny":82,"refTime":"2023-10-27T06:00:00:Z","depth":0,"parameterNumber":2,"parameterNumberName":"U-component_of_WINDS"},"data":[0.0,0.0,0.0,0.0,0.0,0.0,0.0,0.0,0.0,0.0,0.0,0.0,0.0,0.0,0.0,0.0,0.0,0.0,0.0,0.0,0.0,0.0,0.0,0.0,0.0,0.0,0.0,0.0,0.0,0.0,0.0,0.0,0.0,0.0,0.0,0.0,0.0,0.0,0.0,0.0,0.0,0.0,0.0,0.0,0.0,0.0,0.0,0.0,0.0,0.0,0.0,0.0,0.0,0.0,0.0,0.0,0.0,0.0,0.0,0.0,0.0,0.0,0.0,0.0,0.0,0.0,0.0,0.0,0.0,0.0,0.0,0.0,0.0,0.0,0.0,0.0,0.0,0.0,0.0,0.0,0.0,0.0,0.0,0.0,0.0,0.0,0.0,0.0,0.0,0.0,0.0,6.4647,6.595,6.6811,6.6791,6.6791,6.564,6.2904,0.0,0.0,0.0,0.0,0.0,0.0,0.0,0.0,0.0,0.0,0.0,0.0,0.0,0.0,0.0,0.0,0.0,0.0,0.0,0.0,0.0,0.0,0.0,0.0,0.0,0.0,0.0,0.0,0.0,0.0,0.0,0.0,0.0,0.0,0.0,0.0,0.0,0.0,0.0,0.0,0.0,0.0,0.0,0.0,0.0,0.0,0.0,0.0,0.0,0.0,0.0,0.0,0.0,0.0,0.0,0.0,0.0,0.0,0.0,0.0,0.0,0.0,0.0,0.0,0.0,0.0,0.0,0.0,0.0,0.0,0.0,0.0,0.0,0.0,0.0,0.0,0.0,0.0,0.0,0.0,0.0,0.0,0.0,0.0,0.0,0.0,0.0,0.0,0.0,0.0,0.0,0.0,0.0,0.0,0.0,0.0,0.0,0.0,0.0,0.0,0.0,0.0,0.0,0.0,6.4019,6.6184,6.6644,6.6784,6.6811,6.6805,6.5385,6.21,0.0,0.0,0.0,0.0,0.0,0.0,0.0,0.0,0.0,0.0,0.0,0.0,0.0,0.0,0.0,0.0,0.0,0.0,0.0,0.0,0.0,0.0,0.0,0.0,0.0,0.0,0.0,0.0,0.0,0.0,0.0,0.0,0.0,0.0,0.0,0.0,0.0,0.0,0.0,0.0,0.0,0.0,0.0,0.0,0.0,0.0,0.0,0.0,0.0,0.0,0.0,0.0,0.0,0.0,0.0,0.0,0.0,0.0,0.0,0.0,0.0,0.0,0.0,0.0,0.0,0.0,0.0,0.0,0.0,0.0,0.0,0.0,0.0,0.0,0.0,0.0,0.0,0.0,0.0,0.0,0.0,0.0,0.0,0.0,0.0,0.0,0.0,0.0,0.0,0.0,0.0,0.0,0.0,0.0,0.0,0.0,0.0,0.0,0.0,0.0,0.0,0.0,0.0,6.3476,6.4488,6.6566,6.6795,6.6795,6.6784,6.6784,6.5321,6.1912,6.2535,0.0,0.0,0.0,0.0,0.0,0.0,0.0,0.0,0.0,0.0,0.0,0.0,0.0,0.0,0.0,0.0,0.0,0.0,0.0,0.0,0.0,0.0,0.0,0.0,0.0,0.0,0.0,0.0,0.0,0.0,0.0,0.0,0.0,0.0,0.0,0.0,0.0,0.0,0.0,0.0,0.0,0.0,0.0,0.0,0.0,0.0,0.0,0.0,0.0,0.0,0.0,0.0,0.0,0.0,0.0,0.0,0.0,0.0,0.0,0.0,0.0,0.0,0.0,0.0,0.0,0.0,0.0,0.0,0.0,0.0,0.0,0.0,0.0,0.0,0.0,0.0,0.0,0.0,0.0,0.0,0.0,0.0,0.0,0.0,0.0,0.0,0.0,0.0,0.0,0.0,0.0,0.0,0.0,0.0,0.0,0.0,0.0,0.0,0.0,0.0,0.0,0.0,6.453,6.5383,6.6644,6.6795,6.6795,6.6795,6.6795,6.5329,6.1913,6.2304,0.0,0.0,0.0,0.0,0.0,0.0,0.0,0.0,0.0,0.0,0.0,0.0,0.0,0.0,0.0,0.0,0.0,0.0,0.0,0.0,0.0,0.0,0.0,0.0,0.0,0.0,0.0,0.0,0.0,0.0,0.0,0.0,0.0,0.0,0.0,0.0,0.0,0.0,0.0,0.0,0.0,0.0,0.0,0.0,0.0,0.0,0.0,0.0,0.0,0.0,0.0,0.0,0.0,0.0,0.0,0.0,0.0,0.0,0.0,0.0,0.0,0.0,0.0,0.0,0.0,0.0,0.0,0.0,0.0,0.0,0.0,0.0,0.0,0.0,0.0,0.0,0.0,0.0,0.0,0.0,0.0,0.0,0.0,0.0,0.0,0.0,0.0,0.0,0.0,0.0,0.0,0.0,0.0,0.0,0.0,0.0,0.0,0.0,0.0,0.0,0.0,0.0,6.5144,6.6683,6.6795,6.6795,6.6795,6.6795,6.6795,6.5329,6.1913,6.1758,0.0,0.0,0.0,0.0,0.0,0.0,0.0,0.0,0.0,0.0,0.0,0.0,0.0,0.0,0.0,0.0,0.0,0.0,0.0,0.0,0.0,0.0,0.0,0.0,0.0,0.0,0.0,0.0,0.0,0.0,0.0,0.0,0.0,0.0,0.0,0.0,0.0,0.0,0.0,0.0,0.0,0.0,0.0,0.0,0.0,0.0,0.0,0.0,0.0,0.0,0.0,0.0,0.0,0.0,0.0,0.0,0.0,0.0,0.0,0.0,0.0,0.0,0.0,0.0,0.0,0.0,0.0,0.0,0.0,0.0,0.0,0.0,0.0,0.0,0.0,0.0,0.0,0.0,0.0,0.0,0.0,0.0,0.0,0.0,0.0,0.0,0.0,0.0,0.0,0.0,0.0,0.0,0.0,0.0,0.0,0.0,0.0,0.0,0.0,0.0,0.0,0.0,6.5109,6.6227,0.0,6.6795,6.6795,6.6795,6.6795,6.5329,6.1913,0.0,0.0,0.0,0.0,0.0,0.0,0.0,0.0,0.0,0.0,0.0,0.0,0.0,0.0,0.0,0.0,0.0,0.0,0.0,0.0,0.0,0.0,0.0,0.0,0.0,0.0,0.0,0.0,0.0,0.0,0.0,0.0,0.0,0.0,0.0,0.0,0.0,0.0,0.0,0.0,0.0,0.0,0.0,0.0,0.0,0.0,0.0,0.0,0.0,0.0,0.0,0.0,0.0,0.0,0.0,0.0,0.0,0.0,0.0,0.0,0.0,0.0,0.0,0.0,0.0,0.0,0.0,0.0,0.0,0.0,0.0,0.0,0.0,0.0,0.0,0.0,0.0,0.0,0.0,0.0,0.0,0.0,0.0,0.0,0.0,0.0,0.0,0.0,0.0,0.0,0.0,0.0,0.0,0.0,0.0,0.0,0.0,0.0,0.0,0.0,0.0,0.0,6.3789,6.5109,6.6188,0.0,6.6795,6.6795,6.6795,6.6795,6.5329,6.1913,0.0,0.0,0.0,0.0,0.0,0.0,0.0,0.0,0.0,0.0,0.0,0.0,0.0,0.0,0.0,0.0,0.0,0.0,0.0,0.0,0.0,0.0,0.0,0.0,0.0,0.0,0.0,0.0,0.0,0.0,0.0,0.0,0.0,0.0,0.0,0.0,0.0,0.0,0.0,0.0,0.0,0.0,0.0,0.0,0.0,0.0,0.0,0.0,0.0,0.0,0.0,0.0,0.0,0.0,0.0,0.0,0.0,0.0,0.0,0.0,0.0,0.0,0.0,0.0,0.0,0.0,0.0,0.0,0.0,0.0,0.0,0.0,0.0,0.0,0.0,0.0,0.0,0.0,0.0,0.0,0.0,0.0,0.0,0.0,0.0,0.0,0.0,0.0,0.0,0.0,0.0,0.0,0.0,0.0,0.0,0.0,0.0,0.0,0.0,0.0,0.0,0.0,6.289,6.5219,6.6795,6.6795,6.6795,6.6795,6.6795,6.6795,6.5329,0.0,0.0,0.0,0.0,0.0,0.0,0.0,0.0,0.0,0.0,0.0,0.0,0.0,0.0,0.0,0.0,0.0,0.0,0.0,0.0,0.0,0.0,0.0,0.0,0.0,0.0,0.0,0.0,0.0,0.0,0.0,0.0,0.0,0.0,0.0,0.0,0.0,0.0,0.0,0.0,0.0,0.0,0.0,0.0,0.0,0.0,0.0,0.0,0.0,0.0,0.0,0.0,0.0,0.0,0.0,0.0,0.0,0.0,0.0,0.0,0.0,0.0,0.0,0.0,0.0,0.0,0.0,0.0,0.0,0.0,0.0,0.0,0.0,0.0,0.0,0.0,0.0,0.0,0.0,0.0,0.0,0.0,0.0,0.0,0.0,0.0,0.0,0.0,0.0,0.0,0.0,0.0,0.0,0.0,0.0,0.0,0.0,0.0,0.0,0.0,0.0,0.0,0.0,0.0,6.5609,6.6795,6.6795,6.6795,6.6795,6.6795,6.6795,6.5329,6.1913,0.0,0.0,0.0,0.0,0.0,0.0,0.0,0.0,0.0,0.0,0.0,0.0,0.0,0.0,0.0,0.0,0.0,0.0,0.0,0.0,0.0,0.0,0.0,0.0,0.0,0.0,0.0,0.0,0.0,0.0,0.0,0.0,0.0,0.0,0.0,0.0,0.0,0.0,0.0,0.0,0.0,0.0,0.0,0.0,0.0,0.0,0.0,0.0,0.0,0.0,0.0,0.0,0.0,0.0,0.0,0.0,0.0,0.0,0.0,0.0,0.0,0.0,0.0,0.0,0.0,0.0,0.0,0.0,0.0,0.0,0.0,0.0,0.0,0.0,0.0,0.0,0.0,0.0,0.0,0.0,0.0,0.0,0.0,0.0,0.0,0.0,0.0,0.0,0.0,0.0,0.0,0.0,0.0,0.0,0.0,0.0,0.0,0.0,0.0,0.0,0.0,0.0,6.4179,6.5765,6.6795,6.6795,6.6795,6.6795,6.6795,6.6795,6.5638,6.2926,0.0,0.0,0.0,0.0,0.0,0.0,0.0,0.0,0.0,0.0,0.0,0.0,0.0,0.0,0.0,0.0,0.0,0.0,0.0,0.0,0.0,0.0,0.0,0.0,0.0,0.0,0.0,0.0,0.0,0.0,0.0,0.0,0.0,0.0,0.0,0.0,0.0,0.0,0.0,0.0,0.0,0.0,0.0,0.0,0.0,0.0,0.0,0.0,0.0,0.0,0.0,0.0,0.0,0.0,0.0,0.0,0.0,0.0,0.0,0.0,0.0,0.0,0.0,0.0,0.0,0.0,0.0,0.0,0.0,0.0,0.0,0.0,0.0,0.0,0.0,0.0,0.0,0.0,0.0,0.0,0.0,0.0,0.0,0.0,0.0,0.0,0.0,0.0,0.0,0.0,0.0,0.0,0.0,0.0,0.0,0.0,0.0,0.0,0.0,0.0,0.0,0.0,6.4179,6.5765,6.6795,6.6795,6.6795,6.6795,6.6795,6.6795,6.6063,6.4399,0.0,0.0,0.0,0.0,0.0,0.0,0.0,0.0,0.0,0.0,0.0,0.0,0.0,0.0,0.0,0.0,0.0,0.0,0.0,0.0,0.0,0.0,0.0,0.0,0.0,0.0,0.0,0.0,0.0,0.0,0.0,0.0,0.0,0.0,0.0,0.0,0.0,0.0,0.0,0.0,0.0,0.0,0.0,0.0,0.0,0.0,0.0,0.0,0.0,0.0,0.0,0.0,0.0,0.0,0.0,0.0,0.0,0.0,0.0,0.0,6.611,0.0,0.0,0.0,0.0,0.0,0.0,0.0,0.0,0.0,0.0,0.0,0.0,0.0,0.0,0.0,0.0,0.0,0.0,0.0,0.0,0.0,0.0,0.0,0.0,0.0,0.0,0.0,0.0,0.0,0.0,0.0,0.0,0.0,0.0,0.0,0.0,0.0,0.0,0.0,0.0,0.0,6.4179,6.5765,6.6795,6.6795,6.6795,6.6795,6.6795,6.6795,6.6063,6.4399,0.0,0.0,0.0,0.0,0.0,0.0,0.0,0.0,0.0,0.0,0.0,0.0,0.0,0.0,0.0,0.0,0.0,0.0,0.0,0.0,0.0,0.0,0.0,0.0,0.0,0.0,0.0,0.0,0.0,0.0,0.0,0.0,0.0,0.0,0.0,0.0,0.0,0.0,0.0,0.0,0.0,0.0,0.0,0.0,0.0,0.0,0.0,0.0,0.0,0.0,0.0,0.0,0.0,0.0,0.0,0.0,0.0,0.0,0.0,0.0,0.0,6.6279,0.0,0.0,0.0,0.0,0.0,0.0,0.0,0.0,0.0,0.0,0.0,0.0,0.0,0.0,0.0,0.0,0.0,0.0,0.0,0.0,0.0,0.0,0.0,0.0,0.0,0.0,0.0,0.0,0.0,0.0,0.0,0.0,0.0,0.0,0.0,0.0,0.0,0.0,0.0,0.0,6.5351,6.6625,6.7576,6.8005,6.7654,6.742,6.742,6.7029,6.641,6.5559,6.475,0.0,0.0,0.0,0.0,0.0,0.0,0.0,0.0,0.0,0.0,0.0,0.0,0.0,0.0,0.0,0.0,0.0,0.0,0.0,0.0,0.0,0.0,0.0,0.0,0.0,0.0,0.0,0.0,0.0,0.0,0.0,0.0,0.0,0.0,0.0,0.0,0.0,0.0,0.0,0.0,0.0,0.0,0.0,0.0,0.0,0.0,0.0,0.0,0.0,0.0,0.0,0.0,0.0,0.0,0.0,6.6733,6.6713,6.6744,6.6674,6.5974,6.6084,6.6805,0.0,0.0,0.0,0.0,0.0,0.0,0.0,0.0,0.0,0.0,0.0,0.0,0.0,0.0,0.0,0.0,0.0,0.0,0.0,0.0,0.0,0.0,0.0,0.0,0.0,6.5195,6.5543,0.0,0.0,0.0,0.0,0.0,0.0,0.0,0.0,0.0,0.0,0.0,0.0,6.6835,6.7796,6.8591,6.9333,6.8747,6.8318,6.8318,6.7537,6.7029,6.7029,6.5602,6.4672,0.0,0.0,0.0,0.0,0.0,0.0,0.0,0.0,0.0,0.0,0.0,0.0,0.0,0.0,0.0,0.0,0.0,0.0,0.0,0.0,0.0,0.0,0.0,0.0,0.0,0.0,0.0,0.0,0.0,0.0,0.0,0.0,6.5351,6.5585,0.0,0.0,0.0,0.0,0.0,0.0,0.0,0.0,0.0,0.0,0.0,0.0,0.0,0.0,6.6541,6.6711,6.6747,6.662,6.6795,6.6873,6.6872,6.6862,6.6822,6.6791,6.666,0.0,6.6819,6.6798,0.0,0.0,0.0,0.0,0.0,0.0,0.0,0.0,0.0,0.0,0.0,0.0,0.0,0.0,0.0,0.0,0.0,0.0,0.0,0.0,0.0,0.0,6.6614,6.6497,6.6531,6.6609,0.0,6.5271,6.4178,6.414,0.0,0.0,0.0,0.0,0.0,0.0,0.0,0.0,6.7804,6.8683,6.9255,6.9372,6.9294,6.9215,6.9215,6.8435,6.7927,6.7927,6.6995,6.6145,6.5456,6.4599,0.0,0.0,0.0,0.0,0.0,0.0,0.0,0.0,0.0,0.0,0.0,0.0,0.0,0.0,0.0,0.0,0.0,0.0,0.0,0.0,0.0,0.0,0.0,0.0,0.0,0.0,0.0,0.0,0.0,6.5775,6.6478,6.6954,6.6538,6.6226,0.0,0.0,0.0,0.0,0.0,0.0,0.0,0.0,0.0,6.6722,6.6412,6.6416,6.6817,6.6829,6.6844,6.6844,6.6906,6.6914,6.6914,6.6906,6.6895,6.6859,6.6828,6.6805,6.679,6.6789,6.6766,6.6713,0.0,0.0,0.0,0.0,0.0,6.5648,6.5663,0.0,0.0,0.0,0.0,0.0,0.0,0.0,0.0,0.0,0.0,0.0,0.0,0.0,0.0,6.68,6.6795,6.6795,6.6795,6.6579,6.6242,0.0,6.6093,6.6127,6.5091,0.0,0.0,0.0,0.0,0.0,6.9403,6.9894,7.0309,7.0816,7.0426,7.0113,7.0113,6.9333,6.8825,6.8825,6.8005,6.7386,6.7004,6.5726,6.4485,0.0,0.0,0.0,0.0,0.0,0.0,0.0,0.0,0.0,0.0,0.0,0.0,0.0,0.0,0.0,0.0,0.0,0.0,0.0,0.0,0.0,0.0,0.0,0.0,0.0,0.0,0.0,0.0,6.6655,6.6967,6.7368,6.6876,6.6408,0.0,0.0,0.0,0.0,0.0,0.0,6.6711,6.6759,6.6822,6.6836,6.6824,6.6978,6.7226,6.7226,6.7344,6.7539,6.7539,6.7539,6.7578,6.7578,6.7577,6.7523,6.7469,6.7452,6.7413,6.7001,6.6772,6.6727,6.6715,6.6718,0.0,6.6794,6.6794,6.6795,6.6793,6.6789,6.6711,6.6285,0.0,6.5741,6.4805,0.0,0.0,0.0,0.0,6.6639,6.6012,0.0,6.6862,6.7078,6.7146,6.7185,6.742,6.8132,6.8453,0.0,6.785,6.8006,6.6706,0.0,0.0,0.0,0.0,6.9325,7.0842,7.1021,7.1285,7.1948,7.1402,7.1011,7.1011,7.023,6.9723,6.9723,6.8903,6.8318,6.8122,6.6887,6.5922,6.5261,0.0,0.0,0.0,0.0,0.0,0.0,0.0,0.0,0.0,0.0,0.0,0.0,0.0,0.0,0.0,0.0,0.0,0.0,0.0,0.0,0.0,0.0,0.0,0.0,0.0,0.0,0.0,0.0,0.0,6.5736,6.5644,0.0,0.0,0.0,0.0,6.557,6.6258,6.6728,6.681,6.681,6.6818,6.6873,6.6874,6.7304,6.8125,6.8125,6.8515,6.9258,6.9258,6.9297,6.9375,6.9375,6.9316,6.9255,6.9284,6.9234,6.905,6.7452,6.6783,6.6777,6.6727,6.6706,6.6719,6.6791,6.6789,6.6787,6.6809,6.68,6.6922,6.7728,6.7422,6.6596,6.5702,6.5468,0.0,0.0,6.6091,6.6793,6.677,6.6761,6.6995,6.7849,6.8044,6.8279,6.9098,6.9944,7.007,0.0,6.8752,6.9312,6.9214,0.0,6.9568,7.0388,7.0544,7.089,7.1836,7.1909,7.1948,7.1987,7.1948,7.1948,7.1948,7.1128,7.0621,7.0621,6.9801,6.8942,6.8122,6.8005,6.6844,6.4401,6.5107,0.0,0.0,0.0,0.0,0.0,0.0,0.0,0.0,0.0,0.0,0.0,0.0,0.0,0.0,0.0,0.0,0.0,0.0,0.0,0.0,0.0,0.0,0.0,0.0,0.0,0.0,0.0,0.0,6.7141,6.6697,0.0,0.0,6.6174,6.6342,6.6354,6.6657,6.7096,6.7654,6.7688,6.7945,6.8476,6.8555,6.8711,6.8984,6.8984,6.914,6.9453,6.9453,6.9445,6.9458,6.9458,6.9412,6.9405,6.9343,6.9323,6.9245,6.866,6.8417,6.8422,6.8383,6.8359,6.8379,6.8418,6.8424,6.8474,6.8463,6.8463,6.8518,6.8843,6.8733,6.8427,6.8105,6.7991,6.7997,6.8027,6.8219,6.8453,6.8479,6.8474,6.8552,6.8864,6.8942,6.902,6.9333,7.0084,7.0518,6.9879,7.0444,7.0656,6.9605,7.0338,7.0999,7.0738,7.1197,7.1841,7.2678,7.2801,7.3036,7.353,7.3621,7.3627,7.3627,7.2846,7.2378,7.2378,7.1011,7.0113,6.9801,6.8708,6.7659,6.6766,6.6497,6.5104,0.0,0.0,0.0,0.0,0.0,0.0,0.0,0.0,0.0,0.0,0.0,0.0,0.0,0.0,0.0,0.0,0.0,0.0,0.0,0.0,0.0,0.0,0.0,0.0,0.0,0.0,6.6939,6.718,6.6979,6.6733,6.6421,6.6922,6.7273,6.7273,6.7607,6.8008,6.8594,6.8633,6.8867,6.9375,6.9726,7.0039,7.0273,7.0586,7.0898,7.1211,7.1211,7.1202,7.1129,7.1146,7.1107,7.1129,7.1068,7.1037,7.1037,7.1037,7.0998,7.092,6.9733,6.9304,6.9314,6.9294,6.9319,6.938,6.9387,6.9399,6.9411,6.9411,6.9411,6.9411,6.9411,6.9411,6.9411,6.9411,6.9411,6.9411,6.9411,6.9411,6.945,6.9762,6.984,6.9918,7.0191,7.0738,7.1128,7.1128,7.1577,7.159,7.0458,7.1495,7.2236,7.1636,7.228,7.3036,7.3554,7.3666,7.3927,7.4428,7.4519,7.4486,7.4486,7.3754,7.3403,7.3705,7.2071,7.1139,7.1128,6.946,6.8249,6.7664,6.6848,6.5414,6.3435,0.0,0.0,0.0,0.0,0.0,0.0,0.0,0.0,0.0,0.0,0.0,0.0,0.0,0.0,0.0,0.0,0.0,0.0,0.0,0.0,0.0,0.0,0.0,6.6795,6.6814,6.6477,6.5658,6.6361,6.6591,6.5745,6.7246,6.8242,6.8242,6.9023,6.9492,6.9492,6.9531,6.957,6.957,7.039,7.1211,7.207,7.293,7.375,7.4609,7.4609,7.4609,7.4608,7.4515,7.4505,7.4505,7.4505,7.4466,7.4388,7.4388,7.4388,7.4077,7.0765,6.944,6.945,6.947,6.9449,6.9444,6.9477,6.9489,6.9489,6.9489,6.9489,6.9489,6.9489,6.9489,6.9489,6.9489,6.9489,6.9489,6.9489,6.9489,6.9684,7.0543,7.0738,7.0972,7.1831,7.2026,7.2026,7.2026,7.2065,7.2065,7.2026,7.2768,7.333,7.3238,7.3954,0.0,7.4527,7.4535,7.4545,7.4564,7.4564,7.4564,7.4564,7.3846,7.3693,7.4486,7.2987,7.2049,7.2026,7.0409,6.8658,6.6862,6.6042,6.5222,6.4323,0.0,0.0,0.0,0.0,0.0,0.0,0.0,0.0,0.0,0.0,0.0,0.0,0.0,0.0,0.0,0.0,0.0,0.0,0.0,0.0,0.0,0.0,6.6811,6.6795,6.6823,6.6795,6.6557,6.7304,6.7734,6.749,6.8436,6.9062,6.9062,6.9336,7.0039,7.1211,7.1289,7.1875,7.3125,7.3398,7.3633,7.3867,7.4101,7.4324,7.4546,7.4598,7.4559,7.4515,7.4579,7.4558,7.4505,7.4505,7.4505,7.4466,7.4427,7.4388,7.4311,7.3375,7.2986,7.2986,7.2997,7.2638,7.2057,7.1468,7.1285,7.1285,7.1285,7.1285,7.1285,7.1285,7.1285,7.1285,7.1285,7.1285,7.1285,7.1285,7.1285,7.1363,7.1597,7.1636,7.1714,7.1948,7.2495,7.2924,7.2924,7.342,7.3615,7.3036,7.3615,7.4161,7.4134,0.0,0.0,7.536,7.5456,7.569,7.6316,7.6391,7.6388,7.6388,7.561,7.5216,0.0,7.4413,7.3554,7.2963,7.1875,7.0162,6.7781,6.6895,6.6081,0.0,0.0,0.0,0.0,0.0,0.0,0.0,0.0,0.0,0.0,0.0,0.0,0.0,0.0,0.0,0.0,0.0,0.0,0.0,0.0,0.0,0.0,6.7107,6.7325,6.7356,6.7402,6.7453,6.7422,6.8203,6.875,6.875,6.9805,7.0508,7.0508,7.1211,7.207,7.3047,7.3086,7.3555,7.457,7.4961,7.5156,7.5156,7.5508,7.5657,7.5638,7.5662,7.5662,7.5645,7.5657,7.5616,0.0,7.5551,7.5541,7.5558,7.5519,7.548,0.0,0.0,0.0,0.0,0.0,7.4129,7.3696,7.3225,7.3041,7.3041,7.3041,7.3041,7.3041,7.3041,7.3041,7.3041,7.3041,7.3041,7.3041,7.3041,7.3041,7.3041,7.3041,7.3041,7.3041,7.3041,7.3432,7.3816,7.381,0.0,0.0,7.4428,7.4726,7.5038,7.5026,7.5311,7.5748,0.0,7.6336,7.6527,7.7064,7.71,7.7094,7.7087,7.6313,0.0,0.0,0.0,7.3993,7.2783,7.1924,0.0,0.0,0.0,6.6742,0.0,0.0,0.0,0.0,6.5467,6.5742,0.0,0.0,0.0,0.0,0.0,0.0,0.0,0.0,0.0,0.0,0.0,0.0,0.0,0.0,0.0,0.0,6.7615,6.8132,6.8226,6.8474,6.8555,6.8359,6.918,6.9765,6.9765,7.1289,7.2305,7.2305,7.3711,7.4648,7.4726,0.0,0.0,0.0,0.0,7.6094,7.6172,7.6953,7.7383,7.7461,7.7472,7.7465,7.7497,7.7422,7.7382,7.7381,7.7341,7.7307,7.7272,7.7272,7.7233,7.6999,7.5324,7.47,7.4711,7.4645,7.4663,0.0,0.0,0.0,0.0,7.4486,7.4486,7.4486,7.4486,7.4486,7.4486,7.4486,7.4486,7.4486,7.4486,7.4486,7.4486,7.4486,7.4486,7.4486,7.4486,7.4564,7.4636,7.4655,7.5326,7.595,7.595,7.595,7.5928,7.5858,7.6497,0.0,7.6991,7.7139,7.7247,7.7259,0.0,0.0,7.738,7.6579,7.6423,7.7179,7.5599,7.397,7.2486,7.1506,7.0569,6.9713,6.807,6.7555,6.8239,6.7381,6.6951,6.6917,6.6054,6.6054,0.0,0.0,0.0,0.0,0.0,0.0,0.0,0.0,0.0,0.0,0.0,0.0,0.0,0.0,0.0,6.7709,6.8,6.8362,6.9069,7.0384,7.0742,6.9336,7.0547,7.1523,7.1523,7.3086,7.4101,7.4101,7.4414,7.4922,7.5625,7.5664,0.0,7.668,7.6875,7.7305,7.8008,7.8164,7.8555,7.9219,0.0,0.0,7.9218,7.9207,7.9214,7.9182,7.9131,7.9119,7.9104,7.9026,7.8636,7.7935,7.6882,7.6493,7.6426,7.5776,7.556,7.5452,7.4747,7.4486,7.4486,7.4486,7.4486,7.4486,7.4486,7.4486,0.0,7.4486,7.4486,7.4486,7.4486,7.4486,7.4486,7.4486,7.4486,7.4486,7.4486,7.5059,7.556,7.5553,7.6193,7.6751,7.678,7.6761,7.6778,7.6747,7.6872,7.7017,7.7066,7.7722,7.8155,7.8161,7.878,7.9187,7.92,7.8383,7.7989,7.8155,7.6521,7.5394,7.5082,7.3593,7.2383,7.1524,7.047,6.9689,6.9137,6.8279,6.7849,6.7849,6.6965,6.6653,0.0,0.0,0.0,0.0,0.0,0.0,0.0,0.0,0.0,0.0,0.0,6.6784,0.0,0.0,6.7604,6.8033,6.8835,6.9703,7.0587,7.183,7.2187,7.0859,7.2226,7.3281,7.3281,7.4492,7.5234,7.5234,7.5664,7.6094,7.6523,7.6953,7.7378,7.7804,7.8235,7.8672,7.9101,7.9101,7.9297,7.9687,7.9687,7.9683,7.9678,7.9717,7.9697,7.9695,7.9619,7.9587,7.961,7.9532,7.9259,7.887,7.8441,7.774,7.6972,7.6556,7.6418,7.6349,7.5957,7.5813,7.5813,7.5813,7.5813,7.5813,7.5813,7.5813,7.5813,7.5813,7.5813,7.5813,7.5813,7.5813,7.5813,7.5813,7.5807,7.5801,7.5813,7.6152,7.645,7.645,7.6794,7.7051,7.6995,7.7379,7.755,7.7059,7.7348,7.7659,7.7733,7.8515,7.9062,7.9061,7.9448,7.9703,7.9699,7.8918,7.8406,7.839,7.7179,7.6242,7.5813,7.4993,7.3939,7.269,7.1792,7.0933,7.0035,6.9176,6.8513,6.8083,6.7654,6.7219,0.0,0.0,0.0,0.0,0.0,0.0,0.0,0.0,6.851,6.7103,6.6943,6.7054,6.7034,6.776,6.8424,6.8591,6.9937,7.1272,7.2115,7.3158,7.3555,7.2851,7.3984,7.4844,7.4844,7.5625,7.6133,7.6133,7.6953,7.746,7.7415,7.8274,7.8718,7.8662,7.9343,7.9762,7.9961,7.9961,8.0039,8.0195,8.0195,8.0195,8.0195,8.0211,8.0221,8.0195,8.0133,8.0085,8.0078,8.0039,7.9922,7.9766,7.9766,7.8831,7.7467,7.7482,7.7385,7.7277,7.7316,7.7206,7.7095,7.7095,7.7095,7.7095,7.7101,7.7101,7.7095,7.7101,7.7101,7.7095,7.7101,7.7101,7.7101,7.7101,7.7089,7.7121,7.7095,7.7082,7.7067,7.7114,7.7238,7.7316,7.7238,7.8019,7.8317,7.7401,7.8005,7.8578,7.8633,7.9409,7.9954,7.9961,8.0114,8.0137,7.9951,7.9326,7.8741,7.8429,7.7726,7.6945,7.6086,7.5891,7.5071,7.3549,7.269,7.1831,7.0933,7.0074,6.9294,6.8591,6.8435,6.781,7.3504,7.2146,7.0117,6.9414,6.8164,6.707,0.0,0.0,6.7027,6.6836,6.7422,6.7969,6.7941,6.8669,6.9489,7.0275,7.1217,7.2154,7.3013,7.4564,7.5586,7.5469,7.5625,7.5742,7.5742,7.6523,7.7031,7.7031,7.7851,7.8344,7.828,7.9099,7.9565,7.9567,7.965,8.008,8.0859,8.0859,8.125,8.1992,8.1992,8.1992,8.1992,8.2015,8.2026,8.1987,8.1921,8.1882,8.1831,8.1792,8.1364,8.0662,8.0662,8.0078,7.922,7.9294,7.8798,7.8145,7.8174,7.7675,7.7012,7.7075,7.7114,7.7121,7.7095,7.7089,7.7082,7.7095,7.7089,7.7082,7.7095,7.7101,7.7101,7.7101,7.7089,7.7121,7.7095,7.7036,7.7012,7.7106,7.7684,7.8174,7.8155,7.8867,7.9205,7.8362,7.8977,7.9531,7.9565,8.0332,8.0831,8.085,8.1555,8.1714,8.0927,8.0771,8.0068,7.8507,7.8311,7.7843,7.6984,7.6203,7.5345,7.4369,7.3588,7.2729,7.1831,7.0972,7.0504,7.0387,6.9606,6.8351,7.0703,7.0351,0.0,0.0,6.8474,6.816,6.7689,6.8353,6.8786,6.7773,6.8242,6.8867,6.8854,6.955,7.0444,0.0,7.2188,7.3252,7.4601,7.5429,7.6094,7.6601,7.664,7.664,7.664,7.7422,7.7969,7.7969,7.8723,7.9197,7.9143,7.9988,8.0474,8.0477,8.0933,8.1402,8.1765,8.1751,8.1953,8.2304,8.2304,8.2304,8.2304,8.2289,8.2265,8.2221,8.2221,8.2143,8.2104,8.2104,8.187,8.1558,8.1558,8.1325,8.0896,7.9957,7.9383,7.9071,7.9062,7.8837,7.8525,7.8534,7.8589,7.8519,7.7965,7.7824,7.7752,7.7245,7.7089,7.7089,7.7101,7.7101,7.7101,7.7089,7.7075,7.7176,7.7692,7.7801,7.7948,7.8511,7.887,7.9104,7.9104,7.9828,8.0314,7.9942,8.0227,8.0469,8.0449,8.1212,8.1769,8.1757,8.2061,8.2154,8.1786,8.1278,8.0693,7.9951,7.8975,7.8233,7.7882,7.7023,7.6164,7.5266,7.4447,7.3588,7.2768,7.187,7.1206,7.0699,7.0348,6.9483,6.9255,0.0,0.0,6.8392,6.858,6.8893,6.8238,6.9252,6.9994,6.8711,6.914,6.9765,6.9755,7.0656,7.1632,7.2248,7.3299,7.4478,7.5703,7.6094,7.6484,7.7109,7.7422,7.7578,7.7578,7.8125,7.8592,7.8813,7.9587,8.0048,8.002,8.0875,8.1353,8.1364,8.1975,8.231,8.2318,8.2292,8.2422,8.2656,8.2656,8.2773,8.3008,8.3006,8.2818,8.2552,8.2557,8.2377,8.2104,8.2104,8.2104,8.2104,8.2104,8.2104,8.1948,8.0725,8.0152,7.9918,7.9939,7.9793,7.9598,7.9598,7.9617,7.9548,7.8876,7.8698,7.8604,7.7972,7.7785,7.7791,7.7804,7.7804,7.7837,7.7816,7.777,7.7909,7.8534,7.869,7.8893,7.9572,7.9906,8.0068,8.0041,8.0792,8.1355,8.1366,8.1367,8.1365,8.1368,8.1903,8.232,8.2304,8.23,8.2289,8.231,8.1714,8.1278,8.1005,7.9834,7.8897,7.8429,7.7804,7.6945,7.5813,7.5188,7.433,7.3315,7.2651,7.1909,7.105,7.105,7.0582,7.1523,7.0622,7.0263,6.8547,6.8101,6.8122,6.8122,6.8786,6.9425,6.9369,7.0061,7.0653,7.0644,7.2062,7.3242,7.3242,7.4687,7.5859,7.5898,7.664,7.7187,7.7187,7.7969,7.8476,0.0,7.8476,7.8813,7.9595,8.0475,8.0918,8.0881,8.1769,8.2246,8.2272,8.2272,8.2296,8.2304,8.2304,8.2734,8.3554,8.3554,8.3984,8.4804,8.4741,8.4245,8.3458,8.341,8.2883,8.2104,8.2104,8.2104,8.2104,8.2104,8.2104,8.2104,8.2026,8.1481,8.0779,8.0779,8.0195,7.9493,7.9567,7.9617,7.9588,7.9569,7.9559,7.9549,7.9596,7.9557,7.9548,7.9593,7.9639,7.9633,7.9619,7.9611,7.965,7.965,7.965,7.9658,7.9672,8.0381,8.0978,8.0961,8.1691,8.225,8.2276,8.226,8.2254,8.2254,8.2293,8.231,8.2297,8.2304,8.2297,8.2292,8.2271,8.1903,8.1044,8.0966,8.0146,7.8468,7.835,7.7531,7.5813,7.5774,7.4954,7.3315,7.3275,7.2807,7.1948,7.1948,7.148,7.0312,6.9841,6.9557,6.8375,6.8518,6.8947,6.8961,6.9659,7.0249,7.0273,7.1402,7.2596,7.3124,7.372,7.4531,7.5625,7.5859,7.6094,7.668,7.7031,7.7422,7.8008,7.832,0.0,0.0,0.0,0.0,8.0528,8.1389,8.1851,8.1812,8.2131,8.2553,8.314,8.314,8.3428,8.4023,8.4023,8.4179,8.4453,8.4453,8.4609,8.4883,8.4879,8.4687,8.4345,8.4338,8.413,8.378,8.3195,8.2961,8.2922,8.2338,8.2104,8.2104,8.2104,8.1909,8.1675,8.1675,8.1481,8.1208,8.1259,8.1282,8.1176,8.0602,8.0466,8.0328,7.9782,7.9643,7.9658,7.9643,7.9658,7.9711,7.9635,7.9682,7.9838,8.0376,8.0501,8.0665,8.1251,8.1617,8.1842,8.1872,8.2108,8.2292,8.2299,8.2293,8.2293,8.2293,8.2293,8.2305,8.2292,8.2304,8.2303,8.2295,8.231,8.2176,8.1864,8.1317,8.0498,7.9326,7.8702,7.7843,7.6672,7.6086,7.5501,7.4954,7.3822,7.3158,7.2846,7.226,7.1831,6.98,6.964,6.9674,6.8791,6.9215,6.9845,6.9859,7.0553,7.1147,7.1171,7.2287,7.3465,7.3973,7.4616,7.5525,7.6866,7.7151,7.7302,7.7577,7.8125,7.8515,7.8515,7.9023,7.9805,0.0,0.0,0.0,8.1445,8.1959,8.2436,8.2706,8.2755,8.3164,8.4023,8.4062,8.4336,8.4883,8.4883,8.5078,8.5351,8.5664,8.582,8.582,8.5781,8.5604,8.5281,8.5234,8.5027,8.4637,8.3741,8.339,8.3312,8.2455,8.2104,8.2143,8.2455,8.2377,8.2104,8.2104,8.2104,8.2104,8.2104,8.2077,8.1984,8.1477,8.1343,8.1216,8.0661,8.0523,8.054,8.0532,8.0548,8.0602,8.0532,8.0579,8.0751,8.1273,8.1368,8.157,8.2117,8.226,8.2292,8.2304,8.2562,8.2762,8.2762,8.2996,8.3074,8.2762,8.2996,8.3197,8.3179,8.2925,8.2773,8.2766,8.2467,8.2293,8.2293,8.1786,8.1083,8.0185,7.9326,7.8468,7.757,7.6711,7.6125,7.5813,7.472,7.39,7.3275,7.2729,7.23,7.0128,7.0054,7.0494,6.965,7.0113,7.0777,7.0777,7.1402,7.2002,7.1991,7.2731,7.3381,0.0,0.0,7.6165,7.7043,7.8416,7.9151,7.8428,7.9765,8.0234,0.0,0.0,0.0,0.0,0.0,0.0,8.2383,0.0,8.2718,8.3543,8.3648,8.4062,8.4922,8.4961,8.5,8.5039,8.5039,8.5469,8.6289,8.7109,8.75,8.75,8.7422,8.6945,8.6151,8.605,8.5533,8.4715,8.378,8.339,8.3312,8.2455,8.2104,8.2182,8.3039,8.2844,8.2182,8.2182,8.2143,8.2104,8.2104,8.2104,8.2104,8.2104,8.2104,8.2116,8.2101,8.2112,8.2123,8.2171,8.2187,8.2187,8.2187,8.2241,8.2287,8.2234,8.2241,8.2293,8.2293,8.2295,8.2304,8.2343,8.307,8.3621,8.366,8.4362,8.4558,8.366,8.4284,8.4792,8.4798,8.4124,8.3632,8.3589,8.2823,8.2332,8.2293,8.2293,8.1903,8.1044,8.0224,7.9326,7.8429,7.7609,7.675,7.5852,7.5813,7.4954,7.3354,7.3315,7.2846,7.0374,7.0523,7.067,7.0426,7.1011,7.1675,7.1675,7.1831,7.1997,7.1988,7.3202,7.4435,0.0,0.0,0.0,7.7837,7.7384,0.0,7.7438,7.8422,0.0,7.9375,0.0,8.125,8.1914,8.2773,0.0,0.0,8.3281,8.3632,8.4479,8.4568,8.4961,8.5859,8.5859,8.6172,8.6836,8.6836,8.6953,8.7187,8.7383,8.75,8.75,8.7461,8.7297,8.6971,8.6334,8.5923,8.5533,8.4013,8.339,8.3312,8.2455,8.2104,8.2143,8.2338,8.2689,8.3078,8.3078,8.265,8.2104,8.2104,8.2104,8.2116,8.2101,8.2101,8.2101,8.2112,8.2133,8.2182,8.2133,8.2162,8.2187,8.2187,8.2241,8.2293,8.2287,8.231,8.2285,8.2292,8.2303,8.2511,8.3174,8.3437,8.3816,8.448,8.526,8.5456,8.4597,8.4714,8.4882,8.4862,8.4645,8.4257,8.3667,8.3331,8.2957,8.2332,8.2293,8.1903,8.1044,8.0771,7.9951,7.8429,7.8194,7.7648,7.6789,7.6125,7.5266,7.4173,7.3588,7.2846,7.0679,7.0982,7.1285,7.1285,7.1636,7.1993,7.2002,7.2002,7.2014,7.1992,7.3083,0.0,7.463,7.5004,0.0,0.0,0.0,0.0,7.817,7.9337,8.0179,0.0,8.1054,0.0,8.2773,8.332,8.3906,0.0,8.4375,8.4531,8.5429,8.5469,8.5859,8.6758,8.6758,8.6992,8.75,8.75,8.75,8.75,8.75,8.75,8.75,8.75,8.7219,8.6744,0.0,8.5845,8.5299,8.3974,8.339,8.3312,8.2455,8.2104,8.2143,8.2533,8.2961,8.3429,8.3819,8.3663,8.3195,8.2805,8.265,8.2611,8.2206,8.2089,8.2101,8.2112,8.2123,8.2143,8.2143,8.2171,8.2226,8.2234,8.2287,8.2293,8.2293,8.2305,8.2402,8.2809,8.2889,8.3144,8.4033,8.4463,8.4854,8.5361,8.6131,8.651,8.6002,8.5963,8.6008,8.5986,8.5624,8.5188,8.4745,8.3945,8.3308,8.2879,8.2489,8.2098,8.1591,8.12,8.0341,7.9014,7.8585,7.796,7.7101,7.6594,7.593,7.5032,7.4212,7.3393,7.1056,7.1441,7.1987,7.1987,7.1987,7.1993,7.1975,7.1978,7.1988,7.1986,7.2684,7.3342,7.3437,7.4048,7.5072,7.6828,0.0,7.835,7.9393,8.0893,8.1663,8.1051,8.1875,8.2773,8.3515,8.3828,8.457,8.6094,8.5625,8.5586,8.6328,8.6367,8.6719,8.7461,8.75,8.75,8.75,8.75,8.75,8.75,8.75,8.75,8.75,8.75,8.7065,8.6288,0.0,0.0,8.4637,8.3741,8.3312,8.3156,8.2416,8.2104,8.2182,8.2961,8.3351,8.3663,8.4442,8.4832,8.4871,8.3897,8.3585,8.3429,8.265,8.2455,8.2428,8.2296,8.2268,8.224,8.221,8.2187,8.2234,8.2287,8.2293,8.2332,8.245,8.2567,8.2862,8.3632,8.3788,8.4059,8.4909,8.5654,8.6164,8.6281,8.6923,8.7407,8.7407,8.7414,8.742,8.742,8.6718,8.6229,8.6119,8.4714,8.3738,8.3504,8.284,8.2411,8.2293,8.1552,8.0771,7.9873,7.9014,7.8155,7.7257,7.7179,7.6633,7.5774,7.5032,7.4173,7.1636,7.1825,7.193,7.193,7.193,7.1937,7.1924,7.1975,0.0,0.0,7.2684,7.3498,7.4179,7.4413,7.506,7.6836,7.6677,7.6863,7.847,7.9519,8.0342,0.0,0.0,0.0,0.0,0.0,0.0,0.0,0.0,0.0,8.7265,8.7265,8.7344,8.75,8.75,8.75,8.75,8.75,8.75,8.75,8.75,8.75,8.75,8.75,8.7382,8.7145,0.0,0.0,8.4637,8.3741,8.2961,8.2299,8.2143,8.2104,8.2104,8.226,8.3234,8.4481,8.4637,8.5611,8.6507,8.4988,8.4481,8.4442,8.4286,8.4247,8.4091,8.3402,8.3181,8.302,8.2387,8.221,8.2234,8.2287,8.2293,8.2489,8.323,8.3955,8.4485,8.4645,8.4667,8.4966,8.5819,8.6084,8.6445,8.7148,8.7401,8.7486,8.7486,8.7486,8.7498,8.7498,8.7301,8.6893,8.6158,8.5807,8.5026,8.3582,8.3386,8.2996,8.2332,8.2137,8.1669,8.0771,7.9912,7.9053,7.8155,7.7453,7.6633,7.5813,7.5657,7.4759,7.1819,7.193,7.1884,7.1909,7.1909,7.1884,7.1897,0.0,0.0,7.1975,7.2709,7.3291,7.3197,7.3525,0.0,7.5535,7.5429,7.6092,7.875,7.9453,0.0,8.1523,8.2812,8.3789,0.0,0.0,0.0,0.0,0.0,0.0,8.75,8.75,8.75,8.75,8.75,8.75,8.75,8.75,8.75,8.75,8.75,8.75,8.75,8.75,8.7226,8.6718,0.0,0.0,8.4688,8.3777,8.3169,8.2766,8.2754,8.274,8.2779,8.318,8.4207,8.5311,8.5311,8.6168,8.7064,8.6246,8.5715,8.5299,8.4832,8.4715,8.4611,8.4256,8.4111,8.4054,8.3662,8.3561,8.3568,8.3582,8.3621,8.3777,8.4206,8.4593,8.5038,8.5506,8.5578,8.5849,8.6747,8.6873,8.7031,8.7422,8.7496,8.7486,8.7486,8.7498,8.75,8.75,8.7456,8.7245,8.6822,8.6353,8.5534,8.4245,8.3738,8.3152,8.2332,8.2293,8.1903,8.1005,8.0146,7.9287,7.839,7.7531,7.6906,7.6477,7.6008,7.5384,7.2008,7.1916,7.1909,7.1893,7.1885,7.1916,7.1903,7.1911,7.1914,7.2002,7.2534,7.2885,7.2378,7.2948,7.3771,0.0,7.4915,7.613,7.9258,7.9687,8.0312,0.0,8.3242,0.0,0.0,0.0,0.0,0.0,0.0,0.0,0.0,8.75,8.75,8.75,8.75,8.75,8.75,8.75,8.75,8.75,8.75,8.75,8.75,8.7499,8.7068,8.6365,0.0,0.0,0.0,8.4278,8.3855,8.3687,8.3636,8.3584,8.3647,8.4264,8.5082,8.5891,8.5891,8.6436,8.7176,8.7176,8.6777,8.6143,8.5442,8.526,8.5195,8.5097,8.5078,8.501,8.4856,8.4785,8.4792,8.4831,8.4987,8.5189,8.5161,8.5344,8.5664,8.6367,8.6484,8.6719,8.7383,8.75,8.75,8.75,8.75,8.75,8.75,8.75,8.75,8.75,8.7457,8.7405,8.7407,8.6783,8.5924,8.487,8.4167,8.3347,8.2332,8.2293,8.1981,8.1278,8.042,7.9561,7.8663,7.7804,7.7296,7.7062,7.6399,7.5969,7.2327,7.1901,7.1906,7.1897,7.1897,7.1893,7.1893,0.0,7.1914,7.2002,7.2065,7.2339,7.3041,7.3822,7.4686,7.554,7.6271,7.7458,7.9412,7.9648,8.0273,8.2109,0.0,0.0,8.4883,0.0,0.0,0.0,0.0,0.0,0.0,8.75,8.75,8.75,8.75,8.75,8.75,8.75,8.75,8.75,8.75,8.75,8.75,8.744,8.7375,8.7264,0.0,0.0,0.0,8.5886,8.54,8.4678,8.4584,8.452,8.4468,8.4513,8.5065,8.5805,8.5805,8.6389,8.7089,8.7089,8.7082,8.7074,8.6996,8.6987,8.6832,8.6089,8.5877,8.5712,8.4997,8.4778,8.4831,8.487,8.5495,8.6098,8.6092,8.6718,8.7265,8.7344,8.7383,8.7422,8.75,8.75,8.75,8.75,8.75,8.75,8.75,8.75,8.75,8.75,8.7422,8.7416,8.7414,8.7329,8.6588,8.4909,8.4714,8.3972,8.2371,8.2293,8.2254,8.2176,8.1317,8.0459,7.96,7.8702,7.7882,7.7101,7.7023,7.6555,7.208,7.1885,7.1897,7.1838,7.2257,7.2548,7.201,7.2303,7.2692,7.2778,7.2768,7.2885,7.3236,7.3966,7.4779,7.5663,7.6076,7.7229,8.0025,7.9984,8.0312,8.2109,8.3828,0.0,0.0,0.0,0.0,0.0,0.0,0.0,0.0,8.75,8.75,8.75,8.75,8.75,8.75,8.75,8.75,8.75,8.7451,8.744,8.744,8.7397,8.7387,8.7407,0.0,0.0,0.0,8.6324,8.5886,8.5556,8.5468,8.5414,8.5453,8.5849,8.6203,8.651,8.651,8.6744,8.7055,8.7055,8.7089,8.7152,8.7191,8.7206,8.7156,8.688,8.6785,8.6726,8.6449,8.6347,8.6353,8.6392,8.6694,8.6987,8.6992,8.7265,8.75,8.75,8.75,8.75,8.75,8.75,8.75,8.75,8.75,8.75,8.75,8.75,8.75,8.75,8.7422,8.7381,8.7397,8.742,8.69,8.5651,8.5104,8.4284,8.3074,8.2567,8.2293,8.2293,8.1435,8.081,8.0498,7.9092,7.8233,7.7882,7.7335,7.6906,7.2353,7.208,7.1838,7.1827,7.25,7.2957,7.2092,7.2577,7.3155,7.293,7.2879,7.2879,7.2879,7.3758,7.4718,7.5326,7.5833,7.717,8.0104,8.0025,8.0289,8.2019,0.0,0.0,0.0,0.0,0.0,0.0,0.0,0.0,0.0,8.75,8.75,8.75,8.75,8.75,8.75,8.7226,8.7226,8.7456,8.6923,8.6783,8.7017,8.7001,8.704,0.0,0.0,0.0,0.0,8.6722,8.6488,8.648,8.635,8.6299,8.6377,8.6878,8.7055,8.7033,8.7033,8.7033,8.7033,8.7033,8.7082,8.7128,8.722,8.722,8.7248,8.7331,8.7312,8.733,8.7401,8.7407,8.7414,8.7431,8.7453,8.75,8.75,8.75,8.75,8.75,8.75,8.75,8.75,8.75,8.75,8.75,8.75,8.75,8.75,8.75,8.75,8.75,8.7461,8.7421,8.7411,8.7387,8.7017,8.6158,8.5299,8.4401,8.3543,8.2723,8.2293,8.2293,8.1708,8.1278,8.1005,7.9522,7.8663,7.839,7.7492,7.6945,7.3403,7.2517,7.1817,7.1817,7.25,7.2957,7.2092,7.2577,7.296,7.2193,7.1976,7.1924,7.1924,7.3314,7.4507,7.4507,7.5902,7.7595,7.9354,7.9558,8.0153,0.0,0.0,0.0,0.0,0.0,0.0,0.0,0.0,0.0,0.0,0.0,8.75,8.75,8.75,8.75,8.75,8.664,8.6596,8.7368,8.5729,8.5338,8.6119,8.6119,0.0,0.0,0.0,0.0,0.0,8.7407,8.7407,8.7362,8.7321,8.7302,8.7292,8.7234,8.7209,8.7209,8.7209,8.7209,8.7209,8.7209,8.7209,8.7209,8.7286,8.7309,8.732,8.739,8.7386,8.7407,8.7407,8.7407,8.742,8.7498,8.75,8.75,8.75,8.75,8.75,8.75,8.75,8.75,8.75,8.75,8.75,8.75,8.75,8.75,8.75,8.75,8.75,8.75,8.75,8.746,8.7411,8.7387,8.7017,8.6158,8.5299,8.4401,8.3543,8.2723,8.2293,8.2293,8.2293,8.1864,8.1005,8.0107,7.9248,7.839,7.7492,7.6633,7.2259,7.2084,7.187,7.187,7.2525,7.2967,7.2109,7.2567,7.3119,7.2873,7.2346,7.2096,7.2682,7.3679,7.4831,7.6001,7.7139,7.8675,8.0922,0.0,0.0,8.1987,0.0,0.0,0.0,0.0,0.0,0.0,0.0,0.0,0.0,0.0,8.75,8.75,8.6914,8.6601,8.6601,8.6357,8.6332,8.6588,8.6588,8.6744,8.6978,8.6978,0.0,0.0,0.0,0.0,0.0,8.7407,8.7407,8.7401,8.7321,8.7302,8.7292,8.7234,8.7209,8.7209,8.7209,8.7209,8.7209,8.7209,8.7234,8.7281,8.7281,8.732,8.7309,8.739,8.7386,8.7407,8.7407,8.7436,8.7457,8.75,8.75,8.75,8.75,8.75,8.75,8.75,8.75,8.75,8.75,8.75,8.75,8.75,8.75,8.75,8.75,8.75,8.75,8.75,8.75,8.7461,8.7421,8.7397,8.729,8.7017,8.5612,8.4675,8.4401,8.3035,8.2293,8.2293,8.2293,8.2176,8.1903,8.1005,7.9834,7.839,7.7492,7.6945,7.1211,7.1441,7.1395,7.1395,7.2304,7.2962,7.2103,7.2583,7.3126,7.2767,7.2283,7.2149,7.3055,7.3846,7.4839,7.6281,7.7233,7.8533,0.0,0.0,0.0,0.0,0.0,0.0,0.0,0.0,0.0,0.0,0.0,0.0,0.0,0.0,8.6992,8.6992,8.6484,8.6054,8.5703,8.5717,8.5839,8.6158,8.6353,8.6588,8.69,0.0,0.0,0.0,0.0,0.0,0.0,8.7407,8.7407,8.7401,8.7338,8.733,8.7321,8.7292,8.7281,8.7281,8.7281,8.7281,8.7281,8.7281,8.7302,8.733,8.733,8.736,8.736,8.7375,8.7431,8.744,8.744,8.7456,8.75,8.75,8.75,8.75,8.75,8.75,8.75,8.75,8.75,8.75,8.75,8.75,8.75,8.75,8.75,8.75,8.75,8.75,8.75,8.75,8.75,8.7461,8.7422,8.7408,8.7381,8.7407,8.5768,8.4792,8.4792,8.3191,8.2293,8.2293,8.2293,8.2293,8.2293,8.1083,7.9795,7.839,7.7492,7.7101,0.0,7.0507,7.0541,7.058,7.1835,7.2837,7.2056,7.2528,0.0,7.2088,7.1906,7.217,7.3027,7.3854,7.47,0.0,0.0,0.0,0.0,7.9725,0.0,0.0,0.0,0.0,0.0,0.0,0.0,0.0,0.0,0.0,0.0,0.0,0.0,8.6094,8.6093,8.5703,8.4921,8.4971,8.5371,8.608,8.5338,8.5416,8.6197,0.0,0.0,0.0,0.0,0.0,0.0,8.729,8.7329,8.7329,8.7368,8.7407,8.7407,8.7407,8.7407,8.7407,8.7407,8.7407,8.7407,8.7407,8.7407,8.7407,8.7407,8.7407,8.7381,8.7418,8.7461,8.75,8.75,8.75,8.75,8.75,8.75,8.75,8.75,8.75,8.75,8.75,8.75,8.75,8.75,8.75,8.75,8.75,8.75,8.75,8.75,8.75,8.75,8.75,8.75,8.75,8.75,8.7456,8.7401,8.7407,8.5807,8.487,8.4792,8.3269,8.2371,8.2293,8.2293,8.2293,8.2293,8.0615,7.9326,7.8468,7.7609,7.7179,6.8669,0.0,6.9855,7.0518,7.0967,7.1338,0.0,7.2049,7.214,7.1945,7.1848,0.0,0.0,0.0,0.0,0.0,0.0,0.0,0.0,0.0,0.0,0.0,0.0,0.0,0.0,0.0,0.0,0.0,0.0,0.0,0.0,0.0,0.0,8.5234,8.5221,8.5122,8.4888,8.5501,8.5917,8.6119,8.6588,8.69,8.7095,0.0,0.0,0.0,0.0,0.0,8.5456,8.6119,8.6392,8.6471,8.7134,8.7407,8.7407,8.7407,8.7407,8.7407,8.7407,8.7407,8.7407,8.7407,8.7407,8.7407,8.7407,8.7407,8.7414,8.7408,8.7459,8.75,8.75,8.75,8.75,8.75,8.75,8.75,8.75,8.75,8.75,8.75,8.75,8.75,8.75,8.75,8.75,8.75,8.75,8.75,8.75,8.75,8.75,8.75,8.75,8.75,8.75,8.7456,8.7401,8.7407,8.6392,8.5495,8.4831,8.3777,8.2918,8.2293,8.2293,8.2293,8.2293,8.12,8.0263,7.9366,7.8507,7.7726,6.7592,6.8723,7.0089,7.0544,7.123,7.1915,7.2383,7.217,7.1838,7.1838,7.1827,7.2206,0.0,0.0,0.0,0.0,0.0,0.0,0.0,0.0,0.0,0.0,0.0,0.0,0.0,0.0,0.0,0.0,0.0,0.0,0.0,0.0,0.0,0.0,8.5104,8.4726,8.4317,8.5488,8.6119,8.6119,8.6978,8.7407,8.7407,0.0,0.0,0.0,0.0,0.0,8.6041,8.651,8.6705,8.6744,8.7212,8.7407,8.7407,8.7407,8.7407,8.7407,8.7407,8.7407,8.7407,8.7407,8.7407,8.7407,8.7407,8.7407,8.7414,8.7405,8.7457,8.75,8.75,8.75,8.75,8.75,8.75,8.75,8.75,8.75,8.75,8.75,8.75,8.75,8.75,8.75,8.75,8.75,8.75,8.75,8.75,8.75,8.75,8.75,8.75,8.75,8.75,8.7459,8.7408,8.7407,8.6588,8.5729,8.4831,8.3972,8.3113,8.2332,8.2293,8.2293,8.2293,8.1435,8.0771,8.0263,7.8975,7.8155,6.7351,6.8912,7.0622,7.045,7.1711,7.2979,7.2979,7.2384,7.1856,7.1973,7.2011,7.2507,0.0,7.4755,0.0,0.0,0.0,0.0,0.0,0.0,0.0,0.0,0.0,0.0,0.0,0.0,0.0,0.0,0.0,0.0,0.0,0.0,0.0,0.0,8.538,8.4736,8.4004,8.5527,8.6314,8.6314,8.7056,8.7407,8.7407,8.7407,0.0,0.0,0.0,0.0,8.7017,8.7134,8.7212,8.7212,8.7368,8.7407,8.7407,8.7407,8.7407,8.7407,8.7407,8.7407,8.7407,8.7407,8.7407,8.7407,8.7407,8.7407,8.7414,8.7401,8.7456,8.75,8.75,8.75,8.75,8.75,8.75,8.75,8.75,8.75,8.75,8.75,8.75,8.75,8.75,8.75,8.75,8.75,8.75,8.75,8.75,8.75,8.75,8.75,8.75,8.75,8.75,8.7461,8.7418,8.7414,8.6588,8.5651,8.4636,8.3777,8.2996,8.2293,8.2293,8.2293,8.2293,8.1552,8.1122,8.0966,7.9366,7.8546,6.8765,6.9731,7.0433,6.9683,7.0746,7.2022,7.2022,7.1895,7.2011,7.2752,7.2908,7.3414,7.5156,7.6054,7.7131,0.0,0.0,0.0,0.0,0.0,0.0,0.0,0.0,0.0,0.0,0.0,0.0,0.0,0.0,0.0,0.0,0.0,0.0,0.0,0.0,8.5846,8.5722,8.6705,8.7212,8.7212,8.7329,8.7407,8.7407,8.7407,8.7017,0.0,0.0,8.5885,8.526,8.6002,8.6314,8.6353,8.7095,8.7407,8.7407,8.7407,8.7407,8.7407,8.7407,8.7407,8.7407,8.7407,8.7407,8.7407,8.7407,8.7407,8.7407,8.7414,8.7408,8.7422,8.75,8.75,8.75,8.75,8.75,8.75,8.75,8.75,8.75,8.75,8.75,8.75,8.75,8.75,8.75,8.75,8.75,8.75,8.75,8.75,8.75,8.75,8.75,8.75,8.75,8.75,8.7498,8.7475,8.6615,8.5395,8.3777,8.2918,8.245,8.2293,8.2293,8.2293,8.2293,8.2176,8.1708,8.0966,7.9951,7.9092,6.8358,6.9587,7.0513,7.0084,7.1282,7.2557,7.2557,7.2557,7.2674,7.3041,7.3457,7.4184,7.5404,0.0,0.0,0.0,0.0,0.0,0.0,0.0,0.0,0.0,0.0,0.0,0.0,0.0,0.0,0.0,0.0,0.0,0.0,0.0,0.0,0.0,0.0,8.6314,8.6783,8.7212,8.7407,8.7407,8.7407,8.7407,8.7407,8.7407,8.7173,8.6783,0.0,8.6588,8.6236,8.6627,8.6783,8.6822,8.7251,8.7407,8.7407,8.7407,8.7407,8.7407,8.7407,8.7407,8.7407,8.7407,8.7407,8.7407,8.7407,8.7407,8.7407,8.7387,8.7414,8.7461,8.75,8.75,8.75,8.75,8.75,8.75,8.75,8.75,8.75,8.75,8.75,8.75,8.75,8.75,8.75,8.75,8.75,8.75,8.75,8.75,8.75,8.75,8.75,8.75,8.75,8.75,8.7264,8.6783,8.5947,8.4843,8.3543,8.2723,8.2293,8.2293,8.2293,8.2293,8.2293,8.2293,8.2098,8.1669,8.081,7.9951,6.83,6.9577,7.0648,7.0842,7.2039,7.3181,7.3212,7.3191,7.3286,7.3648,0.0,0.0,0.0,0.0,0.0,0.0,0.0,0.0,0.0,0.0,0.0,0.0,0.0,0.0,0.0,0.0,0.0,0.0,0.0,0.0,0.0,0.0,0.0,0.0,0.0,0.0,8.7407,8.7407,8.7407,8.7407,8.7407,8.7407,8.7407,8.7407,8.7407,8.7407,8.7407,8.7407,8.7407,8.7407,8.7407,8.7407,8.7407,8.7407,8.7407,8.7407,8.7407,8.7407,8.7407,8.7407,8.7407,8.7407,8.7407,8.7407,8.7407,8.7407,8.7414,8.7397,8.7451,8.7498,8.75,8.75,8.75,8.75,8.75,8.75,8.75,8.75,8.75,8.75,8.75,8.75,8.75,8.75,8.75,8.75,8.75,8.75,8.75,8.75,8.75,8.75,8.75,8.75,8.75,8.75,8.7108,8.6167,8.5361,8.448,8.3543,8.2723,8.2293,8.2293,8.2293,8.2293,8.2293,8.2293,8.2293,8.2293,8.1396,8.0537,6.9957,7.0492,7.0804,7.1583,7.2456,7.3103,7.3172,7.3154,0.0,7.5248,0.0,0.0,0.0,0.0,0.0,0.0,0.0,0.0,0.0,0.0,0.0,0.0,0.0,0.0,0.0,0.0,0.0,0.0,0.0,0.0,0.0,0.0,0.0,0.0,0.0,0.0,8.7407,8.7407,8.7407,8.7407,8.7407,8.7407,8.7407,8.7407,8.7407,8.7407,8.7407,8.7407,8.7407,8.7407,8.7407,8.7407,8.7407,8.7407,8.7407,8.7407,8.7407,8.7407,8.7407,8.7407,8.7407,8.7407,8.7407,8.7407,8.7407,8.7407,8.7407,8.7407,8.7453,8.7504,8.7498,8.75,8.75,8.75,8.75,8.75,8.75,8.75,8.75,8.75,8.75,8.75,8.75,8.75,8.75,8.75,8.75,8.75,8.75,8.75,8.75,8.75,8.75,8.75,8.75,8.75,8.7148,8.625,8.537,8.4519,8.3621,8.2762,8.2293,8.2293,8.2293,8.2293,8.2293,8.2293,8.2293,8.2293,8.1396,8.0537,6.9924,7.0169,7.0258,7.2172,7.286,7.312,0.0,7.4038,7.5094,7.6232,7.6556,0.0,0.0,0.0,0.0,0.0,0.0,0.0,0.0,0.0,0.0,0.0,0.0,0.0,0.0,0.0,0.0,0.0,0.0,0.0,0.0,0.0,0.0,0.0,0.0,0.0,0.0,8.7407,8.7407,8.7407,8.7407,8.7407,8.7407,8.7407,8.7407,8.7407,8.7407,8.7407,8.7407,8.7407,8.7407,8.7407,8.7407,8.7407,8.7407,8.7407,8.7407,8.7407,8.7407,8.7407,8.7407,8.7407,8.7407,8.7407,8.7407,8.7381,8.7397,8.7397,8.7444,8.7495,8.75,8.75,8.75,8.75,8.75,8.75,8.75,8.75,8.75,8.75,8.75,8.75,8.75,8.75,8.75,8.75,8.75,8.75,8.75,8.75,8.75,8.75,8.75,8.75,8.75,8.75,8.7344,8.7031,8.5661,8.4521,8.3648,8.2774,8.2293,8.2293,8.2293,8.2293,8.2293,8.2293,8.2293,8.2293,8.1942,8.1044,7.029,7.0719,7.0925,7.2685,7.3496,7.3897,7.4077,7.4961,7.6001,7.6843,7.7238,0.0,0.0,0.0,0.0,0.0,0.0,0.0,0.0,0.0,0.0,0.0,0.0,0.0,0.0,0.0,0.0,0.0,0.0,0.0,0.0,0.0,0.0,0.0,0.0,0.0,0.0,8.7407,8.7407,8.7407,8.7407,8.7407,8.7407,8.7407,8.7407,8.7407,8.7407,8.7407,8.7407,8.7407,8.7407,8.7407,8.7407,8.7407,8.7407,8.7407,8.7407,8.7407,8.7407,8.7407,8.7407,8.7407,8.7407,8.7407,8.7407,8.7381,8.7401,8.7447,8.7457,8.75,8.75,8.75,8.75,8.75,8.75,8.75,8.75,8.75,8.75,8.75,8.75,8.75,8.75,8.75,8.75,8.75,8.75,8.75,8.75,8.75,8.75,8.75,8.75,8.75,8.75,8.75,8.75,8.75,8.6133,8.4921,8.4057,8.3187,8.2584,8.2293,8.2293,8.2293,8.2293,8.2305,8.2305,8.2293,8.2305,8.1368,7.1355,7.2457,7.3094,7.3211,7.441,7.5634,7.5791,7.5767,7.603,7.7015,7.7823,7.8867,8.0586,0.0,0.0,0.0,0.0,0.0,0.0,0.0,0.0,0.0,0.0,0.0,0.0,0.0,0.0,0.0,0.0,0.0,0.0,0.0,0.0,0.0,0.0,0.0,0.0,8.7407,8.7407,8.7407,8.7407,8.7407,8.7407,8.7407,8.7407,8.7407,8.7407,8.7407,8.7407,8.7407,8.7407,8.7407,8.7407,8.7407,8.7407,8.7407,8.7407,8.7407,8.7407,8.7407,8.7407,8.7407,8.7407,8.7407,8.7407,8.7407,8.7414,8.7483,8.7496,8.75,8.75,8.75,8.75,8.75,8.75,8.75,8.75,8.75,8.75,8.75,8.75,8.75,8.75,8.75,8.75,8.75,8.75,8.75,8.75,8.75,8.75,8.75,8.75,8.75,8.75,8.75,8.75,8.75,8.6679,8.582,8.4922,8.4062,8.3198,8.2332,8.2293,8.2293,8.2293,8.2285,8.2281,8.2293,8.2285,8.1383,7.2351,7.2429,0.0,7.4457,7.5314,7.6067,0.0,7.754,0.0,0.0,8.0076,8.1031,0.0,0.0,0.0,0.0,0.0,0.0,0.0,0.0,0.0,0.0,0.0,0.0,0.0,0.0,0.0,0.0,0.0,0.0,0.0,0.0,0.0,0.0,0.0,0.0,8.7407,8.7407,8.7407,8.7407,8.7407,8.7407,8.7407,8.7407,8.7407,8.7407,8.7407,8.7407,8.7407,8.7407,8.7407,8.7407,8.7407,8.7407,8.7407,8.7407,8.7407,8.7407,8.7407,8.7407,8.7407,8.7407,8.7407,8.7407,8.7407,8.7387,8.7397,8.7426,8.7451,8.75,8.75,8.75,8.75,8.75,8.75,8.75,8.75,8.75,8.75,8.75,8.75,8.75,8.75,8.75,8.75,8.75,8.75,8.75,8.75,8.75,8.75,8.75,8.75,8.75,8.75,8.75,8.75,8.75,8.7265,8.6445,8.4961,8.4062,8.3203,8.2339,8.2292,8.2315,8.2293,8.2295,8.2303,8.23,8.2295,8.1695,7.2812,7.3237,0.0,7.5338,7.6031,7.6752,7.8487,0.0,0.0,0.0,0.0,0.0,0.0,0.0,0.0,0.0,0.0,0.0,0.0,0.0,0.0,0.0,0.0,0.0,0.0,0.0,0.0,0.0,0.0,0.0,0.0,0.0,0.0,0.0,0.0,0.0,8.7407,8.7407,8.7407,8.7407,8.7407,8.7407,8.7407,8.7407,8.7407,8.7407,8.7407,8.7407,8.7407,8.7407,8.7407,8.7407,8.7407,8.7407,8.7407,8.7407,8.7407,8.7407,8.7407,8.7407,8.7407,8.7407,8.7407,8.7407,8.7407,8.7392,8.7408,8.7444,8.7456,8.75,8.75,8.75,8.75,8.75,8.75,8.75,8.75,8.75,8.75,8.75,8.75,8.75,8.75,8.75,8.75,8.75,8.75,8.75,8.75,8.75,8.7447,8.7364,8.7326,8.7351,8.7343,8.7344,8.7383,8.75,8.75,8.6719,8.4961,8.4414,8.3554,8.2304,8.2303,8.2297,8.2285,8.2303,8.2304,8.2297,8.2304,8.1826,7.309,7.4472,7.5737,7.597,7.6682,0.0,7.9431,7.9885,0.0,0.0,0.0,0.0,0.0,0.0,0.0,0.0,0.0,0.0,0.0,0.0,0.0,0.0,0.0,0.0,0.0,0.0,0.0,0.0,0.0,0.0,0.0,0.0,0.0,0.0,0.0,0.0,8.7407,8.7407,8.7407,0.0,8.7407,8.7407,8.7407,8.7407,8.7407,8.7407,8.7407,8.7407,8.7407,8.7407,8.7407,8.7407,8.7407,8.7407,8.7407,8.7407,8.7407,8.7407,8.7407,8.7407,8.7407,8.7407,8.7407,8.7407,8.7407,8.7392,8.7411,8.7461,8.75,8.75,8.75,8.75,8.75,8.75,8.75,8.75,8.75,8.75,8.75,8.75,8.75,8.75,8.75,8.75,8.75,8.75,8.75,8.75,8.75,8.7496,8.7359,8.7133,8.7089,8.7061,8.7084,8.7065,8.7184,8.7418,8.7382,8.6601,8.4922,8.4883,8.4062,8.2344,8.2304,8.2304,8.2304,8.2304,8.2297,8.2293,8.2289,8.1874,7.4373,7.4878,0.0,7.6648,7.8007,7.9434,8.0488,8.1245,8.1797,0.0,0.0,0.0,0.0,0.0,0.0,0.0,0.0,0.0,0.0,0.0,0.0,0.0,0.0,0.0,0.0,0.0,0.0,0.0,0.0,0.0,0.0,0.0,0.0,0.0,0.0,8.7407,8.7407,8.7407,8.7407,0.0,8.7407,8.7407,8.7407,8.7407,8.7407,8.7407,8.7407,8.7407,8.7407,8.7407,8.7407,8.7407,8.7407,8.7407,8.7407,8.7407,8.7407,8.7407,8.7407,8.7407,8.7407,8.7407,8.7407,8.7407,8.7407,8.7392,8.7411,8.7461,8.75,8.75,8.75,8.75,8.75,8.75,8.75,8.75,8.75,8.75,8.75,8.75,8.75,8.75,8.75,8.75,8.75,8.75,8.75,8.75,8.75,8.7332,8.7146,8.7121,8.6973,8.6871,8.6842,8.6882,8.691,8.6949,8.6455,8.5703,8.4726,8.4804,8.4062,8.2344,8.2304,8.2304,8.2304,8.2301,8.2285,8.2293,8.2289,8.2187,7.4612,7.5353,0.0,7.7521,0.0,7.9922,8.0781,8.1679,8.2304,0.0,0.0,0.0,0.0,0.0,0.0,0.0,0.0,0.0,0.0,0.0,0.0,0.0,0.0,0.0,0.0,0.0,0.0,0.0,0.0,0.0,0.0,0.0,0.0,0.0,8.7407,8.7407,8.7407,8.7407,8.7407,8.7407,8.7407,8.7407,8.7407,8.7407,8.7407,8.7407,8.7407,8.7407,8.7407,8.7407,8.7407,8.7407,8.7407,8.7407,8.7407,8.7407,8.7407,8.7407,8.7407,8.7407,8.7407,8.7407,8.7407,8.7407,8.7407,8.742,8.7401,8.7499,8.75,8.75,8.75,8.75,8.75,8.75,8.75,8.75,8.75,8.75,8.75,8.75,8.75,8.75,8.75,8.75,8.7451,8.7376,8.7339,8.7337,8.7221,8.7115,8.697,8.6852,8.6709,8.6632,8.6632,8.6644,8.6698,8.6776,8.6104,8.5348,8.4525,8.4252,8.3535,8.2304,8.2304,8.2304,8.2304,8.2221,8.2218,8.2293,8.2207,8.2223,7.4466,7.5716,7.7296,7.8436,7.9219,0.0,8.0976,8.1797,8.2304,0.0,0.0,0.0,0.0,0.0,0.0,0.0,0.0,0.0,0.0,0.0,0.0,0.0,0.0,0.0,0.0,0.0,0.0,0.0,0.0,0.0,0.0,0.0,8.7407,8.7407,8.7407,8.7407,8.7407,8.7407,8.7407,8.7407,8.7407,8.7407,8.7407,8.7407,8.7407,8.7407,8.7407,8.7407,8.7407,8.7407,8.7407,8.7407,8.7407,8.7407,8.7407,8.7407,8.7407,8.7407,8.7407,8.7407,8.7407,8.7407,8.7407,8.7407,8.7414,8.7414,8.742,8.7498,8.75,8.75,8.75,8.75,8.75,8.75,8.75,8.75,8.75,8.75,8.75,8.75,8.75,8.75,8.75,8.7453,8.739,8.7226,8.719,8.7125,8.6943,8.6884,8.6777,8.6569,8.6473,8.6434,8.644,8.644,8.6478,8.6671,8.5861,8.5023,8.4358,8.3477,8.2725,8.2232,8.2262,8.2265,8.2217,8.2062,8.2065,8.2211,8.202,8.2054,7.4506,7.5677,7.7498,0.0,7.9609,8.0117,0.0,0.0,8.2304,0.0,0.0,0.0,0.0,0.0,0.0,0.0,0.0,0.0,0.0,0.0,0.0,0.0,0.0,0.0,0.0,0.0,0.0,0.0,0.0,0.0,0.0,8.7407,8.7407,8.7407,8.7407,8.7407,8.7407,8.7407,8.7407,8.7407,8.7407,8.7407,8.7407,8.7407,8.7407,8.7407,8.7407,8.7407,8.7407,8.7407,8.7407,8.7407,8.7407,8.7407,8.7407,8.7407,8.7407,8.7407,8.7407,8.7407,8.7407,8.7407,8.7407,8.7414,8.7401,8.7392,8.742,8.7498,8.75,8.75,8.75,8.75,8.75,8.75,8.75,8.75,8.75,8.75,8.75,8.75,8.75,8.75,8.75,8.7339,8.725,8.7178,8.7112,8.7023,8.6997,8.6829,8.6693,8.6632,8.6377,8.623,8.617,8.617,8.617,8.6209,8.492,8.4175,8.4057,8.2777,8.2026,8.1862,8.2023,8.2046,8.1883,8.1944,8.197,8.1852,8.1842,8.187,7.5638,7.6448,7.7539,7.9258,7.9687,8.0156,8.1914,0.0,0.0,0.0,0.0,0.0,0.0,0.0,0.0,0.0,0.0,0.0,0.0,0.0,0.0,0.0,0.0,0.0,0.0,0.0,0.0,0.0,0.0,0.0,8.7407,8.7407,8.7407,8.7407,8.7407,0.0,8.7407,8.7407,8.7407,8.7407,8.7407,8.7407,8.7407,8.7407,8.7407,8.7407,8.7407,8.7407,8.7407,8.7407,8.7407,8.7407,8.7407,8.7407,8.7407,8.7407,8.7407,8.7407,8.7407,8.7407,8.7407,8.7407,8.7407,8.7414,8.7401,8.7447,8.7453,8.75,8.75,8.75,8.75,8.75,8.75,8.75,8.75,8.75,8.75,8.7503,8.7481,8.7495,8.7362,8.7243,8.7298,8.7211,8.7057,8.701,8.6919,8.688,8.671,8.6644,8.6559,8.6508,8.6331,8.6184,8.6159,8.6126,8.6094,8.6094,8.472,8.3886,8.3866,8.2432,8.1646,8.1578,8.1815,8.1875,8.1719,8.1674,8.171,8.1821,8.1669,8.1738,7.6221,7.6838,7.7452,7.9218,7.9687,8.0156,0.0,0.0,0.0,0.0,0.0,0.0,0.0,0.0,0.0,0.0,0.0,0.0,0.0,0.0,0.0,0.0,0.0,0.0,0.0,0.0,0.0,0.0,0.0,0.0,8.7407,8.7407,8.7407,8.7407,8.7407,8.7407,8.7407,8.7407,8.7407,8.7407,8.7407,8.7407,8.7407,8.7407,8.7407,8.7407,8.7407,8.7407,8.7407,8.7407,8.7407,8.7407,8.7407,8.7407,8.7407,8.7407,8.7407,8.7407,8.7407,8.7407,8.7407,8.7407,8.7407,8.7414,8.7401,8.7457,8.75,8.75,8.75,8.75,8.75,8.75,8.75,8.75,8.7486,8.7486,8.7446,8.7422,8.7398,8.7399,8.7175,8.7028,8.7139,8.7036,8.6904,8.6817,8.6764,8.6699,8.6528,8.6528,8.65,8.6414,8.6315,8.6254,8.6184,8.6159,8.6094,8.6094,8.4635,8.3799,8.3799,8.2289,8.1427,8.1374,8.1523,8.1633,8.1563,8.1462,8.1493,8.1677,8.1512,8.1555,7.5387,7.6232,7.7268,7.9136,7.9609,8.0078,0.0,0.0,0.0,0.0,0.0,0.0,0.0,0.0,0.0,0.0,0.0,0.0,0.0,0.0,0.0,0.0,0.0,0.0,0.0,0.0,0.0,0.0,0.0,0.0,8.7407,8.7407,8.7407,8.7407,8.7407,8.7407,8.7407,8.7407,8.7407,8.7407,8.7407,8.7407,8.7407,8.7407,8.7407,8.7407,8.7407,8.7407,8.7407,8.7407,8.7407,8.7407,8.7407,8.7407,8.7407,8.7407,8.7407,8.7407,8.7407,8.7407,8.7407,8.7407,8.7407,8.7414,8.7401,8.7457,8.75,8.75,8.75,8.75,8.75,8.75,8.75,8.75,8.7495,8.7448,8.7255,8.7242,8.7178,8.7036,8.7001,8.6989,8.7022,8.6907,8.6791,8.6803,8.6687,8.661,8.661,8.661,8.6583,8.65,8.6414,8.6354,8.6184,8.6159,8.6094,8.6094,8.4635,8.3799,8.3799,8.2235,8.1374,8.1291,8.1273,8.1244,8.1234,8.1347,8.1377,8.133,8.133,8.1412,7.5193,7.5827,7.6606,7.8935,7.9567,8.0078,8.1836,0.0,0.0,0.0,0.0,0.0,0.0,0.0,0.0,0.0,0.0,0.0,0.0,0.0,0.0,0.0,0.0,0.0,0.0,0.0,0.0,0.0,0.0,0.0,8.7407,8.7407,8.7407,8.7407,8.7407,8.7407,8.7407,8.7407,8.7407,8.7407,8.7407,8.7407,8.7407,8.7407,8.7407,8.7407,8.7407,8.7407,8.7407,8.7407,8.7407,8.7407,8.7407,8.7407,8.7407,8.7407,8.7407,8.7407,8.7407,8.7407,8.7407,8.7407,8.7407,8.7387,8.7304,8.7273,8.7277,8.7185,8.7174,8.7213,8.7291,8.7252,8.7174,8.7174,8.717,8.7157,8.6997,8.6919,8.6958,8.6996,8.6839,8.6754,8.6868,8.6764,8.6687,8.6687,8.6648,8.661,8.661,8.661,8.661,8.6583,8.65,8.6443,8.6354,8.6223,8.6159,8.6094,8.4635,8.377,8.371,8.2207,8.1347,8.1244,8.1214,8.1184,8.1124,8.1231,8.1253,8.1291,8.1347,8.14,7.4727,7.5115,7.591,7.9095,7.9493,7.9733,8.2108,0.0,0.0,0.0,0.0,0.0,0.0,0.0,0.0,0.0,0.0,0.0,0.0,0.0,0.0,0.0,0.0,0.0,0.0,0.0,0.0,0.0,0.0,0.0,8.7407,8.7407,8.7407,8.7407,8.7407,8.7407,8.7407,8.7407,8.7407,8.7407,8.7407,8.7407,8.7407,8.7407,8.7407,8.7407,8.7407,8.7407,8.7407,8.7407,8.7407,8.7407,8.7407,8.7407,8.7407,8.7407,8.7407,8.7407,8.7407,8.7407,8.7407,8.7407,8.7407,8.7387,8.7303,8.7259,8.7191,8.7079,8.7037,8.6998,8.7115,8.7076,8.6998,8.6998,8.6959,8.6924,8.6804,8.6803,8.6803,8.6842,8.6726,8.6648,8.6726,8.6648,8.661,8.6636,8.6636,8.6636,8.6636,8.6636,8.6636,8.661,8.6556,8.6472,8.6423,8.6285,8.6076,8.5709,8.4489,8.3625,8.3295,8.1996,8.1291,8.1214,8.1184,8.1154,8.1093,8.1184,8.1205,8.1291,8.1374,8.1427,0.0,0.0,0.0,7.9484,7.9328,7.8995,8.2604,0.0,0.0,0.0,0.0,0.0,0.0,0.0,0.0,0.0,0.0,0.0,0.0,0.0,0.0,0.0,0.0,0.0,0.0,0.0,0.0,0.0,0.0,8.7407,8.7407,8.7407,8.7407,8.7407,8.7407,8.7407,8.7407,8.7407,8.7407,8.7407,8.7407,8.7407,8.7407,8.7407,8.7407,8.7407,8.7407,8.7407,8.7407,8.7407,8.7407,8.7407,8.7407,8.7407,8.7407,8.7407,8.7407,8.7407,8.7407,8.7407,8.7407,8.7407,8.7407,8.7414,8.7405,8.7281,8.7178,8.719,8.7074,8.6996,8.6996,8.6996,8.6996,8.6996,8.688,8.6803,8.6803,8.6803,8.6764,8.6648,8.661,8.661,8.661,8.661,8.6636,8.6713,8.6713,8.6713,8.6713,8.6713,8.6687,8.661,8.6556,8.6472,8.6384,8.6285,8.5844,8.4939,8.415,8.3295,8.2447,8.1638,8.1214,8.1214,8.1124,8.1093,8.1093,8.1184,8.1244,8.1291,8.1374,8.1427,7.2841,0.0,0.0,0.0,0.0,0.0,8.0883,8.1441,0.0,0.0,0.0,0.0,0.0,0.0,0.0,0.0,0.0,0.0,0.0,0.0,0.0,0.0,0.0,0.0,0.0,0.0,0.0,0.0,8.7407,8.7407,8.7407,8.7407,8.7407,8.7407,8.7407,8.7407,8.7407,8.7407,8.7407,8.7407,8.7407,8.7407,8.7407,8.7407,8.7407,8.7407,8.7407,8.7407,8.7407,8.7407,8.7407,8.7407,8.7407,8.7407,8.7407,8.7407,8.7357,8.7338,8.7338,8.7338,8.7338,8.7338,8.7362,8.7381,8.7265,8.7165,8.7058,8.6945,8.6803,8.6726,8.6726,8.6764,8.6842,8.6726,8.6687,8.6648,8.6648,8.6648,8.6648,8.661,8.661,8.661,8.661,8.661,8.6636,8.6713,8.6713,8.6713,8.6713,8.6713,8.6687,8.661,8.6583,8.6556,8.6472,8.6384,8.5938,8.5036,8.4181,8.3303,8.2355,8.1608,8.1184,8.1124,8.1093,8.1093,8.1093,8.1244,8.1263,8.1291,8.1427,8.1478,0.0,0.0,0.0,0.0,0.0,0.0,8.0598,8.1126,8.1212,0.0,0.0,0.0,0.0,0.0,0.0,0.0,0.0,0.0,0.0,0.0,0.0,0.0,0.0,0.0,0.0,0.0,0.0,0.0,8.7407,8.7407,8.7407,8.7407,8.7407,8.7407,8.7407,8.7407,8.7407,8.7407,8.7407,8.7407,8.7407,8.7407,8.7407,8.7407,8.7407,8.7407,8.7357,8.7353,8.7407,8.7357,8.7353,8.7407,8.7407,8.7407,8.7407,8.7357,8.7338,8.7304,8.726,8.7255,8.7258,8.7303,8.7336,8.7353,8.7245,8.7107,8.6981,8.6839,8.6687,8.661,8.661,8.6648,8.6687,8.661,8.661,8.661,8.661,8.661,8.661,8.661,8.661,8.661,8.661,8.6636,8.6687,8.6737,8.6785,8.6785,8.6761,8.6761,8.6713,8.661,8.661,8.6583,8.65,8.6472,8.5882,8.4528,8.3988,8.3149,8.1862,8.1393,8.1154,8.1093,8.1093,8.1124,8.1154,8.1244,8.1263,8.1347,8.1453,8.1504,0.0,0.0,0.0,0.0,0.0,0.0,8.0769,8.1252,8.1117,0.0,0.0,0.0,0.0,0.0,0.0,0.0,0.0,0.0,0.0,0.0,0.0,0.0,0.0,0.0,0.0,0.0,8.7407,8.7407,8.7407,8.7407,8.7407,8.7407,8.7407,8.7407,8.7407,8.7407,8.7407,8.7407,8.7407,8.7407,8.7407,8.7407,8.7407,8.7375,8.7381,8.7381,8.7303,8.7301,8.7353,8.7304,8.7338,8.7381,8.7381,8.7381,8.7353,8.7304,8.7264,8.726,8.7225,8.7198,8.7205,8.7245,8.7265,8.7288,8.7219,8.7103,8.695,8.6815,8.6687,8.661,8.661,8.661,8.661,8.661,8.661,8.661,8.661,8.661,8.661,8.661,8.661,8.661,8.661,8.6662,8.6737,8.6809,8.6854,8.6877,8.6809,8.6809,8.6761,8.661,8.661,8.6583,8.6528,8.65,8.5709,8.3826,8.368,8.2917,8.117,8.1093,8.1093,8.1093,8.1093,8.1124,8.1184,8.1214,8.1263,8.14,8.1478,8.1504,0.0,0.0,0.0,0.0,0.0,0.0,7.8692,7.9842,8.0767,0.0,0.0,0.0,0.0,0.0,0.0,0.0,0.0,0.0,0.0,0.0,0.0,0.0,0.0,0.0,0.0,0.0,8.7407,8.7407,8.7407,8.7407,8.7407,8.7407,8.7407,8.7407,8.7407,8.7407,8.7407,8.7407,8.7407,8.7407,8.7407,8.7407,8.7407,8.7333,8.7303,8.7303,8.7252,8.724,8.7245,8.7236,8.7258,8.7303,8.7303,8.7304,8.7245,8.7236,8.7198,8.7125,8.7103,8.713,8.713,8.7114,8.7166,8.7219,8.7196,8.7053,8.6871,8.6701,8.661,8.661,8.661,8.661,8.661,8.661,8.661,8.661,8.6687,8.6687,8.6687,8.6687,8.6636,8.6636,8.6687,8.6713,8.6761,8.6854,8.6899,8.6877,8.6809,8.6809,8.6761,8.661,8.661,8.661,8.6583,8.6528,8.5738,8.3915,8.371,8.2917,8.117,8.1093,8.1093,8.1093,8.1093,8.1093,8.1124,8.1244,8.1319,8.14,8.1478,8.1504,0.0,0.0,0.0,7.6638,0.0,0.0,0.0,7.9159,7.967,8.0417,0.0,0.0,0.0,0.0,0.0,0.0,0.0,0.0,0.0,0.0,0.0,0.0,0.0,0.0,0.0,0.0,8.7407,8.7407,8.7407,8.7407,8.7407,8.7407,8.7407,8.7407,8.7407,8.7407,8.7407,8.7407,8.7407,8.7407,8.7407,8.7387,8.733,8.7304,8.7264,8.7252,8.719,8.7174,8.7212,8.7165,8.7174,8.7219,8.7245,8.724,8.7212,8.7165,8.7153,8.7078,8.7044,8.705,8.705,8.7089,8.7128,8.7157,8.7064,8.6924,8.6739,8.661,8.661,8.661,8.661,8.661,8.661,8.661,8.661,8.6636,8.6687,8.6713,8.6713,8.6761,8.6737,8.6713,8.6713,8.6761,8.6832,8.6899,8.692,8.692,8.6854,8.6832,8.6761,8.6662,8.6636,8.661,8.661,8.6157,8.533,8.3933,8.3413,8.2554,8.1193,8.1124,8.1093,8.1093,8.1093,8.1093,8.1093,8.1205,8.1319,8.1347,8.1453,8.1504,0.0,0.0,0.0,0.0,0.0,7.7118,0.0,0.0,0.0,7.9995,0.0,0.0,0.0,0.0,0.0,0.0,0.0,0.0,0.0,0.0,0.0,0.0,0.0,0.0,0.0,0.0,8.7191,8.7368,8.7225,8.7191,8.7407,8.7407,8.7407,8.7407,8.7407,8.7407,8.7407,8.7407,8.7407,8.7407,8.7381,8.7366,8.7304,8.7262,8.724,8.7182,8.7118,8.7118,8.7156,8.7105,8.7089,8.7103,8.7156,8.7182,8.7156,8.7092,8.7089,8.7074,8.7001,8.6982,8.702,8.7059,8.7059,8.7019,8.6925,8.679,8.6636,8.661,8.661,8.6636,8.661,8.661,8.661,8.6636,8.6636,8.6636,8.6713,8.6737,8.6761,8.6809,8.6832,8.6832,8.6761,8.6832,8.6899,8.692,8.6961,8.6961,8.6899,8.6854,8.6785,8.6713,8.6662,8.661,8.661,8.5797,8.492,8.395,8.3084,8.2189,8.1253,8.1124,8.1093,8.1124,8.1124,8.1124,8.1154,8.1234,8.1291,8.1291,8.1427,8.1504,0.0,0.0,0.0,0.0,7.9273,0.0,0.0,0.0,7.9175,7.9119,0.0,0.0,0.0,0.0,0.0,0.0,0.0,0.0,0.0,0.0,0.0,0.0,0.0,0.0,0.0,0.0,0.0,8.7336,8.652,8.6405,8.7329,8.7407,8.7407,8.7407,8.7407,8.7407,8.7407,8.7407,8.7407,8.7407,8.7336,8.7304,8.7304,8.7182,8.713,8.7105,8.7033,8.704,8.7019,8.7001,8.7021,8.7001,8.7103,8.7074,8.7019,8.6982,8.7021,8.7021,8.7001,8.6982,8.6982,8.702,8.6961,8.6899,8.6832,8.6785,8.6761,8.6636,8.6662,8.6687,8.661,8.661,8.661,8.6687,8.6713,8.6713,8.6785,8.6832,8.6854,8.6809,8.6899,8.6941,8.6899,8.6899,8.692,8.6961,8.6982,8.6961,8.6899,8.6854,8.6785,8.6713,8.6662,8.661,8.661,8.5797,8.492,8.395,8.3084,8.2189,8.1253,8.1124,8.1124,8.1184,8.1184,8.1244,8.1263,8.1347,8.1347,8.1291,8.1427,8.1504,0.0,0.0,0.0,0.0,0.0,0.0,0.0,0.0,7.8585,0.0,0.0,0.0,0.0,0.0,0.0,0.0,0.0,0.0,0.0,0.0,0.0,0.0,0.0,0.0,0.0,0.0,0.0,0.0,0.0,8.6936,8.7368,8.7407,8.7407,8.7407,8.7407,8.7407,8.7407,8.7407,8.7387,8.7333,8.7304,8.7255,8.719,8.7142,8.7089,8.7033,8.7021,8.6982,8.6982,8.6982,8.6982,8.7001,8.7037,8.7019,8.6982,8.6982,8.6982,8.6982,8.6982,8.6982,8.6982,8.6982,8.6941,8.6899,8.6877,8.6832,8.6785,8.6737,8.6737,8.6761,8.6737,8.6713,8.6737,8.6761,8.6761,8.6785,8.6854,8.6877,8.6899,8.692,8.6961,8.6982,8.6961,8.6941,8.6961,8.6982,8.6982,8.6982,8.6961,8.6899,8.6832,8.6785,8.6713,8.6662,8.661,8.5372,8.4443,8.4069,8.2621,8.1649,8.1214,8.1124,8.1124,8.1154,8.1154,8.1154,8.1184,8.1234,8.1263,8.1273,8.1427,8.1233,7.7836,0.0,0.0,0.0,0.0,0.0,0.0,0.0,0.0,0.0,0.0,0.0,0.0,0.0,0.0,0.0,0.0,0.0,0.0,0.0,0.0,0.0,0.0,0.0,0.0,0.0,0.0,0.0,8.7088,0.0,8.7353,8.7353,8.7353,8.7353,8.7353,8.7387,8.7407,8.7387,8.733,8.7304,8.7258,8.7205,8.7092,8.7089,8.7033,8.6982,8.6982,8.6982,8.6982,8.6982,8.6982,8.6982,8.6982,8.6982,8.6982,8.6982,8.6982,8.6982,8.6982,8.6982,8.6982,8.6982,8.6941,8.6899,8.6899,8.6877,8.6832,8.6809,8.6809,8.6832,8.6809,8.6809,8.6809,8.6832,8.6832,8.6854,8.6899,8.692,8.6941,8.6961,8.6982,8.6982,8.6982,8.6982,8.6982,8.6982,8.6982,8.6982,8.6982,8.6941,8.6877,8.6832,8.6761,8.6571,8.6288,8.4946,8.3902,8.3373,8.2069,8.1291,8.1244,8.1184,8.1154,8.1154,8.1154,8.1154,8.1154,8.1214,8.1244,8.1244,8.1374,8.1105,0.0,0.0,0.0,0.0,0.0,0.0,0.0,0.0,7.8824,0.0,0.0,0.0,0.0,0.0,0.0,7.8745,0.0,0.0,0.0,0.0,0.0,0.0,0.0,0.0,0.0,0.0,0.0,8.7018,8.6318,8.6286,8.7265,8.7304,8.7304,8.7304,8.7304,8.7336,8.7407,8.7336,8.7304,8.7304,8.7174,8.7105,8.7092,8.7037,8.7001,8.6982,8.6982,8.6982,8.6982,8.6982,8.6982,8.6982,8.6982,8.6982,8.6982,8.6982,8.6982,8.6982,8.6982,8.6982,8.6982,8.6982,8.6941,8.6899,8.6899,8.6899,8.6877,8.6832,8.6854,8.6877,8.6809,8.6809,8.6809,8.6877,8.6899,8.6899,8.6899,8.6941,8.6961,8.692,8.6941,8.6982,8.6982,8.6982,8.6982,8.6982,8.6982,8.6982,8.6982,8.6941,8.6899,8.6899,8.6785,8.6364,8.5512,8.461,8.3335,8.1594,8.1439,8.1374,8.1291,8.1291,8.1291,8.1291,8.1291,8.1291,8.1291,8.1291,8.1291,8.1291,8.1291,8.1291,0.0,0.0,8.1928,8.024,0.0,0.0,0.0,0.0,0.0,0.0,0.0,0.0,0.0,0.0,7.9401,7.8822,7.8679,0.0,0.0,0.0,0.0,0.0,0.0,0.0,0.0,0.0,0.0,8.6144,8.6516,8.6884,0.0,8.7245,8.7255,8.7304,8.7304,8.7304,8.7338,8.7304,8.7255,8.7174,8.713,8.7074,8.7037,8.7021,8.6982,8.6982,8.6982,8.6982,8.6982,8.6982,8.6982,8.6982,8.6982,8.6982,8.6982,8.6982,8.6982,8.6982,8.6982,8.6982,8.6982,8.6982,8.6982,8.6961,8.6961,8.6961,8.6961,8.6941,8.6941,8.6961,8.6941,8.692,8.6941,8.6961,8.6961,8.6961,8.6961,8.6982,8.6982,8.6961,8.6982,8.6982,8.6982,8.6982,8.6982,8.6982,8.6982,8.6982,8.6982,8.6961,8.6941,8.6899,8.6832,8.6413,8.5473,8.4069,8.2741,8.1556,8.1427,8.1374,8.1374,8.1319,8.1291,8.1291,8.1291,8.1291,8.1291,8.1291,8.1291,8.1291,8.1291,8.0674,8.283,8.3114,0.0,0.0,8.1902,0.0,0.0,0.0,0.0,0.0,0.0,0.0,0.0,0.0,0.0,7.9114,7.8343,7.7582,0.0,7.7929,0.0,0.0,0.0,0.0,0.0,0.0,8.5297,8.6077,8.6405,8.6745,0.0,0.0,8.7198,8.7236,8.724,8.7245,8.7258,8.7249,8.7198,8.7092,8.7074,8.7033,8.6982,8.6982,8.6982,8.6982,8.6982,8.6982,8.6982,8.6982,8.6982,8.6982,8.6982,8.6982,8.6982,8.6982,8.6982,8.6982,8.6982,8.6982,8.6982,8.6982,8.6982,8.6982,8.6982,8.6982,8.7098,8.772,8.7448,8.7137,8.772,8.7448,8.6982,8.6982,8.6982,8.6982,8.6982,8.6982,8.6982,8.6982,8.6982,8.6982,8.6982,8.6982,8.6982,8.6982,8.6982,8.6982,8.6982,8.6982,8.6982,8.6941,8.6854,8.6296,8.5023,8.3347,8.2084,8.1542,8.1453,8.1427,8.1427,8.14,8.1501,8.181,8.1473,8.1473,8.1754,8.1446,8.1291,8.1291,8.1291,8.0365]},{"header":{"parameterUnit":"m.s-1","parameterCategory":1,"la1":30.6,"la2":29.2853,"lo1":-89.7004,"lo2":-87.6739,"dy":0.0162,"dx":0.0183,"nx":112,"ny":82,"refTime":"2023-10-27T06:00:00:Z","depth":0,"parameterNumber":3,"parameterNumberName":"V-component_of_WINDS"},"data":[0.0,0.0,0.0,0.0,0.0,0.0,0.0,0.0,0.0,0.0,0.0,0.0,0.0,0.0,0.0,0.0,0.0,0.0,0.0,0.0,0.0,0.0,0.0,0.0,0.0,0.0,0.0,0.0,0.0,0.0,0.0,0.0,0.0,0.0,0.0,0.0,0.0,0.0,0.0,0.0,0.0,0.0,0.0,0.0,0.0,0.0,0.0,0.0,0.0,0.0,0.0,0.0,0.0,0.0,0.0,0.0,0.0,0.0,0.0,0.0,0.0,0.0,0.0,0.0,0.0,0.0,0.0,0.0,0.0,0.0,0.0,0.0,0.0,0.0,0.0,0.0,0.0,0.0,0.0,0.0,0.0,0.0,0.0,0.0,0.0,0.0,0.0,0.0,0.0,0.0,0.0,-0.0423,-0.1871,-0.2917,-0.3354,-0.3354,-0.2866,-0.1785,0.0,0.0,0.0,0.0,0.0,0.0,0.0,0.0,0.0,0.0,0.0,0.0,0.0,0.0,0.0,0.0,0.0,0.0,0.0,0.0,0.0,0.0,0.0,0.0,0.0,0.0,0.0,0.0,0.0,0.0,0.0,0.0,0.0,0.0,0.0,0.0,0.0,0.0,0.0,0.0,0.0,0.0,0.0,0.0,0.0,0.0,0.0,0.0,0.0,0.0,0.0,0.0,0.0,0.0,0.0,0.0,0.0,0.0,0.0,0.0,0.0,0.0,0.0,0.0,0.0,0.0,0.0,0.0,0.0,0.0,0.0,0.0,0.0,0.0,0.0,0.0,0.0,0.0,0.0,0.0,0.0,0.0,0.0,0.0,0.0,0.0,0.0,0.0,0.0,0.0,0.0,0.0,0.0,0.0,0.0,0.0,0.0,0.0,0.0,0.0,0.0,0.0,0.0,0.0,-0.0698,-0.1878,-0.2182,-0.2624,-0.2917,-0.3063,-0.2426,-0.1084,0.0,0.0,0.0,0.0,0.0,0.0,0.0,0.0,0.0,0.0,0.0,0.0,0.0,0.0,0.0,0.0,0.0,0.0,0.0,0.0,0.0,0.0,0.0,0.0,0.0,0.0,0.0,0.0,0.0,0.0,0.0,0.0,0.0,0.0,0.0,0.0,0.0,0.0,0.0,0.0,0.0,0.0,0.0,0.0,0.0,0.0,0.0,0.0,0.0,0.0,0.0,0.0,0.0,0.0,0.0,0.0,0.0,0.0,0.0,0.0,0.0,0.0,0.0,0.0,0.0,0.0,0.0,0.0,0.0,0.0,0.0,0.0,0.0,0.0,0.0,0.0,0.0,0.0,0.0,0.0,0.0,0.0,0.0,0.0,0.0,0.0,0.0,0.0,0.0,0.0,0.0,0.0,0.0,0.0,0.0,0.0,0.0,0.0,0.0,0.0,0.0,0.0,0.0,-0.0138,-0.0703,-0.2179,-0.2333,-0.2333,-0.2624,-0.2624,-0.1996,-0.054,-0.0682,0.0,0.0,0.0,0.0,0.0,0.0,0.0,0.0,0.0,0.0,0.0,0.0,0.0,0.0,0.0,0.0,0.0,0.0,0.0,0.0,0.0,0.0,0.0,0.0,0.0,0.0,0.0,0.0,0.0,0.0,0.0,0.0,0.0,0.0,0.0,0.0,0.0,0.0,0.0,0.0,0.0,0.0,0.0,0.0,0.0,0.0,0.0,0.0,0.0,0.0,0.0,0.0,0.0,0.0,0.0,0.0,0.0,0.0,0.0,0.0,0.0,0.0,0.0,0.0,0.0,0.0,0.0,0.0,0.0,0.0,0.0,0.0,0.0,0.0,0.0,0.0,0.0,0.0,0.0,0.0,0.0,0.0,0.0,0.0,0.0,0.0,0.0,0.0,0.0,0.0,0.0,0.0,0.0,0.0,0.0,0.0,0.0,0.0,0.0,0.0,0.0,0.0,-0.0422,-0.0999,-0.2182,-0.2333,-0.2333,-0.2333,-0.2333,-0.1711,-0.027,-0.0136,0.0,0.0,0.0,0.0,0.0,0.0,0.0,0.0,0.0,0.0,0.0,0.0,0.0,0.0,0.0,0.0,0.0,0.0,0.0,0.0,0.0,0.0,0.0,0.0,0.0,0.0,0.0,0.0,0.0,0.0,0.0,0.0,0.0,0.0,0.0,0.0,0.0,0.0,0.0,0.0,0.0,0.0,0.0,0.0,0.0,0.0,0.0,0.0,0.0,0.0,0.0,0.0,0.0,0.0,0.0,0.0,0.0,0.0,0.0,0.0,0.0,0.0,0.0,0.0,0.0,0.0,0.0,0.0,0.0,0.0,0.0,0.0,0.0,0.0,0.0,0.0,0.0,0.0,0.0,0.0,0.0,0.0,0.0,0.0,0.0,0.0,0.0,0.0,0.0,0.0,0.0,0.0,0.0,0.0,0.0,0.0,0.0,0.0,0.0,0.0,0.0,0.0,-0.1279,-0.2183,-0.2333,-0.2333,-0.2333,-0.2333,-0.2333,-0.1711,-0.027,-0.0135,0.0,0.0,0.0,0.0,0.0,0.0,0.0,0.0,0.0,0.0,0.0,0.0,0.0,0.0,0.0,0.0,0.0,0.0,0.0,0.0,0.0,0.0,0.0,0.0,0.0,0.0,0.0,0.0,0.0,0.0,0.0,0.0,0.0,0.0,0.0,0.0,0.0,0.0,0.0,0.0,0.0,0.0,0.0,0.0,0.0,0.0,0.0,0.0,0.0,0.0,0.0,0.0,0.0,0.0,0.0,0.0,0.0,0.0,0.0,0.0,0.0,0.0,0.0,0.0,0.0,0.0,0.0,0.0,0.0,0.0,0.0,0.0,0.0,0.0,0.0,0.0,0.0,0.0,0.0,0.0,0.0,0.0,0.0,0.0,0.0,0.0,0.0,0.0,0.0,0.0,0.0,0.0,0.0,0.0,0.0,0.0,0.0,0.0,0.0,0.0,0.0,0.0,-0.0994,-0.1734,0.0,-0.2333,-0.2333,-0.2333,-0.2333,-0.1711,-0.027,0.0,0.0,0.0,0.0,0.0,0.0,0.0,0.0,0.0,0.0,0.0,0.0,0.0,0.0,0.0,0.0,0.0,0.0,0.0,0.0,0.0,0.0,0.0,0.0,0.0,0.0,0.0,0.0,0.0,0.0,0.0,0.0,0.0,0.0,0.0,0.0,0.0,0.0,0.0,0.0,0.0,0.0,0.0,0.0,0.0,0.0,0.0,0.0,0.0,0.0,0.0,0.0,0.0,0.0,0.0,0.0,0.0,0.0,0.0,0.0,0.0,0.0,0.0,0.0,0.0,0.0,0.0,0.0,0.0,0.0,0.0,0.0,0.0,0.0,0.0,0.0,0.0,0.0,0.0,0.0,0.0,0.0,0.0,0.0,0.0,0.0,0.0,0.0,0.0,0.0,0.0,0.0,0.0,0.0,0.0,0.0,0.0,0.0,0.0,0.0,0.0,0.0,-0.0,-0.0994,-0.1733,0.0,-0.2333,-0.2333,-0.2333,-0.2333,-0.1711,-0.027,0.0,0.0,0.0,0.0,0.0,0.0,0.0,0.0,0.0,0.0,0.0,0.0,0.0,0.0,0.0,0.0,0.0,0.0,0.0,0.0,0.0,0.0,0.0,0.0,0.0,0.0,0.0,0.0,0.0,0.0,0.0,0.0,0.0,0.0,0.0,0.0,0.0,0.0,0.0,0.0,0.0,0.0,0.0,0.0,0.0,0.0,0.0,0.0,0.0,0.0,0.0,0.0,0.0,0.0,0.0,0.0,0.0,0.0,0.0,0.0,0.0,0.0,0.0,0.0,0.0,0.0,0.0,0.0,0.0,0.0,0.0,0.0,0.0,0.0,0.0,0.0,0.0,0.0,0.0,0.0,0.0,0.0,0.0,0.0,0.0,0.0,0.0,0.0,0.0,0.0,0.0,0.0,0.0,0.0,0.0,0.0,0.0,0.0,0.0,0.0,0.0,0.0,-0.0137,-0.1423,-0.2333,-0.2333,-0.2333,-0.2333,-0.2333,-0.2333,-0.1711,0.0,0.0,0.0,0.0,0.0,0.0,0.0,0.0,0.0,0.0,0.0,0.0,0.0,0.0,0.0,0.0,0.0,0.0,0.0,0.0,0.0,0.0,0.0,0.0,0.0,0.0,0.0,0.0,0.0,0.0,0.0,0.0,0.0,0.0,0.0,0.0,0.0,0.0,0.0,0.0,0.0,0.0,0.0,0.0,0.0,0.0,0.0,0.0,0.0,0.0,0.0,0.0,0.0,0.0,0.0,0.0,0.0,0.0,0.0,0.0,0.0,0.0,0.0,0.0,0.0,0.0,0.0,0.0,0.0,0.0,0.0,0.0,0.0,0.0,0.0,0.0,0.0,0.0,0.0,0.0,0.0,0.0,0.0,0.0,0.0,0.0,0.0,0.0,0.0,0.0,0.0,0.0,0.0,0.0,0.0,0.0,0.0,0.0,0.0,0.0,0.0,0.0,0.0,0.0,-0.1432,-0.2333,-0.2333,-0.2333,-0.2333,-0.2333,-0.2333,-0.1711,-0.027,0.0,0.0,0.0,0.0,0.0,0.0,0.0,0.0,0.0,0.0,0.0,0.0,0.0,0.0,0.0,0.0,0.0,0.0,0.0,0.0,0.0,0.0,0.0,0.0,0.0,0.0,0.0,0.0,0.0,0.0,0.0,0.0,0.0,0.0,0.0,0.0,0.0,0.0,0.0,0.0,0.0,0.0,0.0,0.0,0.0,0.0,0.0,0.0,0.0,0.0,0.0,0.0,0.0,0.0,0.0,0.0,0.0,0.0,0.0,0.0,0.0,0.0,0.0,0.0,0.0,0.0,0.0,0.0,0.0,0.0,0.0,0.0,0.0,0.0,0.0,0.0,0.0,0.0,0.0,0.0,0.0,0.0,0.0,0.0,0.0,0.0,0.0,0.0,0.0,0.0,0.0,0.0,0.0,0.0,0.0,0.0,0.0,0.0,0.0,0.0,0.0,0.0,-0.014,-0.1435,-0.2333,-0.2333,-0.2333,-0.2333,-0.2333,-0.2333,-0.1862,-0.0686,0.0,0.0,0.0,0.0,0.0,0.0,0.0,0.0,0.0,0.0,0.0,0.0,0.0,0.0,0.0,0.0,0.0,0.0,0.0,0.0,0.0,0.0,0.0,0.0,0.0,0.0,0.0,0.0,0.0,0.0,0.0,0.0,0.0,0.0,0.0,0.0,0.0,0.0,0.0,0.0,0.0,0.0,0.0,0.0,0.0,0.0,0.0,0.0,0.0,0.0,0.0,0.0,0.0,0.0,0.0,0.0,0.0,0.0,0.0,0.0,0.0,0.0,0.0,0.0,0.0,0.0,0.0,0.0,0.0,0.0,0.0,0.0,0.0,0.0,0.0,0.0,0.0,0.0,0.0,0.0,0.0,0.0,0.0,0.0,0.0,0.0,0.0,0.0,0.0,0.0,0.0,0.0,0.0,0.0,0.0,0.0,0.0,0.0,0.0,0.0,0.0,0.0,-0.014,-0.1435,-0.2333,-0.2333,-0.2333,-0.2333,-0.2333,-0.2333,-0.2018,-0.1405,0.0,0.0,0.0,0.0,0.0,0.0,0.0,0.0,0.0,0.0,0.0,0.0,0.0,0.0,0.0,0.0,0.0,0.0,0.0,0.0,0.0,0.0,0.0,0.0,0.0,0.0,0.0,0.0,0.0,0.0,0.0,0.0,0.0,0.0,0.0,0.0,0.0,0.0,0.0,0.0,0.0,0.0,0.0,0.0,0.0,0.0,0.0,0.0,0.0,0.0,0.0,0.0,0.0,0.0,0.0,0.0,0.0,0.0,0.0,0.0,0.1731,0.0,0.0,0.0,0.0,0.0,0.0,0.0,0.0,0.0,0.0,0.0,0.0,0.0,0.0,0.0,0.0,0.0,0.0,0.0,0.0,0.0,0.0,0.0,0.0,0.0,0.0,0.0,0.0,0.0,0.0,0.0,0.0,0.0,0.0,0.0,0.0,0.0,0.0,0.0,0.0,0.0,-0.014,-0.1435,-0.2333,-0.2333,-0.2333,-0.2333,-0.2333,-0.2333,-0.2018,-0.1405,0.0,0.0,0.0,0.0,0.0,0.0,0.0,0.0,0.0,0.0,0.0,0.0,0.0,0.0,0.0,0.0,0.0,0.0,0.0,0.0,0.0,0.0,0.0,0.0,0.0,0.0,0.0,0.0,0.0,0.0,0.0,0.0,0.0,0.0,0.0,0.0,0.0,0.0,0.0,0.0,0.0,0.0,0.0,0.0,0.0,0.0,0.0,0.0,0.0,0.0,0.0,0.0,0.0,0.0,0.0,0.0,0.0,0.0,0.0,0.0,0.0,0.1157,0.0,0.0,0.0,0.0,0.0,0.0,0.0,0.0,0.0,0.0,0.0,0.0,0.0,0.0,0.0,0.0,0.0,0.0,0.0,0.0,0.0,0.0,0.0,0.0,0.0,0.0,0.0,0.0,0.0,0.0,0.0,0.0,0.0,0.0,0.0,0.0,0.0,0.0,0.0,0.0,-0.0143,-0.1454,-0.236,-0.2375,-0.2363,-0.2354,-0.2354,-0.2341,-0.2174,-0.186,-0.1413,0.0,0.0,0.0,0.0,0.0,0.0,0.0,0.0,0.0,0.0,0.0,0.0,0.0,0.0,0.0,0.0,0.0,0.0,0.0,0.0,0.0,0.0,0.0,0.0,0.0,0.0,0.0,0.0,0.0,0.0,0.0,0.0,0.0,0.0,0.0,0.0,0.0,0.0,0.0,0.0,0.0,0.0,0.0,0.0,0.0,0.0,0.0,0.0,0.0,0.0,0.0,0.0,0.0,0.0,0.0,0.2914,0.335,0.3498,0.3348,0.0576,-0.1153,-0.2041,0.0,0.0,0.0,0.0,0.0,0.0,0.0,0.0,0.0,0.0,0.0,0.0,0.0,0.0,0.0,0.0,0.0,0.0,0.0,0.0,0.0,0.0,0.0,0.0,0.0,-0.0284,-0.0715,0.0,0.0,0.0,0.0,0.0,0.0,0.0,0.0,0.0,0.0,0.0,0.0,-0.0292,-0.1479,-0.2395,-0.2421,-0.2401,-0.2386,-0.2386,-0.2358,-0.2341,-0.2341,-0.1718,-0.1411,0.0,0.0,0.0,0.0,0.0,0.0,0.0,0.0,0.0,0.0,0.0,0.0,0.0,0.0,0.0,0.0,0.0,0.0,0.0,0.0,0.0,0.0,0.0,0.0,0.0,0.0,0.0,0.0,0.0,0.0,0.0,0.0,0.2282,0.229,0.0,0.0,0.0,0.0,0.0,0.0,0.0,0.0,0.0,0.0,0.0,0.0,0.0,0.0,0.3633,0.569,0.6574,0.6268,0.2333,0.0438,0.0584,0.2627,0.3502,0.3354,0.16,0.0,-0.4233,-0.3939,0.0,0.0,0.0,0.0,0.0,0.0,0.0,0.0,0.0,0.0,0.0,0.0,0.0,0.0,0.0,0.0,0.0,0.0,0.0,0.0,0.0,0.0,-0.189,-0.1886,-0.2033,-0.2035,0.0,-0.057,0.042,0.028,0.0,0.0,0.0,0.0,0.0,0.0,0.0,0.0,-0.1036,-0.1948,-0.2418,-0.2423,-0.242,-0.2417,-0.2417,-0.239,-0.2372,-0.2372,-0.2193,-0.1876,-0.1285,-0.1128,0.0,0.0,0.0,0.0,0.0,0.0,0.0,0.0,0.0,0.0,0.0,0.0,0.0,0.0,0.0,0.0,0.0,0.0,0.0,0.0,0.0,0.0,0.0,0.0,0.0,0.0,0.0,0.0,0.0,0.2441,0.2467,0.3216,0.2905,0.2891,0.0,0.0,0.0,0.0,0.0,0.0,0.0,0.0,0.0,0.6425,0.5518,0.3771,0.1604,0.248,0.3065,0.3065,0.1022,0.0,0.0,0.1022,0.1606,0.1459,-0.1021,-0.3063,-0.467,-0.4085,-0.204,0.0873,0.0,0.0,0.0,0.0,0.0,0.1432,0.0287,0.0,0.0,0.0,0.0,0.0,0.0,0.0,0.0,0.0,0.0,0.0,0.0,0.0,0.0,-0.2187,-0.2333,-0.2333,-0.2333,-0.1743,-0.1012,0.0,0.0144,0.0866,0.1847,0.0,0.0,0.0,0.0,0.0,-0.1211,-0.1983,-0.2455,-0.2473,-0.2459,-0.2448,-0.2448,-0.2421,-0.2403,-0.2403,-0.2375,-0.2206,-0.1901,-0.1434,-0.0985,0.0,0.0,0.0,0.0,0.0,0.0,0.0,0.0,0.0,0.0,0.0,0.0,0.0,0.0,0.0,0.0,0.0,0.0,0.0,0.0,0.0,0.0,0.0,0.0,0.0,0.0,0.0,0.0,0.291,0.2924,0.3531,0.3212,0.319,0.0,0.0,0.0,0.0,0.0,0.0,0.613,0.3937,0.3502,0.5113,0.5259,0.351,0.0,0.0,0.0,0.0,0.0,0.0,0.0,0.0,-0.0442,-0.1473,-0.3831,-0.4717,-0.4714,-0.3805,-0.2915,-0.2039,-0.0728,0.0146,0.0,0.0583,0.0583,0.0437,-0.0729,-0.102,-0.1019,-0.0723,0.0,-0.043,-0.0,0.0,0.0,0.0,0.0,0.0436,-0.072,0.0,-0.1313,-0.2049,-0.2345,-0.2346,-0.2354,-0.2082,-0.1793,0.0,-0.0444,0.0445,0.131,0.0,0.0,0.0,0.0,-0.121,-0.1546,-0.217,-0.2489,-0.2512,-0.2493,-0.248,-0.248,-0.2453,-0.2435,-0.2435,-0.2406,-0.2386,-0.2379,-0.1898,-0.1438,-0.1282,0.0,0.0,0.0,0.0,0.0,0.0,0.0,0.0,0.0,0.0,0.0,0.0,0.0,0.0,0.0,0.0,0.0,0.0,0.0,0.0,0.0,0.0,0.0,0.0,0.0,0.0,0.0,0.0,0.0,0.2439,0.3584,0.0,0.0,0.0,0.0,0.1431,0.2024,0.3789,0.6727,0.6727,0.4819,0.0438,0.0292,0.0294,0.0,0.0,0.0,0.0,0.0,0.0,0.0,0.0,-0.1664,-0.4691,-0.4845,-0.4993,-0.4828,-0.4717,-0.35,-0.1603,-0.2039,-0.131,-0.0,-0.0874,-0.102,-0.1166,-0.1895,-0.2187,-0.2045,-0.0887,0.0147,0.0872,-0.0287,0.0143,0.0,0.0,-0.0577,-0.0729,-0.1894,-0.2186,-0.2193,-0.2369,-0.2376,-0.2384,-0.2413,-0.1526,-0.107,0.0,-0.2251,-0.1815,-0.0755,0.0,-0.0607,-0.0614,-0.0616,-0.1083,-0.2352,-0.2511,-0.2512,-0.2514,-0.2512,-0.2512,-0.2512,-0.2484,-0.2466,-0.2466,-0.2438,-0.2408,-0.2379,-0.2375,-0.2042,-0.1265,-0.1136,0.0,0.0,0.0,0.0,0.0,0.0,0.0,0.0,0.0,0.0,0.0,0.0,0.0,0.0,0.0,0.0,0.0,0.0,0.0,0.0,0.0,0.0,0.0,0.0,0.0,0.0,0.0,0.0,0.2491,0.3641,0.0,0.0,0.3902,0.4348,0.3477,0.1745,0.1318,0.2363,0.2512,0.1779,0.0,0.0,0.0,0.0,0.0,0.0,0.0,0.0,-0.1061,-0.3184,-0.3184,-0.3334,-0.3486,-0.4545,-0.4848,-0.4842,-0.4801,-0.4334,-0.3586,-0.3584,-0.3283,-0.2836,-0.2838,-0.2688,-0.2391,-0.269,-0.269,-0.2243,-0.1803,-0.15,-0.1194,-0.1635,-0.1484,-0.1187,-0.1633,-0.1786,-0.1793,-0.2242,-0.2391,-0.2394,-0.2405,-0.2408,-0.241,-0.2421,-0.2141,-0.2001,-0.244,-0.1845,-0.1079,-0.0759,-0.1381,-0.1549,-0.0772,-0.1398,-0.2195,-0.2856,-0.2701,-0.271,-0.305,-0.2732,-0.2571,-0.2571,-0.2544,-0.2527,-0.2527,-0.248,-0.2448,-0.2438,-0.2399,-0.2215,-0.204,-0.1886,-0.1278,0.0,0.0,0.0,0.0,0.0,0.0,0.0,0.0,0.0,0.0,0.0,0.0,0.0,0.0,0.0,0.0,0.0,0.0,0.0,0.0,0.0,0.0,0.0,0.0,0.0,0.0,0.3508,0.2493,0.2632,0.2914,0.29,0.3068,0.3084,0.3084,0.118,0.0,0.0,0.0,0.0,0.0,0.0,0.0,0.0,0.0,0.0,0.0,0.0,-0.1087,-0.3417,-0.4507,-0.4505,-0.3417,-0.4502,-0.4967,-0.4967,-0.4967,-0.4965,-0.4959,-0.4571,-0.4542,-0.4391,-0.4086,-0.3633,-0.3181,-0.3029,-0.2727,-0.2424,-0.2424,-0.2424,-0.2424,-0.2424,-0.2424,-0.2424,-0.2424,-0.2424,-0.2424,-0.2424,-0.2424,-0.2425,-0.2436,-0.2439,-0.2442,-0.2451,-0.247,-0.2484,-0.2484,-0.1874,-0.125,-0.123,-0.2028,-0.2049,-0.0781,-0.1893,-0.271,-0.2408,-0.2572,-0.2905,-0.3087,-0.2765,-0.2601,-0.2601,-0.2253,-0.2243,-0.2574,-0.2359,-0.2173,-0.2484,-0.2122,-0.2085,-0.2067,-0.1896,-0.1427,-0.0554,0.0,0.0,0.0,0.0,0.0,0.0,0.0,0.0,0.0,0.0,0.0,0.0,0.0,0.0,0.0,0.0,0.0,0.0,0.0,0.0,0.0,0.0,0.0,0.2333,0.3648,0.4066,0.2436,0.0869,0.1162,0.3877,0.1614,0.0,0.0,0.0,0.0,0.0,0.0,0.0,0.0,0.0,0.0,0.0,0.0,-0.0,-0.0163,-0.0,-0.0,-0.0326,-0.3742,-0.521,-0.521,-0.521,-0.5207,-0.5202,-0.5202,-0.5202,-0.518,-0.4948,-0.4856,-0.4704,-0.4401,-0.4096,-0.3487,-0.273,-0.2427,-0.2427,-0.2427,-0.2427,-0.2427,-0.2427,-0.2427,-0.2427,-0.2427,-0.2427,-0.2427,-0.2427,-0.2427,-0.2433,-0.2463,-0.247,-0.2478,-0.2508,-0.2515,-0.2515,-0.2515,-0.2517,-0.2517,-0.2515,-0.2541,-0.208,-0.0799,-0.2098,0.0,-0.0813,-0.2277,-0.3092,-0.2604,-0.2604,-0.2604,-0.2604,-0.1773,-0.1608,-0.2601,-0.1752,-0.1729,-0.2515,-0.169,-0.1348,-0.1313,-0.1297,-0.1281,-0.1263,0.0,0.0,0.0,0.0,0.0,0.0,0.0,0.0,0.0,0.0,0.0,0.0,0.0,0.0,0.0,0.0,0.0,0.0,0.0,0.0,0.0,0.0,0.2917,0.2333,0.2625,0.2333,0.0871,0.0294,0.0296,0.1178,0.0448,0.0,0.0,0.0,0.0,0.0,0.0,0.0,0.0,0.0,0.0,0.0,0.0,-0.1297,-0.3907,-0.1302,-0.1301,-0.3742,-0.2116,-0.2766,-0.521,-0.521,-0.521,-0.5207,-0.5204,-0.5202,-0.5196,-0.5131,-0.5104,-0.5104,-0.4944,-0.4443,-0.3619,-0.2808,-0.2489,-0.2489,-0.2489,-0.2489,-0.2489,-0.2489,-0.2489,-0.2489,-0.2489,-0.2489,-0.2489,-0.2489,-0.2489,-0.2492,-0.25,-0.2502,-0.2504,-0.2512,-0.2532,-0.2547,-0.2547,-0.2885,-0.2892,-0.271,-0.2892,-0.2914,-0.2589,0.0,0.0,-0.2138,-0.28,-0.2808,-0.1332,-0.15,-0.1667,-0.1667,-0.1485,-0.1641,0.0,-0.2436,-0.2408,-0.2548,-0.2353,-0.2144,-0.2071,-0.1606,-0.1298,0.0,0.0,0.0,0.0,0.0,0.0,0.0,0.0,0.0,0.0,0.0,0.0,0.0,0.0,0.0,0.0,0.0,0.0,0.0,0.0,0.0,0.0,0.2343,0.2792,0.1911,0.1618,0.103,0.0147,0.0,0.0,0.0,0.0,0.0,0.0,0.0,0.0,0.0,0.0,0.0,0.0,0.0,0.0,0.0,0.0,-0.099,-0.3137,-0.2477,-0.2477,-0.2972,-0.099,-0.1155,0.0,-0.4125,-0.4951,-0.5283,-0.5281,-0.5278,0.0,0.0,0.0,0.0,0.0,-0.4372,-0.3701,-0.2877,-0.2551,-0.2551,-0.2551,-0.2551,-0.2551,-0.2551,-0.2551,-0.2551,-0.2551,-0.2551,-0.2551,-0.2551,-0.2551,-0.2551,-0.2551,-0.2551,-0.2551,-0.2551,-0.2564,-0.2739,-0.29,0.0,0.0,-0.3087,-0.3426,-0.344,-0.2784,-0.3453,-0.3307,0.0,-0.2166,-0.2338,-0.1009,-0.1178,-0.1514,-0.185,-0.1499,0.0,0.0,0.0,-0.2099,-0.2065,-0.204,0.0,0.0,0.0,-0.1456,0.0,0.0,0.0,0.0,-0.0428,-0.0,0.0,0.0,0.0,0.0,0.0,0.0,0.0,0.0,0.0,0.0,0.0,0.0,0.0,0.0,0.0,0.0,0.2361,0.2082,0.1489,0.0598,0.0,0.0,0.0,0.0,0.0,0.0,0.0,0.0,0.0,0.0,0.0,0.0,0.0,0.0,0.0,0.0,0.0,0.0,0.0,-0.0,-0.3213,-0.3382,-0.0676,-0.0169,-0.0169,-0.0506,-0.2532,-0.4221,-0.5403,-0.5403,-0.5401,-0.5384,-0.5267,-0.5224,-0.5061,-0.4239,-0.3913,0.0,0.0,0.0,0.0,-0.2601,-0.2601,-0.2601,-0.2601,-0.2601,-0.2601,-0.2601,-0.2601,-0.2601,-0.2601,-0.2601,-0.2601,-0.2601,-0.2601,-0.2601,-0.2601,-0.2604,-0.2769,-0.326,-0.3124,-0.315,-0.398,-0.398,-0.3647,-0.2483,-0.3173,0.0,-0.0336,-0.1178,-0.1686,-0.1011,0.0,0.0,-0.2533,-0.1838,-0.1834,-0.2695,-0.198,-0.1453,-0.1423,-0.156,-0.154,-0.1369,-0.1485,-0.1769,-0.2383,-0.2353,-0.2338,-0.2191,-0.0288,0.0144,0.0,0.0,0.0,0.0,0.0,0.0,0.0,0.0,0.0,0.0,0.0,0.0,0.0,0.0,0.0,0.2956,0.2523,0.2238,0.211,0.0921,0.0,0.0,0.0,0.0,0.0,0.0,0.0,0.0,0.0,0.0,0.0,0.0,0.0,0.0,0.0,0.0,0.0,0.0,0.0,-0.0,0.0,0.0,-0.4325,-0.1383,-0.0864,-0.2419,-0.2763,-0.3973,-0.5531,-0.5526,-0.5499,-0.545,-0.5376,-0.5349,-0.5177,-0.4303,-0.396,-0.3789,-0.2937,-0.2601,-0.2601,-0.2601,-0.2601,-0.2601,-0.2601,-0.2601,0.0,-0.2601,-0.2601,-0.2601,-0.2601,-0.2601,-0.2601,-0.2601,-0.2601,-0.2601,-0.2601,-0.2949,-0.3134,-0.3299,-0.3826,-0.4358,-0.4528,-0.4191,-0.3856,-0.3686,-0.3524,-0.2858,-0.0841,-0.1357,-0.1194,0.0682,-0.1203,-0.2246,-0.1728,-0.1539,-0.1702,-0.2729,-0.2505,-0.2304,-0.2294,-0.2409,-0.237,-0.2341,-0.2307,-0.2281,-0.2414,-0.2384,-0.2369,-0.2369,-0.19,-0.1891,0.0,0.0,0.0,0.0,0.0,0.0,0.0,0.0,0.0,0.0,0.0,0.1311,0.0,0.0,0.2656,0.2673,0.2103,0.1825,0.2311,0.094,0.0,0.0,0.0,0.0,0.0,0.0,0.0,0.0,0.0,0.0,0.0,0.0,-0.0844,-0.2717,-0.1024,0.0,0.0,0.0,0.0,0.0,0.0,-0.0869,-0.2782,-0.2784,-0.3305,-0.4177,-0.3302,-0.3997,-0.5567,-0.5561,-0.5542,-0.5515,-0.5485,-0.5436,-0.5214,-0.4347,-0.4005,-0.3834,-0.2984,-0.2647,-0.2647,-0.2647,-0.2647,-0.2647,-0.2647,-0.2647,-0.2647,-0.2647,-0.2647,-0.2647,-0.2647,-0.2647,-0.2647,-0.2647,-0.2813,-0.2978,-0.2647,-0.2992,-0.3338,-0.3338,-0.3521,-0.387,-0.4204,-0.3548,-0.3216,-0.3701,-0.3377,-0.2373,-0.0509,-0.0343,-0.0172,0.0517,-0.0867,-0.1913,-0.2087,-0.2067,-0.2224,-0.2737,-0.2695,-0.2662,-0.2647,-0.2619,-0.2582,-0.2538,-0.2507,-0.2477,-0.2446,-0.2416,-0.2393,-0.2378,-0.2363,-0.2494,0.0,0.0,0.0,0.0,0.0,0.0,0.0,0.0,0.0897,0.0878,0.1168,0.1463,0.2194,0.2662,0.2688,0.2395,0.1831,0.1555,0.2203,0.0958,0.0,0.0,0.0,0.0,0.0,0.0,0.0,0.0,0.0,-0.0338,-0.1013,-0.1025,-0.2233,-0.4467,-0.2251,-0.0696,-0.0,0.0,0.0,0.0,0.0,0.0,-0.0175,-0.4028,-0.5786,-0.5608,-0.4024,-0.4197,-0.56,-0.5597,-0.5589,-0.5578,-0.5578,-0.5512,-0.5417,-0.4569,-0.4225,-0.405,-0.3207,-0.3033,-0.2861,-0.2861,-0.2861,-0.2861,-0.2692,-0.2692,-0.2861,-0.2692,-0.2692,-0.2861,-0.2692,-0.2692,-0.2692,-0.2692,-0.3029,-0.3199,-0.2861,-0.3197,-0.3533,-0.3367,-0.3203,-0.3207,-0.4048,-0.3236,-0.2564,-0.3041,-0.2554,-0.1543,-0.0,0.0866,0.1047,0.0174,-0.0699,-0.1749,-0.2792,-0.277,-0.275,-0.2739,-0.2714,-0.2687,-0.2657,-0.265,-0.2622,-0.2568,-0.2538,-0.2508,-0.2477,-0.2447,-0.242,-0.2395,-0.239,-0.2368,0.1283,0.063,0.0,0.0151,0.0149,-0.0146,0.0,0.0,-0.0731,-0.0,-0.0147,0.0,0.1927,0.2398,0.2427,0.2301,0.2176,0.2204,0.2231,0.0976,0.0,0.0,0.0,0.0,0.0,0.0,0.0,0.0,0.0,-0.1538,-0.4959,-0.5011,-0.3648,-0.0694,-0.3478,-0.3496,-0.0,0.0,0.0,0.0,0.0,0.0,-0.0179,-0.3939,-0.5736,-0.5733,-0.5549,-0.5546,-0.5722,-0.5719,-0.5689,-0.564,-0.564,-0.56,-0.554,-0.5023,-0.4819,-0.4608,-0.4097,-0.3901,-0.3868,-0.3365,-0.3367,-0.3199,-0.2861,-0.3029,-0.3197,-0.2861,-0.3029,-0.3197,-0.2861,-0.2692,-0.2692,-0.2692,-0.3029,-0.3199,-0.2861,-0.3363,-0.3868,-0.3535,-0.3731,-0.4097,-0.4438,-0.4306,-0.3805,-0.2394,-0.1034,0.0,0.0868,0.1753,0.2117,0.1235,-0.1068,-0.2675,-0.2826,-0.2821,-0.2796,-0.2742,-0.2735,-0.2718,-0.2688,-0.2661,-0.2631,-0.2597,-0.257,-0.254,-0.2508,-0.2478,-0.2462,-0.2458,-0.2431,-0.2536,0.0,-0.0,0.0,0.0,-0.0598,-0.0744,-0.0886,-0.0895,-0.06,0.0296,0.0,0.0,0.1352,0.1669,0.1845,0.0,0.2363,0.2078,0.1139,0.0329,0.0,0.0,0.0,0.0,0.0,0.0,0.0,0.0,-0.2061,-0.3112,-0.2418,-0.4542,-0.4922,-0.3338,-0.2649,-0.2665,-0.3391,-0.107,0.0,0.0,0.0,0.0,-0.0,-0.1616,-0.3592,-0.5749,-0.5749,-0.5744,-0.5741,-0.5741,-0.5725,-0.5703,-0.5703,-0.5687,-0.5657,-0.5065,-0.4855,-0.4836,-0.4316,-0.4132,-0.4115,-0.3944,-0.3603,-0.3428,-0.3574,-0.3228,-0.3055,-0.3035,-0.3029,-0.3029,-0.2692,-0.2692,-0.2692,-0.3029,-0.3365,-0.3707,-0.3562,-0.3737,-0.3915,-0.3599,-0.3444,-0.3454,-0.3454,-0.2962,-0.2454,-0.1744,-0.105,-0.0,0.1755,0.2481,0.2141,0.0178,-0.1253,-0.2331,-0.2856,-0.2838,-0.2818,-0.2792,-0.2758,-0.2732,-0.272,-0.269,-0.266,-0.2628,-0.26,-0.257,-0.2541,-0.251,-0.2487,-0.2469,-0.2457,-0.2578,-0.0604,0.0,0.0,-0.0895,-0.1347,-0.1353,-0.0744,-0.0907,-0.0916,0.015,-0.0151,-0.0152,0.1218,0.1079,0.1094,0.1576,0.1759,0.1463,0.0165,0.0,0.0,0.0,0.0,0.0,0.0,0.0,-0.0514,-0.1548,-0.3127,-0.332,-0.1746,-0.3178,-0.462,-0.5689,-0.3042,-0.2335,-0.4134,-0.1436,0.0,0.0,0.0,0.0,-0.0,-0.0543,-0.2349,-0.4868,-0.5411,-0.576,-0.5741,-0.5741,-0.5741,-0.5741,-0.5741,-0.5741,-0.573,-0.5291,-0.5078,-0.5063,-0.4714,-0.4531,-0.452,-0.452,-0.4173,-0.3995,-0.4134,-0.378,-0.326,-0.3404,-0.3226,-0.3056,-0.2717,-0.2717,-0.2888,-0.3398,-0.3566,-0.3913,-0.3944,-0.3952,-0.379,-0.3474,-0.2965,-0.2796,-0.2445,-0.2116,-0.142,-0.0355,-0.0178,0.0533,0.2486,0.286,0.1976,-0.018,-0.0898,-0.1616,-0.2335,-0.2675,-0.2838,-0.2829,-0.2788,-0.2755,-0.2739,-0.2717,-0.2687,-0.2647,-0.2626,-0.2596,-0.256,-0.2537,-0.2511,-0.2481,-0.2481,-0.2465,-0.0,-0.0616,-0.1226,-0.1047,-0.1783,-0.2379,-0.2379,-0.2402,-0.197,-0.0908,-0.1529,-0.1233,0.1696,0.1101,0.0,0.0,0.0,0.0,0.0,0.0,0.0,0.0,0.0,0.0,0.0,0.0,-0.1548,-0.5217,-0.2283,-0.1766,-0.5301,-0.2141,-0.1795,-0.5573,-0.5573,-0.3773,-0.018,-0.0,0.0,0.0,0.0,0.0,-0.0,-0.2034,-0.2942,-0.3097,-0.4919,-0.5796,-0.5741,-0.5741,-0.5741,-0.5741,-0.5741,-0.5741,-0.5741,-0.5736,-0.5698,-0.5649,-0.5649,-0.5608,-0.5559,-0.5041,-0.487,-0.4694,-0.4344,-0.4518,-0.4691,-0.3823,-0.3821,-0.3995,-0.2953,-0.2781,-0.2955,-0.3302,-0.3476,-0.3478,-0.3478,-0.3478,-0.3304,-0.2956,-0.2807,-0.2474,-0.159,-0.2139,-0.1615,0.2154,0.2693,0.2872,0.2872,0.2874,0.2335,0.1077,-0.018,-0.1077,-0.1436,-0.2334,-0.286,-0.283,-0.2827,-0.2799,-0.274,-0.2736,-0.2707,-0.2647,-0.2646,-0.2617,-0.256,-0.2559,-0.2542,-0.2512,-0.2512,-0.2496,-0.0153,-0.0609,-0.1366,-0.179,-0.2243,-0.2257,-0.1806,-0.1976,-0.184,0.0153,0.0779,0.1743,0.4152,0.2091,0.0,0.0,0.0,0.0,0.0,0.0,0.0,0.0,0.0,0.0,0.0,0.0,0.0,-0.1757,-0.302,-0.3216,-0.1964,-0.3047,-0.3244,-0.1996,-0.1996,-0.1274,-0.0,0.0,0.0,0.0,0.0,0.0,-0.0,-0.0741,-0.2587,-0.4974,-0.5713,-0.5883,-0.5858,-0.5818,-0.5801,-0.5798,-0.5758,-0.5741,-0.5741,-0.5741,-0.5728,-0.5711,-0.5711,-0.5698,-0.5679,-0.5504,-0.5149,-0.4965,-0.4753,-0.4393,-0.4034,-0.4007,-0.3651,-0.3304,-0.3651,-0.3304,-0.2958,-0.3825,-0.3653,-0.366,-0.3861,-0.3691,-0.3522,-0.3547,-0.3207,-0.2322,-0.0714,0.0358,0.1436,0.2694,0.2874,0.2874,0.2874,0.2874,0.2515,0.1436,0.0359,-0.0539,-0.1257,-0.2335,-0.287,-0.2859,-0.284,-0.2811,-0.277,-0.2748,-0.2718,-0.2677,-0.2657,-0.2637,-0.2617,-0.2578,-0.2555,-0.2544,-0.2523,-0.2508,-0.0761,-0.1064,-0.1368,-0.2252,-0.2417,-0.2286,-0.1829,-0.2156,-0.1863,0.0311,0.1577,0.2726,0.4362,0.3258,0.1813,0.1174,0.2357,0.2531,0.0338,0.0,0.0,0.0,0.0,0.0,0.0,0.0,0.0,0.0,-0.2325,-0.3239,-0.2166,-0.3071,-0.2541,-0.0,0.0,0.0,0.0,0.0,0.0,0.0,0.0,0.0,0.0,0.0,-0.1868,-0.5029,-0.5773,-0.5946,-0.5918,-0.5856,-0.5831,-0.5826,-0.5766,-0.5741,-0.5744,-0.5766,-0.576,-0.5741,-0.5741,-0.5741,-0.5741,-0.5741,-0.5559,-0.5194,-0.5162,-0.4797,-0.4256,-0.4404,-0.4044,-0.3693,-0.3868,-0.3517,-0.3167,-0.3868,-0.3694,-0.3349,-0.3904,-0.3553,-0.3383,-0.3406,-0.2693,-0.1436,-0.018,0.1621,0.289,0.289,0.2898,0.2901,0.289,0.2898,0.2724,0.1997,0.0905,-0.0,-0.1083,-0.234,-0.2874,-0.2874,-0.2856,-0.2831,-0.28,-0.277,-0.274,-0.2709,-0.2679,-0.2658,-0.2647,-0.2609,-0.2581,-0.2559,-0.254,-0.2525,-0.1989,-0.1834,-0.1384,-0.228,-0.2448,-0.2472,-0.2472,-0.2493,-0.2043,-0.0314,0.0635,0.1601,0.0,0.0,0.4992,0.3195,0.6344,0.6925,0.1198,0.0174,0.0,0.0,0.0,0.0,0.0,0.0,0.0,0.0,0.0,-0.1624,-0.5293,-0.2008,0.0,0.0,0.0,0.0,0.0,0.0,0.0,0.0,0.0,0.0,0.0,0.0,-0.1138,-0.3197,-0.5263,-0.5981,-0.5924,-0.5858,-0.5831,-0.5826,-0.5766,-0.5741,-0.5747,-0.5807,-0.5793,-0.5747,-0.5747,-0.5744,-0.5741,-0.5741,-0.5741,-0.5741,-0.5741,-0.5741,-0.5562,-0.5201,-0.5022,-0.4843,-0.3947,-0.3588,-0.3588,-0.3588,-0.3231,-0.3053,-0.3411,-0.3231,-0.2874,-0.2874,-0.1257,0.018,0.018,0.1631,0.292,0.2921,0.2946,0.2953,0.2921,0.2943,0.2961,0.2776,0.1652,0.0365,-0.0912,-0.2169,-0.2875,-0.2874,-0.2874,-0.286,-0.283,-0.2801,-0.277,-0.2739,-0.271,-0.268,-0.2649,-0.2647,-0.2617,-0.2562,-0.256,-0.2544,-0.1536,-0.1847,-0.2159,-0.2459,-0.248,-0.2503,-0.2503,-0.2508,-0.22,-0.0785,0.0319,0.1624,0.0,0.0,0.0,0.2888,0.4902,0.0,0.6775,0.291,0.0,0.0,0.0,0.0,0.0,0.0,0.0,0.0,0.0,-0.0365,-0.1475,-0.0554,0.0,0.0,0.0,0.0,0.0,0.0,0.0,0.0,0.0,0.0,0.0,0.0,-0.1143,-0.3227,-0.5091,-0.6008,-0.5981,-0.5875,-0.5831,-0.5826,-0.5766,-0.5741,-0.5744,-0.5758,-0.5782,-0.5809,-0.5809,-0.5779,-0.5741,-0.5741,-0.5741,-0.5562,-0.5201,-0.5201,-0.5201,-0.5022,-0.4664,-0.4487,-0.4664,-0.4126,-0.3588,-0.3588,-0.3231,-0.2874,-0.3053,-0.2335,-0.1795,-0.1436,0.0539,0.2161,0.2178,0.2549,0.2927,0.295,0.2977,0.2984,0.2954,0.2958,0.2593,0.1852,0.0739,-0.0184,-0.0913,-0.2182,-0.2897,-0.2875,-0.2874,-0.286,-0.283,-0.2821,-0.2792,-0.2739,-0.2731,-0.2712,-0.2682,-0.2658,-0.2628,-0.259,-0.257,-0.2544,-0.1851,-0.2169,-0.2489,-0.2489,-0.2502,-0.2357,-0.2043,-0.2043,-0.1571,-0.0157,0.0638,0.0,0.2932,0.2292,0.0,0.0,0.0,0.0,0.7355,0.5548,0.2975,0.0,0.0,0.0,0.0,0.0,0.0,0.0,0.0,0.0,0.0,0.0,0.0,0.0,0.0,0.0,0.0,0.0,0.0,0.0,0.0,0.0,0.0,0.0,-0.1142,-0.3029,0.0,-0.6003,-0.5965,-0.5872,-0.5831,-0.5826,-0.5766,-0.5741,-0.5744,-0.5771,-0.5801,-0.5834,-0.5861,-0.585,-0.5818,-0.579,-0.5779,-0.5777,-0.5388,-0.538,-0.5201,-0.5022,-0.4843,-0.4485,-0.4485,-0.3947,-0.359,-0.3411,-0.3053,-0.2874,-0.2874,-0.2515,-0.1798,-0.0723,0.0543,0.1814,0.22,0.2212,0.2222,0.2235,0.2632,0.3021,0.3003,0.3002,0.2816,0.2252,0.0374,-0.1115,-0.1849,-0.2565,-0.2909,-0.2894,-0.2881,-0.2867,-0.2849,-0.2836,-0.2806,-0.2759,-0.2744,-0.2722,-0.2692,-0.2675,-0.2652,-0.262,-0.2592,-0.2563,-0.2326,-0.2495,-0.2514,-0.2514,-0.2514,-0.2357,-0.157,-0.1413,-0.0785,0.0942,0.1269,0.16,0.2404,0.1454,0.0983,0.2683,0.0,0.2736,0.4682,0.6722,0.5889,0.0707,0.0,0.0,0.0,0.0,0.0,0.0,0.0,0.0,0.0,0.0,0.0,0.0,0.0,0.0,0.0,0.0,0.0,0.0,0.0,0.0,0.0,0.0,-0.095,-0.2636,0.0,0.0,-0.5918,-0.5856,-0.5826,-0.5815,-0.5763,-0.5741,-0.5747,-0.5801,-0.5828,-0.585,-0.5905,-0.5932,-0.5935,-0.5867,-0.5845,-0.5834,-0.5779,-0.5766,-0.5583,-0.5214,-0.5032,-0.485,-0.3949,-0.3588,-0.3411,-0.3053,-0.2874,-0.2875,-0.2879,-0.2883,-0.217,-0.0182,0.0366,0.0734,0.1482,0.1308,0.1128,0.1129,0.2276,0.3052,0.3052,0.2862,0.2671,0.2671,0.0189,-0.1882,-0.3007,-0.2958,-0.2924,-0.2916,-0.2893,-0.2878,-0.2874,-0.2848,-0.2821,-0.2789,-0.2759,-0.2729,-0.2698,-0.2695,-0.2676,-0.2646,-0.262,-0.259,-0.2502,-0.2665,-0.2983,-0.2983,-0.2983,-0.2826,-0.204,-0.157,0.0,0.0,0.1269,0.1604,0.2428,0.2436,0.1638,-0.0168,0.0669,0.1342,0.1027,0.1388,0.1227,0.0,0.0,0.0,0.0,0.0,0.0,0.0,0.0,0.0,0.0,0.0,0.0,0.0,0.0,0.0,0.0,0.0,0.0,0.0,0.0,0.0,0.0,0.0,-0.0191,-0.0761,0.0,0.0,-0.5918,-0.5856,-0.5801,-0.5755,-0.5744,-0.5741,-0.5741,-0.5752,-0.582,-0.5907,-0.5918,-0.5987,-0.6049,-0.5943,-0.5907,-0.5905,-0.5894,-0.5891,-0.588,-0.5649,-0.5452,-0.4896,-0.4318,-0.3949,-0.3411,-0.3053,-0.2874,-0.2881,-0.2906,-0.2198,-0.1106,0.0739,0.1847,0.241,0.2622,0.1315,0.0189,0.019,0.1907,0.3055,0.3055,0.1527,0.0573,0.0573,-0.0762,-0.1896,-0.3009,-0.2996,-0.2969,-0.2919,-0.2912,-0.2898,-0.2875,-0.2868,-0.2852,-0.2821,-0.2791,-0.2761,-0.2729,-0.2705,-0.2676,-0.2647,-0.2642,-0.2611,-0.2822,-0.2983,-0.3139,-0.3454,-0.3454,-0.3139,-0.1569,0.0,0.0,0.157,0.1904,0.2079,0.2556,0.2086,0.0,0.1318,0.0165,-0.0498,-0.0,0.0,0.0,0.0,0.0,0.0,0.0,0.0,0.0,0.0,0.0,0.0,0.0,0.0,0.0,0.0,0.0,0.0,0.0,0.0,0.0,0.0,0.0,0.0,0.0,0.0,0.0,-0.0189,0.0,0.0,-0.4438,-0.5308,-0.5633,-0.5788,-0.5968,-0.6149,-0.6152,-0.6546,-0.6442,-0.634,-0.634,-0.6403,-0.647,-0.6409,-0.6182,-0.5965,-0.5932,-0.5924,-0.5731,-0.5153,-0.496,-0.4589,-0.3836,-0.3466,-0.3283,-0.2919,-0.292,-0.2926,-0.2941,-0.1661,-0.0371,0.056,0.112,0.1311,0.1325,0.0569,0.0,0.0,0.0764,0.1527,0.1527,0.0573,0.0,0.0,-0.0954,-0.1904,-0.3032,-0.3016,-0.2987,-0.2942,-0.2924,-0.2904,-0.2875,-0.2874,-0.286,-0.2829,-0.2799,-0.2769,-0.2737,-0.2707,-0.2686,-0.2671,-0.2654,-0.2632,-0.2987,-0.3297,-0.3454,-0.3768,-0.3925,-0.3297,-0.1255,-0.0628,-0.0,0.2043,0.2533,0.2545,0.2527,0.1751,0.161,0.0,0.0981,-0.0664,-0.0,0.0,0.0,0.0,0.0,0.0,0.0,0.0,0.0,0.0,0.0,0.0,0.0,0.0,0.0,0.0,0.0,0.0,0.0,0.0,0.0,0.0,0.0,0.0,-0.0,-0.0382,-0.057,-0.0565,0.0,0.0,0.0,-0.4786,-0.5312,-0.5485,-0.6215,-0.6395,-0.6583,-0.7187,-0.7257,-0.6948,-0.6948,-0.6992,-0.7052,-0.7052,-0.6639,-0.6213,-0.6162,-0.5962,-0.5771,-0.4832,-0.4459,-0.4269,-0.3334,-0.3146,-0.2961,-0.2962,-0.2968,-0.2789,-0.2416,-0.1117,0.0,0.0,0.0,0.0,0.0,0.0,0.0,0.0,0.0,0.0,0.0,0.0,0.0,0.0,-0.0763,-0.1716,-0.3052,-0.3031,-0.3001,-0.2964,-0.2939,-0.2911,-0.2875,-0.2874,-0.2863,-0.2838,-0.2808,-0.2778,-0.2747,-0.2717,-0.2699,-0.2691,-0.2668,-0.2653,-0.2842,-0.3611,-0.4241,-0.4397,-0.4397,-0.3768,-0.1726,0.0,-0.0,0.2043,0.2517,0.2526,0.2551,0.2578,0.2445,0.2638,0.383,0.3551,0.052,0.0,0.0,0.0,0.0,0.0,0.0,0.0,0.0,0.0,0.0,0.0,0.0,0.0,0.0,0.0,0.0,0.0,0.0,0.0,0.0,0.0,0.0,0.0,-0.0,-0.1908,-0.286,-0.2666,0.0,0.0,0.0,-0.3938,-0.4289,-0.4623,-0.5544,-0.591,-0.6092,-0.7023,-0.7442,-0.7507,-0.7507,-0.7558,-0.7619,-0.7619,-0.7236,-0.6853,-0.6847,-0.6464,-0.5882,-0.5265,-0.4876,-0.4304,-0.3711,-0.3331,-0.2962,-0.2964,-0.2986,-0.2443,-0.0563,-0.0189,0.0,0.0,0.0,0.0,0.0,0.0,0.0,0.0,0.0,0.0,0.0,0.0,0.0,0.0,-0.0,-0.0954,-0.2862,-0.305,-0.3024,-0.2965,-0.2958,-0.2932,-0.2876,-0.2874,-0.2872,-0.287,-0.284,-0.281,-0.278,-0.2748,-0.272,-0.2692,-0.269,-0.2673,-0.3147,-0.3925,-0.4397,-0.4709,-0.4261,-0.3168,-0.1728,-0.0473,0.0634,0.2224,0.2541,0.2545,0.2557,0.2906,0.3101,0.3469,0.3821,0.4216,0.3844,0.1571,0.0,0.0,0.0,0.0,0.0,0.0,0.0,0.0,0.0,0.0,0.0,0.0,0.0,0.0,0.0,0.0,0.0,0.0,0.0,-0.0,-0.1336,-0.1908,-0.1908,-0.2098,-0.2479,-0.3052,0.0,0.0,0.0,-0.3769,-0.3938,-0.4297,-0.5789,-0.6535,-0.6538,-0.7888,-0.83,-0.7949,-0.7949,-0.7971,-0.7999,-0.7999,-0.7619,-0.6859,-0.6862,-0.6672,-0.6286,-0.5124,-0.4738,-0.4355,-0.3585,-0.3204,-0.3016,-0.3017,-0.2081,-0.0949,-0.019,0.0,0.0,0.0,0.0,0.0,0.0,0.0,0.0,0.0,0.0,0.0,0.0,0.0,0.0,0.0,0.0,-0.0572,-0.2098,-0.2671,-0.3035,-0.2991,-0.2972,-0.2943,-0.2901,-0.2883,-0.2874,-0.2874,-0.2844,-0.2822,-0.2811,-0.2762,-0.2732,-0.272,-0.2701,-0.2686,-0.3159,-0.3935,-0.4709,-0.4865,-0.4117,-0.2707,-0.1573,-0.0317,0.1117,0.2387,0.2704,0.2704,0.2704,0.322,0.3589,0.3948,0.3974,0.4551,0.5777,0.3844,0.1927,0.1432,0.0,0.0,0.0,0.0,0.0,0.0,0.0,0.0,0.0,0.0,0.0,0.0,0.0,0.0,0.0,0.0,-0.0381,-0.0954,-0.2276,-0.3031,-0.3039,-0.2278,-0.2279,0.0,0.0,0.0,0.0,-0.3597,-0.3587,-0.3776,-0.5471,-0.6224,-0.6229,-0.7792,-0.7999,-0.7806,-0.7806,-0.7806,-0.7806,-0.7806,-0.7236,-0.6666,-0.6482,-0.6482,-0.6101,-0.4768,-0.4385,-0.4004,-0.3243,-0.3052,-0.2862,-0.2289,-0.1145,0.0,0.0,0.0,0.0,0.0,0.0,0.0,0.0,0.0,0.0,0.0,0.0,0.0,0.0,0.0,0.0,0.0,0.0,-0.0381,-0.1335,-0.2479,-0.3039,-0.3009,-0.2979,-0.2947,-0.2917,-0.2889,-0.2874,-0.2874,-0.2853,-0.2838,-0.2829,-0.2777,-0.2747,-0.2737,-0.2706,-0.2687,-0.2243,-0.38,-0.5022,-0.5022,-0.4117,-0.2707,-0.1573,-0.0317,0.1114,0.2206,0.2828,0.314,0.314,0.3522,0.3905,0.3905,0.4809,0.5256,0.468,0.6261,0.666,0.0,0.0,0.0,0.0,0.0,0.0,0.0,0.0,0.0,0.0,0.0,0.0,0.0,0.0,0.0,0.0,0.0,-0.0945,-0.3051,-0.2994,-0.298,-0.3007,-0.3007,0.0,0.0,0.0,0.0,0.0,-0.3052,-0.3052,-0.3242,-0.4194,-0.4575,-0.4766,-0.5718,-0.6098,-0.6098,-0.6098,-0.6098,-0.6098,-0.6098,-0.6098,-0.6098,-0.553,-0.5149,-0.4958,-0.4389,-0.3624,-0.3052,-0.3052,-0.3052,-0.2671,-0.0573,-0.0,0.0,0.0,0.0,0.0,0.0,0.0,0.0,0.0,0.0,0.0,0.0,0.0,0.0,0.0,0.0,0.0,0.0,0.0,-0.0382,-0.1335,-0.2479,-0.3039,-0.3009,-0.2979,-0.2947,-0.2917,-0.2889,-0.2874,-0.2874,-0.2874,-0.2859,-0.2829,-0.2797,-0.2767,-0.2737,-0.2706,-0.2676,-0.0946,-0.1888,-0.251,-0.251,-0.1424,-0.0478,-0.0,0.1267,0.2553,0.2863,0.3317,0.3621,0.365,0.4023,0.4413,0.4482,0.5056,0.5501,0.5836,0.0,0.0,0.6273,0.0,0.0,0.0,0.0,0.0,0.0,0.0,0.0,0.0,0.0,0.0,0.0,0.0,0.0,0.0,-0.1319,-0.2449,-0.3024,-0.3024,-0.3029,-0.3037,-0.3037,0.0,0.0,0.0,0.0,0.0,-0.3052,-0.3052,-0.3243,-0.4194,-0.4575,-0.4766,-0.5718,-0.6098,-0.6098,-0.6098,-0.6098,-0.6098,-0.6098,-0.5718,-0.4956,-0.4956,-0.4958,-0.5149,-0.4389,-0.3624,-0.3052,-0.3052,-0.2099,-0.0763,-0.0191,0.0,0.0,0.0,0.0,0.0,0.0,0.0,0.0,0.0,0.0,0.0,0.0,0.0,0.0,0.0,0.0,0.0,0.0,0.0,-0.0191,-0.0381,-0.2098,-0.3048,-0.3039,-0.299,-0.2957,-0.2947,-0.29,-0.2874,-0.2874,-0.2874,-0.287,-0.286,-0.2829,-0.2788,-0.2737,-0.2706,-0.2687,0.0155,-0.0779,-0.1246,-0.1246,-0.0158,0.0955,0.0944,0.2218,0.3353,0.3495,0.3788,0.4097,0.3988,0.4517,0.4905,0.5,0.5401,0.5836,0.0,0.0,0.0,0.0,0.0,0.0,0.0,0.0,0.0,0.0,0.0,0.0,0.0,0.0,0.0,0.0,0.0,0.0,0.0,-0.2057,-0.3185,-0.3009,-0.3016,-0.3024,-0.3035,0.0,0.0,0.0,0.0,0.0,0.0,-0.3052,-0.3052,-0.3243,-0.3813,-0.4004,-0.4194,-0.4766,-0.4956,-0.4956,-0.4956,-0.4956,-0.4956,-0.4956,-0.4575,-0.4004,-0.4004,-0.4196,-0.4196,-0.286,-0.2289,-0.1908,-0.1908,-0.0954,0.0,0.0,0.0,0.0,0.0,0.0,0.0,0.0,0.0,0.0,0.0,0.0,0.0,0.0,0.0,0.0,0.0,0.0,0.0,0.0,0.0,0.0,0.0,-0.1526,-0.267,-0.3052,-0.2995,-0.2961,-0.2961,-0.2905,-0.2874,-0.2874,-0.2874,-0.2874,-0.2874,-0.2831,-0.2787,-0.2737,-0.2706,-0.2692,0.0,-0.0154,-0.0923,-0.0924,0.0313,0.143,0.1415,0.2691,0.0,0.3778,0.4241,0.4414,0.4467,0.5002,0.5224,0.0,0.0,0.0,0.0,0.6625,0.0,0.0,0.0,0.0,0.0,0.0,0.0,0.0,0.0,0.0,0.0,0.0,0.0,0.0,-0.0188,-0.0187,-0.0185,-0.2225,-0.3168,-0.3006,-0.298,-0.2983,-0.301,0.0,0.0,0.0,0.0,0.0,0.0,-0.3048,-0.305,-0.305,-0.3051,-0.3052,-0.3052,-0.3052,-0.3052,-0.3052,-0.3052,-0.3052,-0.3052,-0.3052,-0.3052,-0.3052,-0.3052,-0.3052,-0.267,-0.0763,-0.0,0.0,0.0,0.0,0.0,0.0,0.0,0.0,0.0,0.0,0.0,0.0,0.0,0.0,0.0,0.0,0.0,0.0,0.0,0.0,0.0,0.0,0.0,0.0,0.0,0.0,0.0,-0.0954,-0.1907,-0.3052,-0.2996,-0.2964,-0.2961,-0.2908,-0.2876,-0.2874,-0.2874,-0.2874,-0.2874,-0.2815,-0.277,-0.274,-0.271,-0.2695,0.2398,0.0,0.1982,0.2001,0.2633,0.3115,0.0,0.3776,0.4254,0.4243,0.4552,0.0,0.0,0.0,0.0,0.0,0.0,0.0,0.0,0.0,0.0,0.0,0.0,0.0,0.0,0.0,0.0,0.0,0.0,0.0,0.0,0.0,0.0,0.0,-0.1488,-0.2415,-0.2408,-0.2799,-0.3188,-0.3007,-0.3024,-0.3035,-0.3041,0.0,0.0,0.0,0.0,0.0,-0.2984,-0.3007,-0.3017,-0.302,-0.3043,-0.3052,-0.3052,-0.3052,-0.3052,-0.3052,-0.3052,-0.3052,-0.3052,-0.3052,-0.3052,-0.3052,-0.3052,-0.3052,-0.2862,-0.1526,-0.0572,0.0,0.0,0.0,0.0,0.0,0.0,0.0,0.0,0.0,0.0,0.0,0.0,0.0,0.0,0.0,0.0,0.0,0.0,0.0,0.0,0.0,0.0,0.0,0.0,0.0,0.0,-0.0954,-0.1907,-0.3052,-0.3017,-0.2986,-0.2962,-0.2926,-0.2896,-0.2874,-0.2874,-0.2874,-0.2874,-0.2836,-0.2803,-0.2772,-0.2742,-0.2714,0.2951,0.3001,0.306,0.3388,0.3733,0.4084,0.411,0.4414,0.4709,0.4709,0.4865,0.5049,0.0,0.0,0.0,0.0,0.0,0.0,0.0,0.0,0.0,0.0,0.0,0.0,0.0,0.0,0.0,0.0,0.0,0.0,0.0,0.0,0.0,0.0,-0.1485,-0.2589,-0.3129,-0.3172,-0.3007,-0.3007,-0.3037,-0.3052,-0.3052,0.0,0.0,0.0,0.0,0.0,-0.3005,-0.3021,-0.3028,-0.3029,-0.3046,-0.3052,-0.3052,-0.3052,-0.3052,-0.3052,-0.3052,-0.3052,-0.3052,-0.3052,-0.3052,-0.3052,-0.3052,-0.3052,-0.2862,-0.1716,-0.0763,0.0,0.0,0.0,0.0,0.0,0.0,0.0,0.0,0.0,0.0,0.0,0.0,0.0,0.0,0.0,0.0,0.0,0.0,0.0,0.0,0.0,0.0,0.0,0.0,0.0,0.0,-0.0572,-0.1526,-0.3052,-0.3024,-0.2994,-0.2962,-0.2932,-0.2902,-0.2875,-0.2874,-0.2874,-0.2874,-0.2844,-0.2821,-0.2803,-0.2758,-0.2729,0.3088,0.3159,0.3392,0.3692,0.4229,0.4623,0.4623,0.4744,0.5025,0.5033,0.5036,0.5229,0.0,0.5555,0.0,0.0,0.0,0.0,0.0,0.0,0.0,0.0,0.0,0.0,0.0,0.0,0.0,0.0,0.0,0.0,0.0,0.0,0.0,0.0,-0.1304,-0.2219,-0.3117,-0.3173,-0.3014,-0.3014,-0.304,-0.3052,-0.3052,-0.3052,0.0,0.0,0.0,0.0,-0.3039,-0.3043,-0.3046,-0.3046,-0.3051,-0.3052,-0.3052,-0.3052,-0.3052,-0.3052,-0.3052,-0.3052,-0.3052,-0.3052,-0.3052,-0.3052,-0.3052,-0.3052,-0.2862,-0.1907,-0.0954,0.0,0.0,0.0,0.0,0.0,0.0,0.0,0.0,0.0,0.0,0.0,0.0,0.0,0.0,0.0,0.0,0.0,0.0,0.0,0.0,0.0,0.0,0.0,0.0,0.0,0.0,0.0,-0.0763,-0.2862,-0.3024,-0.2991,-0.2956,-0.2926,-0.2898,-0.2874,-0.2874,-0.2874,-0.2874,-0.2848,-0.2833,-0.2827,-0.2772,-0.2743,0.3754,0.396,0.3999,0.4109,0.4637,0.4878,0.4878,0.5027,0.5036,0.5087,0.5098,0.5134,0.542,0.5986,0.624,0.0,0.0,0.0,0.0,0.0,0.0,0.0,0.0,0.0,0.0,0.0,0.0,0.0,0.0,0.0,0.0,0.0,0.0,0.0,0.0,-0.2998,-0.3181,-0.3028,-0.3046,-0.3046,-0.305,-0.3052,-0.3052,-0.3052,-0.3039,0.0,0.0,-0.2999,-0.2977,-0.3003,-0.3014,-0.3016,-0.3041,-0.3052,-0.3052,-0.3052,-0.3052,-0.3052,-0.3052,-0.3052,-0.3052,-0.3052,-0.3052,-0.3052,-0.3052,-0.3052,-0.3052,-0.2862,-0.1526,0.0,0.0,0.0,0.0,0.0,0.0,0.0,0.0,0.0,0.0,0.0,0.0,0.0,0.0,0.0,0.0,0.0,0.0,0.0,0.0,0.0,0.0,0.0,0.0,0.0,0.0,0.0,-0.0573,-0.21,-0.2079,-0.2423,-0.2926,-0.2896,-0.2879,-0.2874,-0.2874,-0.2874,-0.2874,-0.287,-0.2853,-0.2827,-0.2792,-0.2762,0.4031,0.4409,0.4622,0.4594,0.4828,0.5074,0.5074,0.5074,0.5082,0.5428,0.562,0.5838,0.6266,0.0,0.0,0.0,0.0,0.0,0.0,0.0,0.0,0.0,0.0,0.0,0.0,0.0,0.0,0.0,0.0,0.0,0.0,0.0,0.0,0.0,0.0,-0.3014,-0.3031,-0.3046,-0.3052,-0.3052,-0.3052,-0.3052,-0.3052,-0.3052,-0.3044,-0.3031,0.0,-0.3024,-0.3011,-0.3025,-0.3031,-0.3032,-0.3047,-0.3052,-0.3052,-0.3052,-0.3052,-0.3052,-0.3052,-0.3052,-0.3052,-0.3052,-0.3052,-0.3052,-0.3052,-0.3052,-0.3052,-0.2479,-0.1144,0.0,0.0,0.0,0.0,0.0,0.0,0.0,0.0,0.0,0.0,0.0,0.0,0.0,0.0,0.0,0.0,0.0,0.0,0.0,0.0,0.0,0.0,0.0,0.0,0.0,0.0,0.0,-0.0571,-0.1515,-0.2251,-0.2592,-0.2917,-0.2889,-0.2874,-0.2874,-0.2874,-0.2874,-0.2874,-0.2874,-0.2867,-0.2852,-0.2822,-0.2792,0.4327,0.456,0.494,0.4954,0.5195,0.5117,0.4638,0.4958,0.5285,0.515,0.0,0.0,0.0,0.0,0.0,0.0,0.0,0.0,0.0,0.0,0.0,0.0,0.0,0.0,0.0,0.0,0.0,0.0,0.0,0.0,0.0,0.0,0.0,0.0,0.0,0.0,-0.3052,-0.3052,-0.3052,-0.3052,-0.3052,-0.3052,-0.3052,-0.3052,-0.3052,-0.3052,-0.3052,-0.3052,-0.3052,-0.3052,-0.3052,-0.3052,-0.3052,-0.3052,-0.3052,-0.3052,-0.3052,-0.3052,-0.3052,-0.3052,-0.3052,-0.3052,-0.3052,-0.3052,-0.3052,-0.3052,-0.2862,-0.2098,-0.1336,-0.0573,-0.0191,0.0,0.0,0.0,0.0,0.0,0.0,0.0,0.0,0.0,0.0,0.0,0.0,0.0,0.0,0.0,0.0,0.0,0.0,0.0,0.0,0.0,0.0,0.0,0.0,0.0,-0.038,-0.094,-0.2235,-0.295,-0.2917,-0.2889,-0.2874,-0.2874,-0.2874,-0.2874,-0.2874,-0.2874,-0.2874,-0.2874,-0.2842,-0.2812,0.4739,0.4929,0.4951,0.5006,0.5384,0.5112,0.3195,0.4314,0.0,0.3121,0.0,0.0,0.0,0.0,0.0,0.0,0.0,0.0,0.0,0.0,0.0,0.0,0.0,0.0,0.0,0.0,0.0,0.0,0.0,0.0,0.0,0.0,0.0,0.0,0.0,0.0,-0.3052,-0.3052,-0.3052,-0.3052,-0.3052,-0.3052,-0.3052,-0.3052,-0.3052,-0.3052,-0.3052,-0.3052,-0.3052,-0.3052,-0.3052,-0.3052,-0.3052,-0.3052,-0.3052,-0.3052,-0.3052,-0.3052,-0.3052,-0.3052,-0.3052,-0.3052,-0.3052,-0.3052,-0.3052,-0.3052,-0.3052,-0.3052,-0.2863,-0.2482,-0.0573,0.0,0.0,0.0,0.0,0.0,0.0,0.0,0.0,0.0,0.0,0.0,0.0,0.0,0.0,0.0,0.0,0.0,0.0,0.0,0.0,0.0,0.0,0.0,0.0,0.0,-0.0,-0.0188,-0.1863,-0.2951,-0.292,-0.289,-0.2874,-0.2874,-0.2874,-0.2874,-0.2874,-0.2874,-0.2874,-0.2874,-0.2842,-0.2812,0.5196,0.5061,0.4913,0.5522,0.5734,0.5915,0.0,0.5177,0.4593,0.3828,0.4347,0.0,0.0,0.0,0.0,0.0,0.0,0.0,0.0,0.0,0.0,0.0,0.0,0.0,0.0,0.0,0.0,0.0,0.0,0.0,0.0,0.0,0.0,0.0,0.0,0.0,0.0,-0.3052,-0.3052,-0.3052,-0.3052,-0.3052,-0.3052,-0.3052,-0.3052,-0.3052,-0.3052,-0.3052,-0.3052,-0.3052,-0.3052,-0.3052,-0.3052,-0.3052,-0.3052,-0.3052,-0.3052,-0.3052,-0.3052,-0.3052,-0.3052,-0.3052,-0.3052,-0.3052,-0.3052,-0.267,-0.2098,-0.2098,-0.1717,-0.0954,-0.0191,0.0,0.0,0.0,0.0,0.0,0.0,0.0,0.0,0.0,0.0,0.0,0.0,0.0,0.0,0.0,0.0,0.0,0.0,0.0,0.0,0.0,0.0,0.0,0.0,0.0,0.0,0.0,-0.0748,-0.1291,-0.2008,-0.2529,-0.2874,-0.2874,-0.2874,-0.2874,-0.2874,-0.2874,-0.2874,-0.2874,-0.2861,-0.283,0.5532,0.5566,0.5426,0.4923,0.5623,0.6465,0.6644,0.5406,0.4482,0.5373,0.4048,0.0,0.0,0.0,0.0,0.0,0.0,0.0,0.0,0.0,0.0,0.0,0.0,0.0,0.0,0.0,0.0,0.0,0.0,0.0,0.0,0.0,0.0,0.0,0.0,0.0,0.0,-0.3052,-0.3052,-0.3052,-0.3052,-0.3052,-0.3052,-0.3052,-0.3052,-0.3052,-0.3052,-0.3052,-0.3052,-0.3052,-0.3052,-0.3052,-0.3052,-0.3052,-0.3052,-0.3052,-0.3052,-0.3052,-0.3052,-0.3052,-0.3052,-0.3052,-0.3052,-0.3052,-0.3052,-0.267,-0.1907,-0.1526,-0.0763,0.0,0.0,0.0,0.0,0.0,0.0,0.0,0.0,0.0,0.0,0.0,0.0,0.0,0.0,0.0,0.0,0.0,0.0,0.0,0.0,0.0,0.0,0.0,0.0,0.0,0.0,0.0,0.0,0.0,0.0,-0.0371,-0.0917,-0.1634,-0.2343,-0.2874,-0.2874,-0.2874,-0.2874,-0.2515,-0.2515,-0.2874,-0.2515,-0.2486,0.5929,0.6339,0.6234,0.3196,0.4877,0.6783,0.53,0.4468,0.465,0.7925,0.4079,0.0,0.0,0.0,0.0,0.0,0.0,0.0,0.0,0.0,0.0,0.0,0.0,0.0,0.0,0.0,0.0,0.0,0.0,0.0,0.0,0.0,0.0,0.0,0.0,0.0,0.0,-0.3052,-0.3052,-0.3052,-0.3052,-0.3052,-0.3052,-0.3052,-0.3052,-0.3052,-0.3052,-0.3052,-0.3052,-0.3052,-0.3052,-0.3052,-0.3052,-0.3052,-0.3052,-0.3052,-0.3052,-0.3052,-0.3052,-0.3052,-0.3052,-0.3052,-0.3052,-0.3052,-0.3052,-0.3052,-0.2862,-0.1718,-0.0764,0.0,0.0,0.0,0.0,0.0,0.0,0.0,0.0,0.0,0.0,0.0,0.0,0.0,0.0,0.0,0.0,0.0,0.0,0.0,0.0,0.0,0.0,0.0,0.0,0.0,0.0,0.0,0.0,0.0,0.0,0.0,0.0,0.0,-0.0908,-0.2875,-0.2874,-0.2874,-0.2874,-0.1795,-0.1975,-0.2874,-0.1795,-0.1953,0.6648,0.5224,0.0,0.586,0.5927,0.582,0.0,0.6954,0.0,0.0,0.4372,0.4779,0.0,0.0,0.0,0.0,0.0,0.0,0.0,0.0,0.0,0.0,0.0,0.0,0.0,0.0,0.0,0.0,0.0,0.0,0.0,0.0,0.0,0.0,0.0,0.0,-0.3052,-0.3052,-0.3052,-0.3052,-0.3052,-0.3052,-0.3052,-0.3052,-0.3052,-0.3052,-0.3052,-0.3052,-0.3052,-0.3052,-0.3052,-0.3052,-0.3052,-0.3052,-0.3052,-0.3052,-0.3052,-0.3052,-0.3052,-0.3052,-0.3052,-0.3052,-0.3052,-0.3052,-0.3052,-0.2479,-0.2098,-0.248,-0.1336,0.0,0.0,0.0,0.0,0.0,0.0,0.0,0.0,0.0,0.0,0.0,0.0,0.0,0.0,0.0,0.0,0.0,0.0,0.0,0.0,0.0,0.0,0.0,0.0,0.0,0.0,0.0,0.0,0.0,0.0,0.0,0.0,0.0,-0.0182,-0.0898,-0.1436,-0.2156,-0.2874,-0.1257,-0.0539,-0.0898,-0.1257,-0.1961,0.7171,0.5925,0.0,0.742,0.7154,0.6546,0.773,0.0,0.0,0.0,0.0,0.0,0.0,0.0,0.0,0.0,0.0,0.0,0.0,0.0,0.0,0.0,0.0,0.0,0.0,0.0,0.0,0.0,0.0,0.0,0.0,0.0,0.0,0.0,0.0,0.0,-0.3052,-0.3052,-0.3052,-0.3052,-0.3052,-0.3052,-0.3052,-0.3052,-0.3052,-0.3052,-0.3052,-0.3052,-0.3052,-0.3052,-0.3052,-0.3052,-0.3052,-0.3052,-0.3052,-0.3052,-0.3052,-0.3052,-0.3052,-0.3052,-0.3052,-0.3052,-0.3052,-0.3052,-0.3052,-0.2288,-0.1526,-0.1717,-0.0954,0.0,0.0,0.0,0.0,0.0,0.0,0.0,0.0,0.0,0.0,0.0,0.0,0.0,0.0,0.0,0.0,0.0,0.0,0.0,0.0,0.0,0.1526,0.5535,0.6106,0.4387,0.0381,0.0,0.0,0.0,0.0,0.0,0.0,0.0,0.0,0.0,-0.0539,-0.1077,-0.1795,-0.0539,0.0359,0.1077,0.0,-0.125,0.7521,0.7827,0.8127,0.8152,0.7722,0.0,0.7299,0.3488,0.0,0.0,0.0,0.0,0.0,0.0,0.0,0.0,0.0,0.0,0.0,0.0,0.0,0.0,0.0,0.0,0.0,0.0,0.0,0.0,0.0,0.0,0.0,0.0,0.0,0.0,0.0,0.0,-0.3052,-0.3052,-0.3052,0.0,-0.3052,-0.3052,-0.3052,-0.3052,-0.3052,-0.3052,-0.3052,-0.3052,-0.3052,-0.3052,-0.3052,-0.3052,-0.3052,-0.3052,-0.3052,-0.3052,-0.3052,-0.3052,-0.3052,-0.3052,-0.3052,-0.3052,-0.3052,-0.3052,-0.3052,-0.2288,-0.1335,-0.0191,0.0,0.0,0.0,0.0,0.0,0.0,0.0,0.0,0.0,0.0,0.0,0.0,0.0,0.0,0.0,0.0,0.0,0.0,0.0,0.0,0.0,0.0764,0.4961,1.4191,1.516,1.1462,0.209,0.095,0.0761,0.0763,0.0191,0.0,0.0,0.0,0.0,0.0,0.0,0.0,0.0,0.0,0.1077,0.2874,0.1616,-0.0357,0.7653,0.7705,0.0,0.8056,0.4942,0.1733,0.1756,0.0886,0.0,0.0,0.0,0.0,0.0,0.0,0.0,0.0,0.0,0.0,0.0,0.0,0.0,0.0,0.0,0.0,0.0,0.0,0.0,0.0,0.0,0.0,0.0,0.0,0.0,0.0,0.0,-0.3052,-0.3052,-0.3052,-0.3052,0.0,-0.3052,-0.3052,-0.3052,-0.3052,-0.3052,-0.3052,-0.3052,-0.3052,-0.3052,-0.3052,-0.3052,-0.3052,-0.3052,-0.3052,-0.3052,-0.3052,-0.3052,-0.3052,-0.3052,-0.3052,-0.3052,-0.3052,-0.3052,-0.3052,-0.3052,-0.2288,-0.1335,-0.0191,0.0,0.0,0.0,0.0,0.0,0.0,0.0,0.0,0.0,0.0,0.0,0.0,0.0,0.0,0.0,0.0,0.0,0.0,0.0,0.0,0.0,0.7065,1.283,1.497,1.514,1.4342,1.2205,0.8174,0.5887,0.5889,0.2264,0.0,0.0,0.0,0.0,0.0,0.0,0.0,0.0,0.0718,0.1795,0.2874,0.1616,0.0359,0.6364,0.593,0.0,0.4572,0.0,0.0,0.0,0.0,0.0,0.0,0.0,0.0,0.0,0.0,0.0,0.0,0.0,0.0,0.0,0.0,0.0,0.0,0.0,0.0,0.0,0.0,0.0,0.0,0.0,0.0,0.0,0.0,0.0,0.0,-0.3052,-0.3052,-0.3052,-0.3052,-0.3052,-0.3052,-0.3052,-0.3052,-0.3052,-0.3052,-0.3052,-0.3052,-0.3052,-0.3052,-0.3052,-0.3052,-0.3052,-0.3052,-0.3052,-0.3052,-0.3052,-0.3052,-0.3052,-0.3052,-0.3052,-0.3052,-0.3052,-0.3052,-0.3052,-0.3052,-0.3052,-0.2671,-0.1907,-0.0382,0.0,0.0,0.0,0.0,0.0,0.0,0.0,0.0,0.0,0.0,0.0,0.0,0.0,0.0,0.0,0.0,0.1336,0.5344,0.5916,0.5342,0.3808,0.8196,1.2416,1.4924,1.5289,1.5276,1.5276,1.2756,1.1222,1.1232,0.8101,0.522,0.2767,0.2758,0.1823,0.0,0.0,0.0,0.0,0.2692,0.3769,0.2874,0.1794,0.0718,0.5207,0.3968,0.2699,0.0513,0.0,0.0,0.0,0.0,0.0,0.0,0.0,0.0,0.0,0.0,0.0,0.0,0.0,0.0,0.0,0.0,0.0,0.0,0.0,0.0,0.0,0.0,0.0,0.0,0.0,0.0,0.0,0.0,-0.3052,-0.3052,-0.3052,-0.3052,-0.3052,-0.3052,-0.3052,-0.3052,-0.3052,-0.3052,-0.3052,-0.3052,-0.3052,-0.3052,-0.3052,-0.3052,-0.3052,-0.3052,-0.3052,-0.3052,-0.3052,-0.3052,-0.3052,-0.3052,-0.3052,-0.3052,-0.3052,-0.3052,-0.3052,-0.3052,-0.3052,-0.3052,-0.2862,-0.2862,-0.2671,-0.0573,0.0,0.0,0.0,0.0,0.0,0.0,0.0,0.0,0.0,0.0,0.0,0.0,0.0,0.0,0.0,0.1145,0.4389,1.1097,1.2254,1.1277,0.8755,0.8557,1.0271,1.4487,1.5053,1.5046,1.5242,1.5242,1.5248,1.5282,1.3983,1.1382,0.701,0.6753,0.5241,0.2333,0.0718,0.0359,0.1256,0.5199,0.6279,0.4668,0.2864,0.1611,0.7502,0.3966,0.0507,0.0,0.0,0.0,0.0,0.0,0.0,0.0,0.0,0.0,0.0,0.0,0.0,0.0,0.0,0.0,0.0,0.0,0.0,0.0,0.0,0.0,0.0,0.0,0.0,0.0,0.0,0.0,0.0,-0.3052,-0.3052,-0.3052,-0.3052,-0.3052,-0.3052,-0.3052,-0.3052,-0.3052,-0.3052,-0.3052,-0.3052,-0.3052,-0.3052,-0.3052,-0.3052,-0.3052,-0.3052,-0.3052,-0.3052,-0.3052,-0.3052,-0.3052,-0.3052,-0.3052,-0.3052,-0.3052,-0.3052,-0.3052,-0.3052,-0.3052,-0.3052,-0.2862,-0.1907,-0.2288,-0.2671,-0.0573,0.0,0.0,0.0,0.0,0.0,0.0,0.0,0.0,0.0,0.0,0.0,0.0,0.0,0.0,0.0,0.5916,1.0906,1.2058,1.2243,1.2037,1.1647,1.201,1.2956,1.4109,1.4455,1.4623,1.5194,1.5194,1.5194,1.5201,1.4401,1.3144,1.1813,1.1082,1.0799,1.1141,0.3761,0.1969,0.6085,0.6809,0.8615,1.1504,0.6621,0.447,0.795,0.4174,0.0,0.0,0.0,0.0,0.0,0.0,0.0,0.0,0.0,0.0,0.0,0.0,0.0,0.0,0.0,0.0,0.0,0.0,0.0,0.0,0.0,0.0,0.0,0.0,0.0,0.0,0.0,0.0,-0.3052,-0.3052,-0.3052,-0.3052,-0.3052,0.0,-0.3052,-0.3052,-0.3052,-0.3052,-0.3052,-0.3052,-0.3052,-0.3052,-0.3052,-0.3052,-0.3052,-0.3052,-0.3052,-0.3052,-0.3052,-0.3052,-0.3052,-0.3052,-0.3052,-0.3052,-0.3052,-0.3052,-0.3052,-0.3052,-0.3052,-0.3052,-0.3052,-0.2862,-0.1907,-0.1526,-0.1145,-0.0191,0.0,0.0,0.0,0.0,0.0,0.0,0.0,0.0,0.0,0.3629,0.5542,0.0954,0.1906,0.4191,0.6487,0.8014,0.9534,1.1842,1.2216,1.221,1.2572,1.2756,1.3323,1.3895,1.4253,1.4422,1.4805,1.4993,1.5181,1.5181,1.4177,1.3474,1.3096,1.2136,1.1838,1.2556,0.896,0.7163,0.7149,0.9847,1.1665,1.2776,1.0209,0.8952,0.8011,0.4868,0.1183,0.0173,0.0,0.0,0.0,0.0,0.0,0.0,0.0,0.0,0.0,0.0,0.0,0.0,0.0,0.0,0.0,0.0,0.0,0.0,0.0,0.0,0.0,0.0,0.0,0.0,0.0,0.0,-0.3052,-0.3052,-0.3052,-0.3052,-0.3052,-0.3052,-0.3052,-0.3052,-0.3052,-0.3052,-0.3052,-0.3052,-0.3052,-0.3052,-0.3052,-0.3052,-0.3052,-0.3052,-0.3052,-0.3052,-0.3052,-0.3052,-0.3052,-0.3052,-0.3052,-0.3052,-0.3052,-0.3052,-0.3052,-0.3052,-0.3052,-0.3052,-0.3052,-0.2862,-0.1907,-0.0763,0.0,0.0,0.0,0.0,0.0,0.0,0.0,0.0,0.1527,0.3055,0.3054,0.7841,1.0344,0.4198,0.4759,0.7423,1.1472,0.9724,0.8751,1.1815,1.2194,1.2378,1.2739,1.2739,1.2928,1.3493,1.3864,1.4241,1.4422,1.4805,1.5181,1.5181,1.3973,1.3272,1.3272,1.2298,1.1988,1.2343,1.2912,1.1654,0.8753,1.2538,1.382,1.2936,1.2728,1.2188,0.809,0.6669,0.4218,0.0863,0.0,0.0,0.0,0.0,0.0,0.0,0.0,0.0,0.0,0.0,0.0,0.0,0.0,0.0,0.0,0.0,0.0,0.0,0.0,0.0,0.0,0.0,0.0,0.0,0.0,0.0,-0.3052,-0.3052,-0.3052,-0.3052,-0.3052,-0.3052,-0.3052,-0.3052,-0.3052,-0.3052,-0.3052,-0.3052,-0.3052,-0.3052,-0.3052,-0.3052,-0.3052,-0.3052,-0.3052,-0.3052,-0.3052,-0.3052,-0.3052,-0.3052,-0.3052,-0.3052,-0.3052,-0.3052,-0.3052,-0.3052,-0.3052,-0.3052,-0.3052,-0.2862,-0.1907,-0.0763,0.0,0.0,0.0,0.0,0.0,0.0,0.0,0.0,0.5926,1.1513,1.1487,1.1873,1.2058,1.1652,0.8569,0.7419,1.1457,1.2021,1.2005,1.2199,1.2183,1.2172,1.2172,1.2172,1.2361,1.2928,1.3493,1.387,1.4422,1.4805,1.5181,1.5181,1.3973,1.3272,1.3272,1.2657,1.2343,1.2875,1.3236,1.3413,1.323,1.3978,1.38,1.2881,1.2881,1.2349,0.8069,0.7635,0.6871,0.5693,0.2605,0.0,0.0,0.0,0.0,0.0,0.0,0.0,0.0,0.0,0.0,0.0,0.0,0.0,0.0,0.0,0.0,0.0,0.0,0.0,0.0,0.0,0.0,0.0,0.0,0.0,-0.3052,-0.3052,-0.3052,-0.3052,-0.3052,-0.3052,-0.3052,-0.3052,-0.3052,-0.3052,-0.3052,-0.3052,-0.3052,-0.3052,-0.3052,-0.3052,-0.3052,-0.3052,-0.3052,-0.3052,-0.3052,-0.3052,-0.3052,-0.3052,-0.3052,-0.3052,-0.3052,-0.3052,-0.3052,-0.3052,-0.3052,-0.3052,-0.3052,-0.2479,0.0381,0.4383,0.7252,0.4569,0.3997,0.3998,0.4002,0.4,0.3997,0.3997,0.6096,0.8968,1.1647,1.2216,1.2221,1.2227,1.1047,1.046,1.2015,1.2194,1.2183,1.2183,1.2178,1.2172,1.2172,1.2172,1.2172,1.2361,1.2928,1.3305,1.387,1.4429,1.4805,1.5181,1.3973,1.3455,1.3821,1.2836,1.252,1.3413,1.3591,1.3768,1.4122,1.3958,1.3597,1.2875,1.252,1.2165,0.8019,0.8061,0.7978,0.8313,0.5559,0.2262,0.0358,0.0,0.0,0.0,0.0,0.0,0.0,0.0,0.0,0.0,0.0,0.0,0.0,0.0,0.0,0.0,0.0,0.0,0.0,0.0,0.0,0.0,0.0,0.0,-0.3052,-0.3052,-0.3052,-0.3052,-0.3052,-0.3052,-0.3052,-0.3052,-0.3052,-0.3052,-0.3052,-0.3052,-0.3052,-0.3052,-0.3052,-0.3052,-0.3052,-0.3052,-0.3052,-0.3052,-0.3052,-0.3052,-0.3052,-0.3052,-0.3052,-0.3052,-0.3052,-0.3052,-0.3052,-0.3052,-0.3052,-0.3052,-0.3052,-0.2479,0.0571,0.6484,1.1672,0.896,0.8189,0.8185,0.8196,0.8193,0.8185,0.8185,0.8182,0.8944,1.1621,1.2199,1.2199,1.2205,1.2188,1.2178,1.2188,1.2178,1.2172,1.1983,1.1983,1.1983,1.1983,1.1983,1.1983,1.2172,1.255,1.3116,1.3688,1.4052,1.4597,1.5113,1.4139,1.3619,1.3939,1.317,1.2875,1.3591,1.3768,1.3945,1.4299,1.3768,1.3407,1.2875,1.2343,1.1988,0.0,0.0,0.0,0.8354,0.8338,0.6911,0.1442,0.0,0.0,0.0,0.0,0.0,0.0,0.0,0.0,0.0,0.0,0.0,0.0,0.0,0.0,0.0,0.0,0.0,0.0,0.0,0.0,0.0,0.0,-0.3052,-0.3052,-0.3052,-0.3052,-0.3052,-0.3052,-0.3052,-0.3052,-0.3052,-0.3052,-0.3052,-0.3052,-0.3052,-0.3052,-0.3052,-0.3052,-0.3052,-0.3052,-0.3052,-0.3052,-0.3052,-0.3052,-0.3052,-0.3052,-0.3052,-0.3052,-0.3052,-0.3052,-0.3052,-0.3052,-0.3052,-0.3052,-0.3052,-0.3052,-0.2862,-0.1716,0.4956,1.2058,1.2254,1.2237,1.2227,1.2227,1.2227,1.2227,1.2227,1.221,1.2199,1.2199,1.2199,1.2194,1.2178,1.2172,1.2172,1.2172,1.2172,1.1983,1.1416,1.1416,1.1416,1.1416,1.1416,1.1605,1.2172,1.255,1.3116,1.3682,1.4052,1.4558,1.4977,1.4271,1.3939,1.3797,1.3662,1.3591,1.3591,1.4122,1.4299,1.4299,1.3768,1.3413,1.2875,1.2343,1.1988,0.7656,0.0,0.0,0.0,0.0,0.0,0.5833,0.2666,0.0,0.0,0.0,0.0,0.0,0.0,0.0,0.0,0.0,0.0,0.0,0.0,0.0,0.0,0.0,0.0,0.0,0.0,0.0,0.0,-0.3052,-0.3052,-0.3052,-0.3052,-0.3052,-0.3052,-0.3052,-0.3052,-0.3052,-0.3052,-0.3052,-0.3052,-0.3052,-0.3052,-0.3052,-0.3052,-0.3052,-0.3052,-0.3052,-0.3052,-0.3052,-0.3052,-0.3052,-0.3052,-0.3052,-0.3052,-0.3052,-0.3052,-0.2097,-0.0953,-0.0953,-0.0953,-0.0953,-0.0953,-0.1906,-0.267,0.019,0.4187,0.8383,1.1447,1.2199,1.2188,1.2188,1.2194,1.2205,1.2188,1.2183,1.2178,1.2178,1.2178,1.2178,1.2172,1.2172,1.2172,1.2172,1.2172,1.1983,1.1416,1.1416,1.1416,1.1416,1.1416,1.1605,1.2172,1.2361,1.255,1.3116,1.3682,1.3996,1.4421,1.4087,1.4127,1.4336,1.384,1.3768,1.4122,1.4299,1.4299,1.4299,1.3413,1.3053,1.2875,1.1988,1.1632,0.0,0.0,0.0,0.0,0.0,0.0,0.7406,0.514,0.2481,0.0,0.0,0.0,0.0,0.0,0.0,0.0,0.0,0.0,0.0,0.0,0.0,0.0,0.0,0.0,0.0,0.0,0.0,0.0,-0.3052,-0.3052,-0.3052,-0.3052,-0.3052,-0.3052,-0.3052,-0.3052,-0.3052,-0.3052,-0.3052,-0.3052,-0.3052,-0.3052,-0.3052,-0.3052,-0.3052,-0.3052,-0.2097,-0.2287,-0.3052,-0.2097,-0.2287,-0.3052,-0.3052,-0.3052,-0.3052,-0.2097,-0.0953,0.019,0.0952,0.1333,0.1142,0.0571,-0.1143,-0.2287,0.1904,0.4565,0.7037,1.1047,1.2183,1.2172,1.2172,1.2178,1.2183,1.2172,1.2172,1.2172,1.2172,1.2172,1.2172,1.2172,1.2172,1.2172,1.2172,1.1983,1.1605,1.1227,1.0848,1.0848,1.1037,1.1037,1.1416,1.2172,1.2172,1.2361,1.2928,1.3116,1.3602,1.4145,1.4055,1.4101,1.4434,1.4169,1.3945,1.4299,1.4299,1.4122,1.3945,1.3413,1.3053,1.252,1.181,1.1455,0.0,0.0,0.0,0.0,0.0,0.0,0.7244,0.7109,0.585,0.0,0.0,0.0,0.0,0.0,0.0,0.0,0.0,0.0,0.0,0.0,0.0,0.0,0.0,0.0,0.0,0.0,-0.3052,-0.3052,-0.3052,-0.3052,-0.3052,-0.3052,-0.3052,-0.3052,-0.3052,-0.3052,-0.3052,-0.3052,-0.3052,-0.3052,-0.3052,-0.3052,-0.3052,-0.286,-0.267,-0.267,-0.0571,-0.0762,-0.2287,-0.0381,-0.0953,-0.267,-0.267,-0.267,-0.2287,-0.0381,0.0571,0.0952,0.2665,0.3426,0.3236,0.1904,-0.0381,-0.1714,0.2855,0.5327,0.7416,1.1237,1.2183,1.2172,1.2172,1.2172,1.2172,1.2172,1.2172,1.2172,1.2172,1.2172,1.2172,1.2172,1.2172,1.2172,1.2172,1.1794,1.1227,1.0659,1.028,1.009,1.0659,1.0659,1.1037,1.2172,1.2172,1.2361,1.2739,1.2928,1.3192,1.384,1.4003,1.4062,1.4312,1.4299,1.4299,1.4299,1.4299,1.4122,1.3768,1.3591,1.3053,1.2165,1.1632,1.1455,0.0,0.0,0.0,0.0,0.0,0.0,0.7231,0.6634,0.5825,0.0,0.0,0.0,0.0,0.0,0.0,0.0,0.0,0.0,0.0,0.0,0.0,0.0,0.0,0.0,0.0,0.0,-0.3052,-0.3052,-0.3052,-0.3052,-0.3052,-0.3052,-0.3052,-0.3052,-0.3052,-0.3052,-0.3052,-0.3052,-0.3052,-0.3052,-0.3052,-0.3052,-0.3052,-0.1334,-0.0571,-0.0571,0.1523,0.2094,0.1904,0.2284,0.1142,-0.0571,-0.0571,0.0381,0.1904,0.2284,0.3426,0.4947,0.5327,0.552,0.552,0.5137,0.3234,0.1142,0.2283,0.6087,1.0474,1.1799,1.2172,1.2172,1.2172,1.2172,1.2172,1.2172,1.2172,1.2172,1.1605,1.1605,1.1605,1.1605,1.1983,1.1983,1.1605,1.1416,1.1037,1.028,0.9901,1.009,1.0659,1.0659,1.1037,1.2172,1.2172,1.2172,1.2361,1.2739,1.3005,1.3291,1.3821,1.4062,1.4312,1.4299,1.4299,1.4299,1.4299,1.4299,1.4122,1.3413,1.2698,1.2165,1.1632,1.1455,0.0,0.0,0.0,0.6032,0.0,0.0,0.0,0.7274,0.7671,0.8807,0.0,0.0,0.0,0.0,0.0,0.0,0.0,0.0,0.0,0.0,0.0,0.0,0.0,0.0,0.0,0.0,-0.3052,-0.3052,-0.3052,-0.3052,-0.3052,-0.3052,-0.3052,-0.3052,-0.3052,-0.3052,-0.3052,-0.3052,-0.3052,-0.3052,-0.3052,-0.2479,-0.1524,-0.0381,0.0571,0.1523,0.3616,0.3997,0.3046,0.4187,0.3997,0.2855,0.1904,0.2094,0.3046,0.4187,0.514,0.628,0.7233,0.7616,0.7616,0.7619,0.6666,0.5713,0.647,0.8944,1.1805,1.2172,1.2172,1.2172,1.2172,1.2172,1.2172,1.2172,1.2172,1.1983,1.1605,1.1416,1.1416,1.1037,1.1227,1.1416,1.1416,1.1037,1.0469,0.9901,0.9711,0.9711,1.028,1.0469,1.1037,1.1794,1.1983,1.2172,1.2172,1.23,1.2562,1.2919,1.3211,1.363,1.3951,1.4122,1.4299,1.4299,1.4299,1.4299,1.4299,1.3407,1.2698,1.252,1.181,1.1455,0.0,0.0,0.0,0.0,0.0,0.59,0.0,0.0,0.0,1.1243,0.0,0.0,0.0,0.0,0.0,0.0,0.0,0.0,0.0,0.0,0.0,0.0,0.0,0.0,0.0,0.0,-0.2474,-0.3051,-0.2665,-0.2474,-0.3052,-0.3052,-0.3052,-0.3052,-0.3052,-0.3052,-0.3052,-0.3052,-0.3052,-0.3052,-0.267,-0.1716,0.0,0.0762,0.2094,0.3806,0.571,0.571,0.4377,0.59,0.6663,0.6473,0.4377,0.3806,0.4377,0.609,0.6663,0.6853,0.8569,0.9142,0.9146,0.915,0.915,0.953,1.0673,1.1426,1.1983,1.2172,1.2172,1.1983,1.2172,1.2172,1.2172,1.1983,1.1983,1.1983,1.1416,1.1227,1.1037,1.0659,1.0469,1.0469,1.1037,1.0469,0.9901,0.9711,0.9332,0.9332,0.9901,1.028,1.0848,1.1416,1.1794,1.2172,1.2172,1.2058,1.2124,1.2546,1.2788,1.3201,1.3597,1.4122,1.4299,1.4122,1.4122,1.4122,1.3945,1.323,1.2875,1.2875,1.1988,1.1455,0.0,0.0,0.0,0.0,0.5891,0.0,0.0,0.0,0.9021,1.1296,0.0,0.0,0.0,0.0,0.0,0.0,0.0,0.0,0.0,0.0,0.0,0.0,0.0,0.0,0.0,0.0,0.0,-0.2859,-0.0755,-0.0377,-0.305,-0.3052,-0.3052,-0.3052,-0.3052,-0.3052,-0.3052,-0.3052,-0.3052,-0.3052,-0.1143,-0.019,0.019,0.3806,0.552,0.59,0.7806,0.8573,0.8379,0.8569,0.8763,0.8569,0.6473,0.6853,0.8379,0.8759,0.8763,0.8763,0.8952,0.9142,0.9142,0.9146,0.9332,0.9901,1.0469,1.0848,1.1037,1.1983,1.1794,1.1605,1.2172,1.2172,1.2172,1.1605,1.1416,1.1416,1.0848,1.0469,1.028,1.0659,0.9901,0.9522,0.9901,0.9901,0.9711,0.9332,0.9142,0.9332,0.9901,1.028,1.0848,1.1416,1.1794,1.2172,1.2172,1.2058,1.2124,1.2546,1.2788,1.3201,1.3597,1.4122,1.4122,1.3768,1.3768,1.3413,1.3053,1.252,1.252,1.2875,1.1988,1.1455,0.0,0.0,0.0,0.0,0.0,0.0,0.0,0.0,0.9997,0.0,0.0,0.0,0.0,0.0,0.0,0.0,0.0,0.0,0.0,0.0,0.0,0.0,0.0,0.0,0.0,0.0,0.0,0.0,0.0,-0.1707,-0.3051,-0.3052,-0.3052,-0.3052,-0.3052,-0.3052,-0.3052,-0.3052,-0.2479,-0.1334,-0.0381,0.1333,0.3616,0.533,0.6663,0.7806,0.8763,0.9142,0.9142,0.9142,0.9142,0.8952,0.8189,0.8379,0.9142,0.9142,0.9142,0.9142,0.9142,0.9142,0.9142,0.9142,0.9522,0.9901,1.009,1.0469,1.0848,1.1227,1.1227,1.1037,1.1227,1.1416,1.1227,1.1037,1.1037,1.0848,1.028,1.009,0.9901,0.9711,0.9332,0.9142,0.9332,0.9522,0.9332,0.9142,0.9142,0.9142,0.9332,0.9901,1.0469,1.0848,1.1416,1.1794,1.2172,1.1998,1.1868,1.2002,1.2717,1.3115,1.3591,1.4122,1.4122,1.3945,1.3945,1.3945,1.3768,1.323,1.3053,1.3236,1.1988,1.1417,0.7152,0.0,0.0,0.0,0.0,0.0,0.0,0.0,0.0,0.0,0.0,0.0,0.0,0.0,0.0,0.0,0.0,0.0,0.0,0.0,0.0,0.0,0.0,0.0,0.0,0.0,0.0,0.0,-0.19,0.0,-0.2287,-0.2287,-0.2287,-0.2287,-0.2287,-0.2479,-0.3052,-0.2479,-0.1524,0.0,0.1142,0.3236,0.609,0.6663,0.7806,0.9142,0.9142,0.9142,0.9142,0.9142,0.9142,0.9142,0.9142,0.9142,0.9142,0.9142,0.9142,0.9142,0.9142,0.9142,0.9142,0.9142,0.9522,0.9901,0.9901,1.009,1.0469,1.0659,1.0659,1.0469,1.0659,1.0659,1.0659,1.0469,1.0469,1.028,0.9901,0.9711,0.9522,0.9332,0.9142,0.9142,0.9142,0.9142,0.9142,0.9142,0.9142,0.9142,0.9142,0.9522,1.009,1.0469,1.1037,1.159,1.1935,1.1938,1.1792,1.1903,1.2448,1.2875,1.3413,1.3768,1.3945,1.3945,1.3945,1.3945,1.3945,1.3591,1.3413,1.3413,1.2343,1.176,0.0,0.0,0.0,0.0,0.0,0.0,0.0,0.0,1.1429,0.0,0.0,0.0,0.0,0.0,0.0,1.2472,0.0,0.0,0.0,0.0,0.0,0.0,0.0,0.0,0.0,0.0,0.0,0.1519,0.1318,0.0753,-0.0,-0.019,-0.019,-0.019,-0.019,-0.1143,-0.3052,-0.1143,-0.0,0.0,0.3997,0.59,0.609,0.8189,0.8952,0.9142,0.9142,0.9142,0.9142,0.9142,0.9142,0.9142,0.9142,0.9142,0.9142,0.9142,0.9142,0.9142,0.9142,0.9142,0.9142,0.9142,0.9522,0.9901,0.9901,0.9901,1.009,1.0469,1.028,1.009,1.0659,1.0659,1.0659,1.009,0.9901,0.9901,0.9901,0.9522,0.9332,0.9711,0.9522,0.9142,0.9142,0.9142,0.9142,0.9142,0.9142,0.9142,0.9142,0.9522,0.9901,0.9901,1.0848,1.137,1.1258,1.1515,1.1897,1.2194,1.2171,1.2343,1.2875,1.2875,1.2875,1.2875,1.2875,1.2875,1.2875,1.2875,1.2875,1.2875,1.2875,1.2875,0.0,0.0,0.4832,0.8257,0.0,0.0,0.0,0.0,0.0,0.0,0.0,0.0,0.0,0.0,1.2576,1.2484,1.2638,0.0,0.0,0.0,0.0,0.0,0.0,0.0,0.0,0.0,0.0,0.3385,0.2832,0.2275,0.0,0.1904,0.1333,0.0,0.0,-0.0381,-0.0953,-0.0381,0.1333,0.3997,0.552,0.6853,0.8189,0.8763,0.9142,0.9142,0.9142,0.9142,0.9142,0.9142,0.9142,0.9142,0.9142,0.9142,0.9142,0.9142,0.9142,0.9142,0.9142,0.9142,0.9142,0.9142,0.9142,0.9332,0.9332,0.9332,0.9332,0.9522,0.9522,0.9332,0.9522,0.9711,0.9522,0.9332,0.9332,0.9332,0.9332,0.9142,0.9142,0.9332,0.9142,0.9142,0.9142,0.9142,0.9142,0.9142,0.9142,0.9142,0.9142,0.9332,0.9522,0.9901,1.0469,1.0993,1.1253,1.1441,1.1629,1.1643,1.1988,1.2343,1.2343,1.2698,1.2875,1.2875,1.2875,1.2875,1.2875,1.2875,1.2875,1.2875,1.2875,1.2777,0.5429,0.5266,0.0,0.0,1.0238,0.0,0.0,0.0,0.0,0.0,0.0,0.0,0.0,0.0,0.0,1.2884,1.2759,1.2809,0.0,1.2866,0.0,0.0,0.0,0.0,0.0,0.0,0.6526,0.5453,0.4528,0.3977,0.0,0.0,0.3426,0.2284,0.2094,0.1904,0.1142,0.1713,0.3426,0.609,0.6853,0.7806,0.9142,0.9142,0.9142,0.9142,0.9142,0.9142,0.9142,0.9142,0.9142,0.9142,0.9142,0.9142,0.9142,0.9142,0.9142,0.9142,0.9142,0.9142,0.9142,0.9142,0.9142,0.9142,0.9142,0.9142,0.9154,0.922,0.9191,0.9158,0.922,0.9191,0.9142,0.9142,0.9142,0.9142,0.9142,0.9142,0.9142,0.9142,0.9142,0.9142,0.9142,0.9142,0.9142,0.9142,0.9142,0.9142,0.9142,0.9142,0.9142,0.9522,1.028,1.0978,1.1382,1.1528,1.1536,1.146,1.181,1.1988,1.1988,1.2165,1.2544,1.2592,1.2722,1.2722,1.2949,1.29,1.2875,1.2875,1.2875,1.2729]}]]